[[{"header":{"parameterUnit":"m.s-1","parameterCategory":1,"la1":30.6,"la2":29.2853,"lo1":-89.7004,"lo2":-87.6739,"dy":0.0162,"dx":0.0183,"nx":112,"ny":82,"refTime":"2023-11-03T00:00:00:Z","depth":0,"parameterNumber":2,"parameterNumberName":"U-component_of_WINDS"},"data":[0.0,0.0,0.0,0.0,0.0,0.0,0.0,0.0,0.0,0.0,0.0,0.0,0.0,0.0,0.0,0.0,0.0,0.0,0.0,0.0,0.0,0.0,0.0,0.0,0.0,0.0,0.0,0.0,0.0,0.0,0.0,0.0,0.0,0.0,0.0,0.0,0.0,0.0,0.0,0.0,0.0,0.0,0.0,0.0,0.0,0.0,0.0,0.0,0.0,0.0,0.0,0.0,0.0,0.0,0.0,0.0,0.0,0.0,0.0,0.0,0.0,0.0,0.0,0.0,0.0,0.0,0.0,0.0,0.0,0.0,0.0,0.0,0.0,0.0,0.0,0.0,0.0,0.0,0.0,0.0,0.0,0.0,0.0,0.0,0.0,0.0,0.0,0.0,0.0,0.0,-1.9297,-1.9297,-1.9297,-1.9427,-1.975,-1.9797,-1.9778,-1.9774,0.0,0.0,0.0,0.0,0.0,0.0,0.0,0.0,0.0,0.0,0.0,0.0,0.0,0.0,0.0,0.0,0.0,0.0,0.0,0.0,0.0,0.0,0.0,0.0,0.0,0.0,0.0,0.0,0.0,0.0,0.0,0.0,0.0,0.0,0.0,0.0,0.0,0.0,0.0,0.0,0.0,0.0,0.0,0.0,0.0,0.0,0.0,0.0,0.0,0.0,0.0,0.0,0.0,0.0,0.0,0.0,0.0,0.0,0.0,0.0,0.0,0.0,0.0,0.0,0.0,0.0,0.0,0.0,0.0,0.0,0.0,0.0,0.0,0.0,0.0,0.0,0.0,0.0,0.0,0.0,0.0,0.0,0.0,0.0,0.0,0.0,0.0,0.0,0.0,0.0,0.0,0.0,0.0,0.0,0.0,0.0,0.0,0.0,0.0,0.0,0.0,0.0,0.0,0.0,-1.9297,-1.9297,-1.9297,-1.9387,-1.9616,-1.9732,-1.975,-1.9642,0.0,0.0,0.0,0.0,0.0,0.0,0.0,0.0,0.0,0.0,0.0,0.0,0.0,0.0,0.0,0.0,0.0,0.0,0.0,0.0,0.0,0.0,0.0,0.0,0.0,0.0,0.0,0.0,0.0,0.0,0.0,0.0,0.0,0.0,0.0,0.0,0.0,0.0,0.0,0.0,0.0,0.0,0.0,0.0,0.0,0.0,0.0,0.0,0.0,0.0,0.0,0.0,0.0,0.0,0.0,0.0,0.0,0.0,0.0,0.0,0.0,0.0,0.0,0.0,0.0,0.0,0.0,0.0,0.0,0.0,0.0,0.0,0.0,0.0,0.0,0.0,0.0,0.0,0.0,0.0,0.0,0.0,0.0,0.0,0.0,0.0,0.0,0.0,0.0,0.0,0.0,0.0,0.0,0.0,0.0,0.0,0.0,0.0,0.0,0.0,0.0,0.0,0.0,-1.9297,-1.9297,-1.9297,-1.9297,-1.9372,-1.9576,-1.9713,-1.978,-1.9701,-1.9972,0.0,0.0,0.0,0.0,0.0,0.0,0.0,0.0,0.0,0.0,0.0,0.0,0.0,0.0,0.0,0.0,0.0,0.0,0.0,0.0,0.0,0.0,0.0,0.0,0.0,0.0,0.0,0.0,0.0,0.0,0.0,0.0,0.0,0.0,0.0,0.0,0.0,0.0,0.0,0.0,0.0,0.0,0.0,0.0,0.0,0.0,0.0,0.0,0.0,0.0,0.0,0.0,0.0,0.0,0.0,0.0,0.0,0.0,0.0,0.0,0.0,0.0,0.0,0.0,0.0,0.0,0.0,0.0,0.0,0.0,0.0,0.0,0.0,0.0,0.0,0.0,0.0,0.0,0.0,0.0,0.0,0.0,0.0,0.0,0.0,0.0,0.0,0.0,0.0,0.0,0.0,0.0,0.0,0.0,0.0,0.0,0.0,0.0,0.0,0.0,0.0,0.0,-1.9297,-1.9297,-1.9297,-1.9297,-1.9357,-1.952,-1.9695,-1.9792,-1.9756,-1.9917,0.0,0.0,0.0,0.0,0.0,0.0,0.0,0.0,0.0,0.0,0.0,0.0,0.0,0.0,0.0,0.0,0.0,0.0,0.0,0.0,0.0,0.0,0.0,0.0,0.0,0.0,0.0,0.0,0.0,0.0,0.0,0.0,0.0,0.0,0.0,0.0,0.0,0.0,0.0,0.0,0.0,0.0,0.0,0.0,0.0,0.0,0.0,0.0,0.0,0.0,0.0,0.0,0.0,0.0,0.0,0.0,0.0,0.0,0.0,0.0,0.0,0.0,0.0,0.0,0.0,0.0,0.0,0.0,0.0,0.0,0.0,0.0,0.0,0.0,0.0,0.0,0.0,0.0,0.0,0.0,0.0,0.0,0.0,0.0,0.0,0.0,0.0,0.0,0.0,0.0,0.0,0.0,0.0,0.0,0.0,0.0,0.0,0.0,0.0,0.0,0.0,0.0,-1.9297,-1.9297,-1.9297,-1.9297,-1.9305,-1.932,-1.9612,-1.9744,-1.9623,-1.9858,0.0,0.0,0.0,0.0,0.0,0.0,0.0,0.0,0.0,0.0,0.0,0.0,0.0,0.0,0.0,0.0,0.0,0.0,0.0,0.0,0.0,0.0,0.0,0.0,0.0,0.0,0.0,0.0,0.0,0.0,0.0,0.0,0.0,0.0,0.0,0.0,0.0,0.0,0.0,0.0,0.0,0.0,0.0,0.0,0.0,0.0,0.0,0.0,0.0,0.0,0.0,0.0,0.0,0.0,0.0,0.0,0.0,0.0,0.0,0.0,0.0,0.0,0.0,0.0,0.0,0.0,0.0,0.0,0.0,0.0,0.0,0.0,0.0,0.0,0.0,0.0,0.0,0.0,0.0,0.0,0.0,0.0,0.0,0.0,0.0,0.0,0.0,0.0,0.0,0.0,0.0,0.0,0.0,0.0,0.0,0.0,0.0,0.0,0.0,0.0,0.0,0.0,-1.9297,-1.9297,-1.9297,-1.9297,-1.9342,-1.9478,-1.9682,-1.9807,-1.9847,0.0,0.0,0.0,0.0,0.0,0.0,0.0,0.0,0.0,0.0,0.0,0.0,0.0,0.0,0.0,0.0,0.0,0.0,0.0,0.0,0.0,0.0,0.0,0.0,0.0,0.0,0.0,0.0,0.0,0.0,0.0,0.0,0.0,0.0,0.0,0.0,0.0,0.0,0.0,0.0,0.0,0.0,0.0,0.0,0.0,0.0,0.0,0.0,0.0,0.0,0.0,0.0,0.0,0.0,0.0,0.0,0.0,0.0,0.0,0.0,0.0,0.0,0.0,0.0,0.0,0.0,0.0,0.0,0.0,0.0,0.0,0.0,0.0,0.0,0.0,0.0,0.0,0.0,0.0,0.0,0.0,0.0,0.0,0.0,0.0,0.0,0.0,0.0,0.0,0.0,0.0,0.0,0.0,0.0,0.0,0.0,0.0,0.0,0.0,0.0,0.0,0.0,-1.9297,-1.9297,-1.9297,-1.9297,-1.9297,-1.9372,-1.9576,-1.9713,-1.9836,-1.9938,0.0,0.0,0.0,0.0,0.0,0.0,0.0,0.0,0.0,0.0,0.0,0.0,0.0,0.0,0.0,0.0,0.0,0.0,0.0,0.0,0.0,0.0,0.0,0.0,0.0,0.0,0.0,0.0,0.0,0.0,0.0,0.0,0.0,0.0,0.0,0.0,0.0,0.0,0.0,0.0,0.0,0.0,0.0,0.0,0.0,0.0,0.0,0.0,0.0,0.0,0.0,0.0,0.0,0.0,0.0,0.0,0.0,0.0,0.0,0.0,0.0,0.0,0.0,0.0,0.0,0.0,0.0,0.0,0.0,0.0,0.0,0.0,0.0,0.0,0.0,0.0,0.0,0.0,0.0,0.0,0.0,0.0,0.0,0.0,0.0,0.0,0.0,0.0,0.0,0.0,0.0,0.0,0.0,0.0,0.0,0.0,0.0,0.0,0.0,0.0,0.0,0.0,-1.9297,-1.9315,-1.9315,-1.9315,-1.9315,-1.9391,-1.9594,-1.9732,-1.979,0.0,0.0,0.0,0.0,0.0,0.0,0.0,0.0,0.0,0.0,0.0,0.0,0.0,0.0,0.0,0.0,0.0,0.0,0.0,0.0,0.0,0.0,0.0,0.0,0.0,0.0,0.0,0.0,0.0,0.0,0.0,0.0,0.0,0.0,0.0,0.0,0.0,0.0,0.0,0.0,0.0,0.0,0.0,0.0,0.0,0.0,0.0,0.0,0.0,0.0,0.0,0.0,0.0,0.0,0.0,0.0,0.0,0.0,0.0,0.0,0.0,0.0,0.0,0.0,0.0,0.0,0.0,0.0,0.0,0.0,0.0,0.0,0.0,0.0,0.0,0.0,0.0,0.0,0.0,0.0,0.0,0.0,0.0,0.0,0.0,0.0,0.0,0.0,0.0,0.0,0.0,0.0,0.0,0.0,0.0,0.0,0.0,0.0,0.0,0.0,0.0,0.0,0.0,-1.9297,-1.9803,-2.0144,-2.0144,-2.0144,-2.0231,-2.0424,-2.0051,-1.979,-1.979,0.0,0.0,0.0,0.0,0.0,0.0,0.0,0.0,0.0,0.0,0.0,0.0,0.0,0.0,0.0,0.0,0.0,0.0,0.0,0.0,0.0,0.0,0.0,0.0,0.0,0.0,0.0,0.0,0.0,0.0,0.0,0.0,0.0,0.0,0.0,0.0,0.0,0.0,0.0,0.0,0.0,0.0,0.0,0.0,0.0,0.0,0.0,0.0,0.0,0.0,0.0,0.0,0.0,0.0,0.0,0.0,0.0,0.0,0.0,0.0,0.0,0.0,0.0,0.0,0.0,0.0,0.0,0.0,0.0,0.0,0.0,0.0,0.0,0.0,0.0,0.0,0.0,0.0,0.0,0.0,0.0,0.0,0.0,0.0,0.0,0.0,0.0,0.0,0.0,0.0,0.0,0.0,0.0,0.0,0.0,0.0,0.0,0.0,0.0,0.0,0.0,0.0,-1.9748,-2.0199,-2.0639,-2.0978,-2.1015,-2.0968,-2.0815,-2.0477,-2.0143,-1.9828,0.0,0.0,0.0,0.0,0.0,0.0,0.0,0.0,0.0,0.0,0.0,0.0,0.0,0.0,0.0,0.0,0.0,0.0,0.0,0.0,0.0,0.0,0.0,0.0,0.0,0.0,0.0,0.0,0.0,0.0,0.0,0.0,0.0,0.0,0.0,0.0,0.0,0.0,0.0,0.0,0.0,0.0,0.0,0.0,0.0,0.0,0.0,0.0,0.0,0.0,0.0,0.0,0.0,0.0,0.0,0.0,0.0,0.0,0.0,0.0,0.0,0.0,0.0,0.0,0.0,0.0,0.0,0.0,0.0,0.0,0.0,0.0,0.0,0.0,0.0,0.0,0.0,0.0,0.0,0.0,0.0,0.0,0.0,0.0,0.0,0.0,0.0,0.0,0.0,0.0,0.0,0.0,0.0,0.0,0.0,0.0,0.0,0.0,0.0,0.0,0.0,0.0,-2.0529,-2.0694,-2.1025,-2.1831,-2.1904,-2.1668,-2.1064,-2.0988,-2.0678,-1.9936,0.0,0.0,0.0,0.0,0.0,0.0,0.0,0.0,0.0,0.0,0.0,0.0,0.0,0.0,0.0,0.0,0.0,0.0,0.0,0.0,0.0,0.0,0.0,0.0,0.0,0.0,0.0,0.0,0.0,0.0,0.0,0.0,0.0,0.0,0.0,0.0,0.0,0.0,0.0,0.0,0.0,0.0,0.0,0.0,0.0,0.0,0.0,0.0,0.0,0.0,0.0,0.0,0.0,0.0,0.0,0.0,0.0,0.0,0.0,0.0,-2.1262,-2.0868,0.0,0.0,0.0,0.0,0.0,0.0,0.0,0.0,0.0,0.0,0.0,0.0,0.0,0.0,0.0,0.0,0.0,0.0,0.0,0.0,0.0,0.0,0.0,0.0,0.0,0.0,0.0,0.0,0.0,0.0,0.0,0.0,0.0,0.0,0.0,0.0,0.0,0.0,0.0,0.0,-2.1408,-2.2079,-2.2547,-2.2712,-2.2731,-2.2694,-2.2536,-2.1495,-2.0781,-2.0595,-2.0126,0.0,0.0,0.0,0.0,0.0,0.0,0.0,0.0,0.0,0.0,0.0,0.0,0.0,0.0,0.0,0.0,0.0,0.0,0.0,0.0,0.0,0.0,0.0,0.0,0.0,0.0,0.0,0.0,0.0,0.0,0.0,0.0,0.0,0.0,0.0,0.0,0.0,0.0,0.0,0.0,0.0,0.0,0.0,0.0,0.0,0.0,0.0,0.0,0.0,0.0,0.0,0.0,0.0,0.0,0.0,0.0,0.0,0.0,0.0,-2.2473,-2.1537,0.0,0.0,0.0,0.0,0.0,0.0,0.0,0.0,0.0,0.0,0.0,0.0,0.0,0.0,0.0,0.0,0.0,0.0,0.0,0.0,0.0,0.0,0.0,0.0,0.0,0.0,0.0,0.0,0.0,0.0,0.0,0.0,0.0,0.0,0.0,0.0,0.0,0.0,0.0,0.0,-2.2263,-2.2731,-2.3153,-2.3547,-2.3584,-2.341,-2.3024,-2.235,-2.1615,-2.0848,-2.0533,0.0,0.0,0.0,0.0,0.0,0.0,0.0,0.0,0.0,0.0,0.0,0.0,0.0,0.0,0.0,0.0,0.0,0.0,0.0,0.0,0.0,0.0,0.0,0.0,0.0,0.0,0.0,0.0,0.0,0.0,0.0,0.0,0.0,0.0,0.0,0.0,0.0,0.0,0.0,0.0,0.0,0.0,0.0,0.0,0.0,0.0,0.0,0.0,0.0,0.0,0.0,0.0,0.0,-2.5765,-2.6078,-2.6054,-2.6767,-2.7051,-2.6859,-2.4208,-2.2822,-2.2418,-2.2418,0.0,0.0,0.0,0.0,0.0,0.0,0.0,0.0,0.0,0.0,0.0,0.0,0.0,0.0,0.0,0.0,0.0,0.0,0.0,0.0,0.0,0.0,-2.2424,-2.2421,-2.2659,-2.2413,-2.0627,0.0,0.0,0.0,0.0,0.0,0.0,0.0,0.0,0.0,0.0,0.0,-2.3098,-2.3208,-2.3465,-2.4135,-2.419,-2.3933,-2.3263,-2.3219,-2.2654,-2.1346,-2.1116,-2.0721,0.0,0.0,0.0,0.0,0.0,0.0,0.0,0.0,0.0,0.0,0.0,0.0,0.0,0.0,0.0,0.0,0.0,0.0,0.0,0.0,0.0,0.0,0.0,0.0,0.0,0.0,0.0,0.0,0.0,0.0,0.0,0.0,-2.1667,-2.1645,0.0,0.0,0.0,0.0,0.0,0.0,0.0,0.0,0.0,0.0,0.0,0.0,0.0,-2.576,-2.7145,-2.7273,-2.7677,-2.8363,-2.8713,-2.8759,-2.8539,-2.8891,-2.8897,-2.8656,-2.8235,0.0,-2.4934,-2.4934,0.0,0.0,0.0,0.0,0.0,0.0,0.0,0.0,0.0,0.0,0.0,0.0,0.0,0.0,0.0,0.0,0.0,0.0,0.0,0.0,0.0,0.0,-2.2912,-2.2902,-2.3557,-2.3896,-2.2928,-2.2182,-2.1671,-2.1529,-2.1598,-2.1663,0.0,0.0,0.0,0.0,0.0,0.0,-2.3933,-2.4043,-2.408,-2.419,-2.419,-2.4153,-2.4043,-2.3587,-2.3243,-2.3154,-2.1846,-2.1081,-2.1102,-2.0261,0.0,0.0,0.0,0.0,0.0,0.0,0.0,0.0,0.0,0.0,0.0,0.0,0.0,0.0,0.0,0.0,0.0,0.0,0.0,0.0,0.0,0.0,0.0,0.0,0.0,0.0,0.0,0.0,0.0,-2.1801,-2.1879,-2.1879,-2.2222,-2.2464,0.0,0.0,0.0,0.0,0.0,0.0,0.0,0.0,0.0,-2.7402,-2.786,-2.8429,-2.9145,-3.0044,-3.0675,-3.1023,-3.1598,-3.1808,-3.1696,-3.182,-3.1808,-3.1665,-3.1225,-3.0418,-2.9347,-2.7989,-2.6943,-2.6209,0.0,0.0,0.0,0.0,-2.5718,-2.5681,-2.5488,-2.5314,-2.5125,-2.4782,0.0,0.0,0.0,0.0,0.0,0.0,0.0,-2.4915,-2.5032,-2.5318,-2.5616,-2.5726,-2.6062,-2.6246,-2.5769,-2.5397,-2.4507,-2.233,-2.2373,-2.2704,-2.2509,-2.2937,0.0,0.0,0.0,-2.4017,-2.4912,-2.4948,-2.4928,-2.5032,-2.4939,-2.4695,-2.4245,-2.3962,-2.3635,-2.3238,-2.2722,-2.2048,-2.1168,-2.0743,-2.0304,0.0,0.0,0.0,0.0,0.0,0.0,0.0,0.0,0.0,0.0,0.0,0.0,0.0,0.0,0.0,0.0,0.0,0.0,0.0,0.0,0.0,0.0,0.0,0.0,0.0,0.0,0.0,0.0,-2.2728,-2.2874,-2.3086,-2.3768,-2.4217,0.0,0.0,0.0,0.0,0.0,0.0,-2.8661,-2.8906,-2.9402,-3.0198,-3.0815,-3.1219,-3.1427,-3.2619,-3.3335,-3.355,-3.4231,-3.4507,-3.4431,-3.4507,-3.4494,-3.4412,-3.3807,-3.355,-3.3335,-3.0693,-2.9255,-2.8716,-2.8716,-2.8356,-2.7846,-2.7995,-2.8047,-2.804,-2.8044,-2.7905,-2.7713,-2.75,-2.7445,-2.7407,-2.7185,0.0,0.0,0.0,0.0,-2.7537,-2.7953,-2.8207,-2.8422,-2.8638,-2.8849,-2.8823,-2.8194,-2.8106,-2.7208,-2.3975,-2.3953,-2.4392,-2.4131,-2.4667,0.0,-2.4921,-2.4844,-2.5076,-2.5829,-2.5847,-2.5818,-2.5922,-2.5894,-2.5504,-2.4595,-2.4598,-2.432,-2.3515,-2.3491,-2.2993,-2.1836,-2.1597,-2.1102,-2.0306,0.0,0.0,0.0,0.0,0.0,0.0,0.0,0.0,0.0,0.0,0.0,0.0,0.0,0.0,0.0,0.0,0.0,0.0,0.0,0.0,0.0,0.0,0.0,0.0,0.0,0.0,0.0,0.0,0.0,-2.6554,-2.7182,0.0,0.0,0.0,0.0,-2.8822,-2.9519,-3.032,-3.1176,-3.1953,-3.2742,-3.3532,-3.3605,-3.399,-3.4747,-3.4839,-3.5279,-3.6134,-3.6414,-3.6419,-3.617,-3.6446,-3.6419,-3.6156,-3.6119,-3.6101,-3.5862,-3.2627,-3.1268,-3.1213,-3.1213,-3.1195,-3.1158,-3.117,-3.117,-3.1072,-3.0301,-3.0043,-2.9921,-2.9138,-2.89,-2.8753,-2.7993,-2.7746,0.0,0.0,-2.7757,-2.8009,-2.9032,-2.9876,-3.0515,-3.0777,-3.1426,-3.1495,-2.9692,-2.9511,-2.9166,-2.7376,-2.7074,-2.71,-2.7096,0.0,-2.6786,-2.6777,-2.6603,-2.6502,-2.656,-2.6709,-2.6757,-2.6562,-2.6933,-2.6691,-2.5443,-2.5691,-2.5567,-2.4756,-2.3948,-2.3638,-2.3928,-2.3024,-2.2056,-2.1065,-2.1154,0.0,0.0,0.0,0.0,0.0,0.0,0.0,0.0,0.0,0.0,0.0,0.0,0.0,0.0,0.0,0.0,0.0,0.0,0.0,0.0,0.0,0.0,0.0,0.0,0.0,0.0,0.0,0.0,-2.7624,-2.8661,0.0,-3.0075,-3.0852,-3.1537,-3.2063,-3.2357,-3.2871,-3.3665,-3.3995,-3.4527,-3.5385,-3.5404,-3.555,-3.5844,-3.6358,-3.6762,-3.7088,-3.7702,-3.7945,-3.786,-3.8123,-3.8194,-3.8099,-3.7779,-3.7642,-3.7523,-3.5836,-3.4568,-3.372,-3.372,-3.3403,-3.2897,-3.2551,-3.2439,-3.2332,-3.1662,-3.1347,-3.1184,-3.0906,-3.0795,-3.0758,-3.0461,-3.0461,-3.0547,-3.0405,-3.0472,-3.0663,-3.1043,-3.1345,-3.159,-3.1685,-3.193,-3.194,-3.128,-3.1214,-3.11,-3.0497,-2.8676,-2.718,-2.7066,-2.6962,-2.6851,-2.6732,-2.6657,-2.6822,-2.7478,-2.7502,-2.75,-2.7562,-2.7709,-2.7419,-2.6451,-2.6028,-2.5681,-2.5399,-2.4596,-2.4008,-2.3727,-2.3379,-2.2804,-2.2017,-2.1957,-2.1631,0.0,0.0,0.0,0.0,0.0,0.0,0.0,0.0,0.0,0.0,0.0,0.0,0.0,0.0,0.0,0.0,0.0,0.0,0.0,0.0,0.0,0.0,0.0,0.0,0.0,-2.798,-2.8995,-2.9694,-3.0741,-3.1777,-3.2693,-3.3427,-3.4082,-3.4596,-3.4633,-3.5,-3.5807,-3.583,-3.6229,-3.7074,-3.711,-3.711,-3.711,-3.7643,-3.7915,-3.7915,-3.845,-3.8707,-3.8707,-3.8865,-3.8975,-3.8952,-3.8637,-3.8502,-3.8459,-3.8012,-3.7205,-3.6207,-3.5874,-3.5345,-3.475,-3.4383,-3.4185,-3.4056,-3.3652,-3.3438,-3.3321,-3.3321,-3.3321,-3.3265,-3.2969,-3.2969,-3.3053,-3.2924,-3.2776,-3.2764,-3.3152,-3.3023,-3.2867,-3.3053,-3.3119,-3.3015,-3.2619,-3.26,-3.2534,-3.2087,-3.0302,-2.8729,-2.8315,-2.8194,-2.8012,-2.7608,-2.7474,-2.765,-2.832,-2.8425,-2.8466,-2.8537,-2.8743,-2.8491,-2.7509,-2.6955,-2.6566,-2.6357,-2.5435,-2.48,-2.4556,-2.4148,-2.3586,-2.2847,-2.2371,-2.2125,-2.2103,0.0,0.0,0.0,0.0,0.0,0.0,0.0,0.0,0.0,0.0,0.0,0.0,0.0,0.0,0.0,0.0,0.0,0.0,0.0,0.0,0.0,0.0,0.0,-2.9497,-3.0207,-3.1328,-3.2985,-3.3605,-3.4328,-3.5448,-3.6024,-3.634,-3.6376,-3.6376,-3.6721,-3.7492,-3.7547,-3.7896,-3.8689,-3.8707,-3.8707,-3.8707,-3.8707,-3.8707,-3.8707,-3.8707,-3.8707,-3.8707,-3.8723,-3.8704,-3.8704,-3.8719,-3.8719,-3.875,-3.9013,-3.8961,-3.863,-3.765,-3.7069,-3.6777,-3.6771,-3.657,-3.6328,-3.6328,-3.6328,-3.6328,-3.6328,-3.6328,-3.6181,-3.5321,-3.5069,-3.5069,-3.5069,-3.4513,-3.4165,-3.5275,-3.4919,-3.4435,-3.502,-3.5145,-3.4826,-3.3724,-3.3654,-3.3435,-3.2147,-3.2054,-3.1911,-3.1064,-3.0748,-3.035,-2.9578,-2.9252,0.0,-2.9042,-2.9444,-2.9635,-2.9404,-2.9988,-2.9883,-2.8647,-2.8501,-2.8248,-2.7662,-2.6454,-2.5996,-2.6575,-2.5476,-2.4433,-2.356,-2.2458,-2.2036,-2.2324,0.0,0.0,0.0,0.0,0.0,0.0,0.0,0.0,0.0,0.0,0.0,0.0,0.0,0.0,0.0,0.0,0.0,0.0,0.0,0.0,0.0,-3.0974,-3.2108,-3.1506,-3.2499,-3.3657,-3.4648,-3.5436,-3.6181,-3.6888,-3.7073,-3.7419,-3.7991,-3.8046,-3.8138,-3.8358,-3.8377,-3.8469,-3.8689,-3.8707,-3.8707,-3.8707,-3.8707,-3.8707,-3.8707,-3.8707,-3.8707,-3.8707,-3.8894,-3.8985,-3.8999,-3.9249,-3.9352,-3.9364,-3.9432,-3.942,-3.9339,-3.9051,-3.8744,-3.8393,-3.8056,-3.7521,-3.6956,-3.6956,-3.6956,-3.6956,-3.6956,-3.6956,-3.6906,-3.6674,-3.6599,-3.6599,-3.6599,-3.643,-3.634,-3.6644,-3.6553,-3.6427,-3.6592,-3.6139,-3.5598,-3.5282,-3.4802,-3.4338,-3.3972,-3.3954,-3.3463,-3.1832,-3.1336,-3.1095,-3.0874,-3.0802,-3.0522,-2.9941,-3.0153,-3.0035,-2.92,-2.957,-2.9745,-2.9401,-2.8852,-2.8483,-2.847,-2.7456,-2.6722,-2.6395,-2.6054,-2.5476,-2.46,-2.4172,-2.3667,0.0,0.0,0.0,0.0,0.0,0.0,0.0,0.0,0.0,0.0,0.0,0.0,0.0,0.0,0.0,0.0,0.0,0.0,0.0,0.0,0.0,0.0,-3.322,-3.4574,-3.4908,-3.5256,-3.5765,-3.655,-3.6976,-3.745,-3.8103,-3.8059,-3.8193,-3.867,-3.8707,-3.8747,-3.8855,-3.8762,-3.8822,-3.9078,-3.8956,-3.8869,-3.8869,-3.8869,-3.8818,-3.8707,-3.8707,-3.8707,-3.8707,-3.8855,-3.8919,-3.8933,-3.9136,-3.9216,-3.9229,-3.9346,-3.932,-3.9255,0.0,0.0,0.0,0.0,-3.8603,-3.821,-3.821,-3.821,-3.821,-3.821,-3.821,-3.821,-3.821,-3.821,-3.821,-3.821,-3.7964,-3.77,-3.77,-3.7446,-3.7224,-3.7345,-3.6985,-3.6615,-3.6615,-3.596,-3.5343,-3.5215,-3.4931,0.0,-3.3216,-3.2579,-3.208,-3.1644,-3.1577,-3.1399,-3.0919,-3.11,-3.0927,-3.0074,-3.032,-3.0381,-3.0011,-2.9456,0.0,0.0,0.0,-2.7487,-2.6754,-2.646,0.0,0.0,0.0,-2.4544,-2.4007,-2.3588,0.0,0.0,-2.0759,-2.0344,0.0,0.0,0.0,0.0,0.0,0.0,0.0,0.0,0.0,0.0,0.0,0.0,0.0,0.0,0.0,0.0,-3.5325,-3.6838,-3.8566,-3.8019,-3.7689,-3.8407,-3.8246,-3.835,-3.9037,-3.8865,-3.8762,-3.8807,-3.8807,-3.8898,-3.9152,-3.8923,0.0,0.0,0.0,-3.9165,-3.9165,-3.9165,-3.904,-3.8807,-3.8762,-3.875,-3.8732,-3.8704,-3.8723,-3.8732,-3.8704,-3.8719,-3.8762,-3.8975,-3.8923,-3.8765,-3.9364,-3.9622,-3.9656,-3.969,-3.9701,-3.9701,-3.9701,0.0,0.0,-3.9701,-3.9701,-3.9701,-3.9701,-3.9701,-3.9701,-3.9701,-3.9183,-3.8645,-3.8645,-3.8117,-3.763,-3.7869,-3.7865,-3.7789,-3.7789,-3.7111,-3.6412,-3.6178,-3.5474,-3.4935,-3.4935,-3.4168,-3.3211,-3.227,-3.2126,-3.2078,-3.1941,-3.2201,-3.2125,-3.1423,-3.1536,0.0,-3.0572,-3.0194,-3.0103,-3.0373,-2.9256,-2.826,-2.7528,-2.6834,-2.6485,-2.6485,-2.5594,-2.5201,-2.5297,-2.4397,-2.3879,-2.3713,-2.2416,-2.1801,0.0,0.0,0.0,0.0,0.0,0.0,0.0,0.0,0.0,0.0,0.0,0.0,0.0,0.0,0.0,-3.5694,-3.7185,-3.8385,-3.8823,-3.9252,-3.9391,-3.902,-3.9152,-3.922,-3.912,-3.9044,-3.9131,-3.9414,-3.9439,-3.9445,-3.9505,-3.9445,-3.9469,-3.9599,-3.9541,-3.9498,-3.9498,-3.9498,-3.9481,-3.9408,-3.9157,0.0,-3.9027,-3.8803,-3.8833,-3.8994,-3.8788,-3.8815,-3.9013,-3.8844,-3.875,-3.8765,-3.9364,-3.9765,-4.0032,-4.0239,-4.0328,-4.0328,-4.0328,-4.0328,-4.0328,-4.0328,-4.0328,-4.0328,-4.0328,-4.0328,0.0,-4.0328,-4.0221,-4.0087,-4.0087,-3.998,-3.9874,-3.9933,-3.9442,-3.8981,-3.8981,-3.8282,-3.7652,-3.7594,-3.6895,-3.6312,-3.6312,-3.5284,-3.4382,-3.4162,-3.4133,-3.3815,-3.2903,-3.3195,-3.3039,-3.1822,-3.1512,-3.1312,-3.114,-3.0428,-3.0103,-3.0373,-2.9511,-2.8905,-2.8757,-2.7994,-2.7583,-2.7583,-2.7407,-2.7234,-2.7096,-2.6899,-2.6702,-2.6453,-2.3397,-2.1893,0.0,0.0,0.0,0.0,0.0,0.0,0.0,0.0,0.0,0.0,0.0,-3.3509,-3.4476,0.0,-3.7141,-3.771,-3.8734,-3.9518,-3.968,-4.0053,-4.0072,-3.9426,-3.9645,-3.9645,-3.9147,-3.9251,-3.9414,-3.9587,-3.9599,-3.9668,-3.9829,-3.9679,-3.9746,-4.0043,-3.9913,-3.984,-3.984,-3.984,-3.9765,-3.9599,-3.9426,-3.9339,-3.9358,-3.9216,-3.921,-3.9339,-3.9216,-3.9136,-3.9085,-3.8818,-3.8773,-3.8952,-3.942,-3.969,-3.9891,-4.0195,-4.0381,-4.0496,-4.0496,-4.0496,-4.0496,-4.0496,-4.0496,-4.0496,-4.0496,-4.0496,-4.0496,-4.0496,-4.0496,-4.0496,-4.0496,-4.0496,-4.0496,-4.0496,-4.0189,-3.99,-3.99,-3.9246,-3.8642,-3.8642,-3.795,-3.7353,-3.7353,-3.6438,-3.5528,-3.4983,-3.4908,-3.469,-3.411,-3.4271,-3.408,-3.3111,-3.2844,-3.2579,-3.2131,-3.132,-3.0721,-3.0417,-2.9981,-2.9756,-2.9756,-2.8948,-2.8492,-2.8492,-2.8107,-2.7844,-2.775,-2.775,-2.7657,-2.7412,-2.5627,-2.464,0.0,0.0,0.0,0.0,0.0,0.0,0.0,-3.0906,-3.2164,-3.3188,-3.4599,-3.5978,-3.7017,-3.8129,-3.9045,-3.9465,-3.99,-4.025,-4.0473,-4.0496,-4.0311,-3.9757,-3.9932,-3.9891,-3.9339,-3.9541,-3.9712,-3.9778,-3.9778,-3.9893,-4.0167,-3.9924,-4.0004,-4.0489,-4.0295,-4.0177,-4.0177,-4.0177,-4.0033,-3.9778,-3.9712,-3.9709,-3.969,-3.9634,-3.9634,-3.9709,-3.9709,-3.9517,-3.9178,-3.8952,-3.899,-3.9212,-3.9486,-3.9634,-3.9742,-4.0062,-4.0302,-4.0496,-4.0496,-4.0496,-4.0496,-4.0496,-4.0496,-4.0496,-4.0496,-4.0496,-4.0496,-4.0496,-4.0496,-4.0496,-4.0496,-4.0496,-4.0496,-4.0496,-4.0496,-4.0496,-4.0496,-3.9996,-3.9534,-3.9534,-3.8834,-3.8257,-3.8257,-3.7526,-3.6603,-3.5578,-3.5278,-3.5166,-3.5105,-3.5157,-3.4971,-3.4426,-3.4275,-3.3859,-3.2968,-3.2314,-3.1564,-3.0712,-3.0654,-3.0577,-3.0404,-2.9737,-2.9357,-2.9357,-2.8717,-2.839,-2.839,-2.839,-2.8295,-2.8141,-2.8141,-2.7739,-2.7895,-2.8986,-3.0115,-3.0115,-3.1282,-3.2641,0.0,-3.4312,-3.5228,-3.6075,-3.7017,-3.7947,-3.8834,-3.9146,-3.9485,-4.0239,-4.0415,-4.0465,-4.0489,-4.0496,-4.0389,-4.0072,-4.0081,-4.0071,-4.0002,-4.0022,-4.0139,-4.037,-4.0406,-4.0414,-4.0457,-4.0422,-4.043,-4.0496,-4.0473,-4.0457,-4.0457,-4.0457,-4.0449,-4.0406,-4.0167,-4.0032,-4.0032,-3.9742,-3.9765,-4.0032,-4.0032,-3.984,-3.9552,-3.9505,-3.9517,-3.9552,-3.9587,-3.9786,-4.0091,-4.0356,-4.0473,-4.0496,-4.0496,-4.0496,-4.0496,-4.0496,-4.0496,-4.0496,-4.0496,-4.0496,-4.0496,-4.0496,-4.0496,-4.0496,-4.0496,-4.0496,-4.0496,-4.0496,-4.0496,-4.0496,-4.0496,-4.0439,-4.0362,-4.0362,-3.9708,-3.915,-3.915,-3.843,-3.7558,-3.6671,-3.5914,-3.5369,-3.513,-3.5304,-3.5338,-3.5021,-3.4525,-3.3859,-3.2968,-3.2814,-3.2429,-3.1621,-3.1545,-3.1212,-3.0423,-3.0308,-3.025,-3.025,-3.0173,-3.0115,-3.0115,-3.0115,-3.011,-3.0092,-3.0092,-2.9071,-2.9967,-3.0968,-3.1987,-3.2487,-3.3526,-3.4635,-3.5468,-3.6334,-3.7199,-3.8046,-3.8507,-3.9008,-3.9842,-3.9996,-4.0112,-4.0458,-4.0496,-4.0496,-4.0496,-4.0496,-4.0465,-4.0347,-4.0339,-4.0258,-4.011,-4.0232,-4.0381,-4.0489,-4.0496,-4.0496,-4.0496,-4.0496,-4.0496,-4.0496,-4.0496,-4.0496,-4.0496,-4.0496,-4.0496,-4.0496,-4.0381,-4.0339,-4.033,-4.0194,-4.0203,-4.033,-4.0167,-4.0022,-3.988,-3.9679,-3.9701,-3.9891,-3.9891,-4.0062,-4.033,-4.0276,-4.0364,-4.0496,-4.0496,-4.0496,-4.0496,-4.0496,-4.0496,-4.0496,-4.0496,-4.0496,-4.0496,-4.0496,-4.0496,-4.0496,-4.0496,-4.0496,-4.0496,-4.0496,-4.0496,-4.0496,-4.0496,-4.0496,-4.0496,-4.0496,-4.0227,-3.9996,-3.9996,-3.9304,-3.8623,-3.8277,-3.7507,-3.6728,-3.6102,-3.6123,-3.5972,-3.5392,-3.5112,-3.4603,-3.3718,-3.3667,-3.3295,-3.2449,-3.2391,-3.2237,-3.1872,-3.1404,-3.1154,-3.1154,-3.0654,-3.0404,-3.0404,-3.0404,-3.0404,-3.0404,-3.0404,-2.994,-3.1795,-3.2814,-3.3776,-3.4391,-3.5372,-3.6404,-3.7238,-3.7911,-3.8604,-3.9457,-3.9631,-3.9804,-4.04,-4.0496,-4.0496,-4.0496,-4.0496,-4.0496,-4.0496,-4.0496,-4.0496,-4.0496,-4.0496,-4.0414,-4.0223,-4.0381,-4.0496,-4.0496,-4.0496,-4.0593,-4.0854,-4.0854,-4.0977,-4.1208,-4.1227,-4.1227,-4.1227,-4.0977,-4.0854,-4.0854,-4.0612,-4.0496,-4.0496,-4.0496,-4.0496,-4.0489,-4.0285,-4.0204,-4.0195,-3.9944,-3.9984,-4.0204,-4.0204,-4.033,-4.0481,-4.0267,-4.0339,-4.0496,-4.0496,-4.0496,-4.0496,-4.0496,-4.0496,-4.0496,-4.0496,-4.0496,-4.0496,-4.0496,-4.0496,-4.0496,-4.0496,-4.0496,-4.0496,-4.0496,-4.0496,-4.0496,-4.0496,-4.0496,-4.0496,-4.0496,-4.0496,-4.0496,-4.0496,-4.0015,-3.9631,-3.9631,-3.9084,-3.8296,-3.7199,-3.6846,-3.6385,-3.5596,-3.55,-3.5231,-3.4603,-3.4564,-3.418,-3.3314,-3.3256,-3.3141,-3.291,-3.2333,-3.2025,-3.2025,-3.1404,-3.1096,-3.1096,-3.1096,-3.1096,-3.1077,-3.0865,-3.075,-3.2641,-3.4122,-3.5423,-3.5442,-3.6699,-3.8142,-3.9015,-3.9246,-3.9496,-4.0304,-4.0458,-4.0477,-4.0496,-4.0496,-4.0496,-4.0496,-4.0496,-4.0496,-4.0496,-4.0496,-4.0496,-4.0496,-4.0496,-4.0496,-4.0489,-4.0489,-4.0496,-4.0496,-4.0496,-4.0873,-4.1712,-4.175,-4.2162,-4.2989,-4.3028,-4.3028,-4.3028,-4.2181,-4.175,-4.175,-4.0893,-4.0496,-4.0496,-4.0496,-4.0496,-4.0496,-4.0489,-4.0489,-4.0489,-4.0481,-4.0481,-4.0489,-4.0489,-4.0489,-4.0496,-4.0489,-4.0489,-4.0496,-4.0496,-4.0496,-4.0496,-4.0496,-4.0496,-4.0496,-4.0496,-4.0496,-4.0496,-4.0496,-4.0496,-4.0496,-4.0496,-4.0496,-4.0496,-4.0496,-4.0496,-4.0496,-4.0496,-4.0496,-4.0496,-4.0496,-4.0496,-4.0496,-4.0496,-4.0477,-4.0458,-4.0458,-4.0439,-3.9823,-3.8161,-3.7219,-3.6385,-3.5596,-3.55,-3.5481,-3.5462,-3.5462,-3.5084,-3.4225,-3.4167,-3.3782,-3.2929,-3.2872,-3.2852,-3.2852,-3.2833,-3.2814,-3.2814,-3.2814,-3.2814,-3.2814,-3.2025,-3.166,-3.4391,-3.5442,-3.6577,-3.7738,-3.845,-3.9092,-3.9919,-4.0092,-4.0169,-4.0439,-4.0496,-4.0496,-4.0496,-4.0496,-4.0496,-4.0496,-4.0496,-4.0496,-4.0496,-4.0496,-4.0496,-4.0496,-4.0496,-4.0496,-4.0496,-4.0496,-4.0496,-4.0496,-4.1046,-4.1489,-4.1769,-4.2354,-4.2797,-4.3085,-4.3104,-4.3104,-4.3104,-4.2816,-4.2662,-4.2643,-4.1777,-4.1066,-4.0496,-4.0496,-4.0496,-4.0496,-4.0496,-4.0496,-4.0535,-4.1123,-4.1354,-4.1354,-4.1354,-4.1354,-4.1296,-4.0708,-4.0496,-4.0496,-4.0496,-4.0496,-4.0496,-4.0496,-4.0496,-4.0496,-4.0496,-4.0496,-4.0496,-4.0496,-4.0496,-4.0496,-4.0496,-4.0496,-4.0496,-4.0496,-4.0496,-4.0496,-4.0496,-4.0496,-4.0496,-4.0496,-4.0496,-4.0496,-4.0496,-4.0496,-4.0496,-4.0496,-4.0054,-3.9496,-3.8938,-3.8104,-3.7238,-3.6385,-3.6308,-3.6077,-3.5558,-3.55,-3.5365,-3.5084,-3.5064,-3.4923,-3.4635,-3.4064,-3.3763,-3.3763,-3.3179,-3.2891,-3.2891,-3.2891,-3.2891,-3.2891,-3.2622,-3.2506,-3.5692,-3.675,-3.7892,-3.9015,-3.9515,-3.9861,-4.0381,-4.0496,-4.0496,-4.0496,-4.0496,-4.0496,-4.0496,-4.0496,-4.0496,-4.0496,-4.0496,-4.0496,-4.0496,-4.0496,-4.0496,-4.0496,-4.0496,-4.0496,-4.0496,-4.0785,-4.095,-4.095,-4.1489,-4.2058,-4.2662,-4.322,-4.3662,-4.397,-4.3989,-4.3989,-4.3989,-4.3682,-4.3374,-4.3085,-4.2527,-4.197,-4.1439,-4.1439,-4.1439,-4.1439,-4.1439,-4.1439,-4.147,-4.2027,-4.2258,-4.2258,-4.2258,-4.2258,-4.22,-4.1643,-4.1219,-4.0912,-4.0612,-4.0496,-4.0496,-4.0496,-4.0496,-4.0496,-4.0496,-4.0496,-4.0496,-4.0496,-4.0496,-4.0496,-4.0496,-4.0496,-4.0496,-4.0496,-4.0496,-4.0496,-4.0496,-4.0496,-4.0496,-4.0496,-4.0496,-4.0496,-4.0496,-4.0496,-4.0496,-4.0496,-4.0054,-3.9631,-3.9342,-3.8815,-3.8123,-3.7257,-3.7161,-3.6969,-3.6442,-3.6115,-3.5923,-3.5923,-3.5654,-3.55,-3.55,-3.4968,-3.4661,-3.4661,-3.4103,-3.3833,-3.3833,-3.3833,-3.3833,-3.3814,-3.3506,-3.3353,-3.6596,-3.8046,-3.9304,-3.9361,-3.9938,-4.0496,-4.0496,-4.0477,-4.0439,-4.0439,-4.04,-4.0362,-4.0362,-4.0419,-4.0439,-4.0439,-4.0477,-4.0496,-4.0496,-4.0496,-4.0496,-4.0496,-4.0535,-4.0573,-4.0573,-4.1354,-4.1885,-4.1923,-4.1923,-4.2624,-4.422,-4.4335,-4.4739,-4.5575,-4.5594,-4.5594,-4.5594,-4.4778,-4.3951,-4.3162,-4.3162,-4.3143,-4.3104,-4.3104,-4.3104,-4.3104,-4.3104,-4.3104,-4.3104,-4.3143,-4.3162,-4.3162,-4.3162,-4.3162,-4.3162,-4.3124,-4.2585,-4.1758,-4.092,-4.0573,-4.0496,-4.0496,-4.0496,-4.0496,-4.0496,-4.0496,-4.0496,-4.0496,-4.0496,-4.0496,-4.0496,-4.0496,-4.0496,-4.0496,-4.0496,-4.0496,-4.0496,-4.0496,-4.0496,-4.0496,-4.0496,-4.0496,-4.0496,-4.0496,-4.0496,-4.0496,-4.0496,-4.0227,-3.9457,-3.9361,-3.9034,-3.8161,-3.8065,-3.8046,-3.8007,-3.7238,-3.6769,-3.6769,-3.6,-3.5558,-3.5558,-3.5519,-3.55,-3.55,-3.55,-3.55,-3.55,-3.55,-3.55,-3.5481,-3.4641,-3.4263,-3.8238,-3.895,-3.9438,-4.0035,-4.0342,-4.0496,-4.0496,-4.0035,-3.9611,-3.9611,-3.9084,-3.8642,-3.8642,-3.9169,-3.9611,-3.9611,-4.0112,-4.0496,-4.0496,-4.0496,-4.0496,-4.0496,-4.1066,-4.147,-4.147,-4.2258,-4.3028,-4.3624,-4.3662,-4.3855,-4.4278,-4.4921,-4.5364,-4.5594,-4.5594,-4.5594,-4.5594,-4.5383,-4.4836,-4.3989,-4.3989,-4.3682,-4.3104,-4.3104,-4.3104,-4.3104,-4.3104,-4.3104,-4.3143,-4.3739,-4.3989,-4.3989,-4.3989,-4.3989,-4.3912,-4.3316,-4.297,-4.2739,-4.2508,-4.1593,-4.0496,-4.0496,-4.0496,-4.0496,-4.0496,-4.0496,-4.0496,-4.0496,-4.0496,-4.0496,-4.0496,-4.0496,-4.0496,-4.0496,-4.0496,-4.0496,-4.0496,-4.0496,-4.0496,-4.0496,-4.0496,-4.0496,-4.0496,-4.0496,-4.0496,-4.0496,-4.0496,-4.0439,-4.0227,-4.0189,-3.9881,-3.9073,-3.8977,-3.87,-3.8065,-3.7796,-3.768,-3.768,-3.6865,-3.6385,-3.6385,-3.5827,-3.55,-3.55,-3.55,-3.55,-3.55,-3.55,-3.55,-3.5481,-3.5269,-3.5173,-3.8931,-3.9554,-3.9938,-4.04,-4.0496,-4.0419,-4.0054,-3.9631,-3.9188,-3.8815,-3.8334,-3.8007,-3.8007,-3.8392,-3.8854,-3.9246,-3.9688,-4.0092,-4.0458,-4.0496,-4.0496,-4.0496,-4.1277,-4.1788,-4.1788,-4.2912,-4.3816,-4.4259,-4.4297,-4.447,-4.4855,-4.5325,-4.5594,-4.5594,-4.5594,-4.5594,-4.5594,-4.5594,-4.5344,-4.4874,-4.4874,-4.4624,-4.4201,-4.4201,-4.4201,-4.4201,-4.4201,-4.4201,-4.422,-4.4682,-4.4874,-4.4874,-4.4874,-4.4874,-4.4816,-4.4355,-4.3951,-4.3624,-4.3624,-4.2758,-4.1585,-4.1181,-4.0804,-4.0496,-4.0496,-4.0496,-4.0496,-4.0496,-4.0496,-4.0496,-4.0496,-4.0496,-4.0496,-4.0496,-4.0496,-4.0496,-4.0496,-4.0496,-4.0496,-4.0496,-4.0496,-4.0496,-4.0496,-4.0496,-4.0496,-4.0496,-4.0496,-4.0496,-4.0496,-4.0496,-4.0323,-3.9881,-3.9823,-3.9631,-3.9142,-3.8777,-3.8565,-3.8565,-3.7757,-3.7276,-3.7276,-3.6834,-3.6423,-3.6038,-3.6038,-3.5846,-3.55,-3.55,-3.55,-3.55,-3.55,-3.55,-3.9188,-3.9977,-4.0496,-4.0496,-4.0419,-4.0169,-3.9457,-3.913,-3.87,-3.7853,-3.7584,-3.7507,-3.7507,-3.7584,-3.7988,-3.8977,-3.9227,-3.9573,-4.04,-4.0496,-4.0496,-4.0496,-4.1373,-4.1962,-4.1962,-4.3489,-4.447,-4.447,-4.447,-4.4797,-4.5556,-4.5594,-4.5594,-4.5594,-4.5594,-4.5594,-4.5594,-4.5594,-4.5594,-4.5594,-4.5594,-4.5594,-4.5594,-4.5594,-4.5594,-4.5594,-4.5594,-4.5594,-4.5594,-4.5594,-4.5594,-4.5594,-4.5594,-4.5594,-4.5594,-4.5594,-4.5133,-4.447,-4.447,-4.3932,-4.3104,-4.2124,-4.1296,-4.065,-4.0535,-4.0496,-4.0496,-4.0496,-4.0496,-4.0496,-4.0496,-4.0496,-4.0496,-4.0496,-4.0496,-4.0496,-4.0496,-4.0496,-4.0496,-4.0496,-4.0496,-4.0496,-4.0496,-4.0496,-4.0496,-4.0496,-4.0496,-4.0496,-4.0496,-4.0496,-4.0496,-4.0496,-4.0496,-4.0496,-4.0496,-3.9861,-3.9457,-3.9457,-3.8642,-3.8161,-3.8161,-3.8065,-3.7642,-3.6885,-3.6865,-3.6519,-3.5827,-3.5712,-3.5654,-3.5654,-3.5558,-3.55,-3.9881,-4.04,-4.0496,-4.0496,-3.9996,-3.9477,-3.9323,-3.818,-3.6923,-3.6096,-3.5353,-3.486,-3.486,-3.5449,-3.6442,-3.7988,-3.8834,-3.9573,-4.04,-4.0496,-4.0496,-4.0496,-4.1912,-4.2874,-4.2874,-4.4393,-4.5364,-4.5364,-4.5364,-4.5441,-4.5594,-4.5594,-4.5594,-4.5594,-4.5594,-4.5594,-4.5594,-4.5594,-4.5594,-4.5594,-4.5594,-4.5594,-4.5594,-4.5594,-4.5594,-4.5594,-4.5594,-4.5594,-4.5594,-4.5594,-4.5594,-4.5594,-4.5594,-4.5594,-4.5594,-4.5594,-4.5498,-4.5364,-4.5364,-4.4797,-4.3835,-4.2297,-4.17,-4.145,-4.0727,-4.0496,-4.0496,-4.0496,-4.0496,-4.0496,-4.0496,-4.0496,-4.0496,-4.0496,-4.0496,-4.0496,-4.0496,-4.0496,-4.0496,-4.0496,-4.0496,-4.0496,-4.0496,-4.0496,-4.0496,-4.0496,-4.0496,-4.0496,-4.0496,-4.0496,-4.0496,-4.0496,-4.0496,-4.0496,-4.0496,-4.0362,-4.0285,-4.0285,-3.9534,-3.9073,-3.9073,-3.8373,-3.793,-3.7777,-3.7777,-3.7719,-3.7565,-3.6846,-3.6481,-3.6481,-3.5808,-3.55,-4.0035,-4.0496,-4.04,-3.9977,-3.9592,-3.9073,-3.8142,0.0,-3.5846,-3.5007,-3.4122,-3.3526,-3.3526,-3.4237,-3.5238,-3.6488,-3.7777,-3.8911,-3.9765,-4.0246,-4.0496,-4.0496,-4.1643,-4.2604,-4.3066,-4.4201,-4.5114,-4.5575,-4.5594,-4.5594,-4.5594,-4.5594,-4.5594,-4.5594,-4.5594,-4.5594,-4.5594,-4.5594,-4.5594,-4.5594,-4.5594,-4.5594,-4.5594,-4.5594,-4.5594,-4.5594,-4.5594,-4.5594,-4.5594,-4.5594,-4.5594,-4.5594,-4.5594,-4.5594,-4.5594,-4.5594,-4.5594,-4.5594,-4.5594,-4.5325,-4.4759,-4.3508,-4.2816,-4.2316,-4.1431,-4.1181,-4.1085,-4.0631,-4.0496,-4.0496,-4.0496,-4.0496,-4.0496,-4.0496,-4.0496,-4.0496,-4.0496,-4.0496,-4.0496,-4.0496,-4.0496,-4.0496,-4.0496,-4.0496,-4.0496,-4.0496,-4.0496,-4.0496,-4.0496,-4.0496,-4.0496,-4.0496,-4.0496,-4.0496,-4.0496,-4.0496,-4.0496,-4.0496,-4.015,-3.9919,-3.9919,-3.9515,-3.9104,-3.8681,-3.8681,-3.845,-3.8007,-3.7584,-3.7373,-3.7353,-3.6519,-3.6115,-3.9823,-4.0246,-4.0092,-3.9457,-3.9015,-3.8334,-3.6788,-3.5808,-3.493,-3.3872,-3.3122,-3.2641,-3.2641,-3.3333,-3.4276,-3.5327,-3.6911,-3.8296,-3.9188,-3.9996,-4.0496,-4.0496,-4.1277,-4.2143,-4.3028,-4.3835,-4.4662,-4.5537,-4.5594,-4.5594,-4.5594,-4.5594,-4.5594,-4.5594,-4.5594,-4.5594,-4.5594,-4.5594,-4.5594,-4.5594,-4.5594,-4.5594,-4.5594,-4.5594,-4.5594,-4.5594,-4.5594,-4.5594,-4.5594,-4.5594,-4.5594,-4.5594,-4.5594,-4.5594,-4.5594,-4.5594,-4.5594,-4.5594,-4.5594,-4.5594,-4.5498,-4.4797,-4.4028,-4.3201,-4.2335,-4.2085,-4.1912,-4.1008,-4.0785,-4.0746,-4.0554,-4.0496,-4.0496,-4.0496,-4.0496,-4.0496,-4.0496,-4.0496,-4.0496,-4.0496,-4.0496,-4.0496,-4.0496,-4.0496,-4.0496,-4.0496,-4.0496,-4.0496,-4.0496,-4.0496,-4.0496,-4.0496,-4.0496,-4.0496,-4.0496,-4.0496,-4.0496,-4.0496,-4.0496,-4.0496,-4.0496,-4.0496,-4.0208,-3.9573,-3.9554,-3.9227,-3.8546,-3.8354,-3.8277,-3.8257,-3.7392,-3.6981,-3.915,-3.9419,-3.94,-3.9323,-3.8104,-3.6712,-3.5808,0.0,-3.3853,-3.2256,-3.1872,-3.1814,-3.1814,-3.2468,-3.3564,-3.5231,-3.6911,-3.8296,-3.9188,-3.9996,-4.0496,-4.0496,-4.1277,-4.2143,-4.3028,-4.3835,-4.4662,-4.5537,-4.5594,-4.5594,-4.5594,-4.5594,-4.5594,-4.5594,-4.5594,-4.5594,-4.5594,-4.5594,-4.5594,-4.5594,-4.5594,-4.5594,-4.5594,-4.5594,-4.5594,-4.5594,-4.5594,-4.5594,-4.5594,-4.5594,-4.5594,-4.5594,-4.5594,-4.5594,-4.5594,-4.5594,-4.5594,-4.5594,-4.5594,-4.5594,-4.5594,-4.5518,-4.4902,-4.4047,-4.3239,-4.2989,-4.2797,-4.1931,-4.1681,-4.1508,-4.0708,-4.0496,-4.0496,-4.0496,-4.0496,-4.0496,-4.0496,-4.0496,-4.0496,-4.0496,-4.0496,-4.0496,-4.0496,-4.0496,-4.0496,-4.0496,-4.0496,-4.0496,-4.0496,-4.0496,-4.0496,-4.0496,-4.0496,-4.0496,-4.0496,-4.0496,-4.0496,-4.0496,-4.0496,-4.0496,-4.0496,-4.0496,-4.0477,-4.04,-4.04,-4.0342,-4.0265,-3.9534,-3.9188,-3.9169,-3.8296,-3.7873,-3.8142,-3.8527,-3.8392,-3.7873,-3.6853,-3.575,-3.4911,0.0,-3.2506,-3.1833,-3.1269,-3.0923,-3.0923,-3.1621,-3.2564,-3.3737,0.0,0.0,-3.8334,-3.9246,-3.9958,-4.0439,-4.0804,-4.1566,-4.2951,-4.3393,-4.4143,-4.5498,-4.5594,-4.5594,-4.5594,-4.5594,-4.5594,-4.5594,-4.5594,-4.5594,-4.5594,-4.5594,-4.5594,-4.5594,-4.5594,-4.5594,-4.5594,-4.5594,-4.5594,-4.5594,-4.5594,-4.5594,-4.5594,-4.5594,-4.5594,-4.5594,-4.5594,-4.5594,-4.5594,-4.5594,-4.5594,-4.5594,-4.5594,-4.5594,-4.5594,-4.5594,-4.5364,-4.4921,-4.4085,-4.3816,-4.3643,-4.2816,-4.2585,-4.2508,-4.2162,-4.2066,-4.1931,-4.1412,-4.1277,-4.1143,-4.0612,-4.0496,-4.0496,-4.0496,-4.0496,-4.0496,-4.0496,-4.0496,-4.0496,-4.0496,-4.0496,-4.0496,-4.0496,-4.0496,-4.0496,-4.0496,-4.0496,-4.0496,-4.0496,-4.0496,-4.0496,-4.0496,-4.0496,-4.0496,-4.0496,-4.0496,-4.0496,-4.0496,-4.0496,-4.0496,-4.0496,-4.0189,-4.0015,-3.9996,-3.9169,-3.8777,-3.6873,-3.7065,-3.6796,-3.6423,-3.5519,-3.45,-3.3641,0.0,-3.1641,-3.1371,-3.0827,-3.0404,-3.0404,-3.1115,-3.1968,0.0,0.0,-3.6096,-3.7757,-3.8738,-3.9611,-4.04,-4.0496,-4.1189,-4.2931,-4.3547,-4.4335,-4.5518,-4.5594,-4.5594,-4.5594,-4.5594,-4.5594,-4.5594,-4.5594,-4.5594,-4.5594,-4.5594,-4.5594,-4.5594,-4.5594,-4.5594,-4.5594,-4.5594,-4.5594,-4.5594,-4.5594,-4.5594,-4.5594,-4.5594,-4.5594,-4.5594,-4.5594,-4.5594,-4.5594,-4.5594,-4.5594,-4.5594,-4.5594,-4.5594,-4.5594,-4.5594,-4.5594,-4.5498,-4.4874,-4.4682,-4.4509,-4.3682,-4.3278,-4.3104,-4.3104,-4.3104,-4.2951,-4.2335,-4.1981,-4.1643,-4.1008,-4.0689,-4.0496,-4.0496,-4.0523,-4.0559,-4.0559,-4.0589,-4.0584,-4.0584,-4.0575,-4.0559,-4.0559,-4.0515,-4.0496,-4.0496,-4.0496,-4.0496,-4.0496,-4.0496,-4.0496,-4.0496,-4.0496,-4.0496,-4.0496,-4.0496,-4.0496,-4.0496,-4.0496,-4.0496,-4.0496,-4.0496,-4.0496,-4.0496,-3.9919,-3.965,-3.5288,-3.4891,-3.443,-3.5288,-3.4212,-3.2718,-3.191,-3.1718,-3.1468,-3.0596,-3.0404,-3.0404,-3.0404,-3.1115,-3.1968,-3.2776,-3.4365,0.0,-3.7757,-3.8738,-3.9611,-4.04,-4.0496,-4.1189,-4.2931,-4.4605,-4.5575,-4.5594,-4.5594,-4.5594,-4.5594,-4.5594,-4.5594,-4.5594,-4.5594,-4.5594,-4.5594,-4.5594,-4.5594,-4.5594,-4.5594,-4.5594,-4.5594,-4.5594,-4.5594,-4.5594,-4.5594,-4.5594,-4.5594,-4.5594,-4.5594,-4.5594,-4.5594,-4.5594,-4.5594,-4.5594,-4.5594,-4.5594,-4.5594,-4.5594,-4.5594,-4.5594,-4.5594,-4.5594,-4.5594,-4.5594,-4.5402,-4.4528,-4.3701,-4.3104,-4.3104,-4.3104,-4.3104,-4.3085,-4.2431,-4.1788,-4.1788,-4.1104,-4.0496,-4.0496,-4.0603,-4.0697,-4.0697,-4.0757,-4.0797,-4.0797,-4.0732,-4.0697,-4.0697,-4.0575,-4.0496,-4.0496,-4.0496,-4.0496,-4.0496,-4.0496,-4.0496,-4.0496,-4.0496,-4.0496,-4.0496,-4.0496,-4.0496,-4.0496,-4.0496,-4.0496,-4.0496,-4.0496,-4.0496,-4.0496,-4.0496,-4.0496,-3.3333,-3.3526,-3.3372,-3.366,-3.2891,-3.2006,-3.1756,-3.1231,-3.0731,-3.0462,-3.0404,-3.0404,-3.0404,-3.0635,-3.1269,-3.2679,-3.3353,0.0,-3.7603,-3.8238,-3.8931,-4.0323,-4.1554,-4.2489,-4.3047,-4.4624,-4.5594,-4.5594,-4.5594,-4.5594,-4.5594,-4.5594,-4.5594,-4.5594,-4.5594,-4.5594,-4.5594,-4.5594,-4.5594,-4.5594,-4.5594,-4.5594,-4.5594,-4.5594,-4.5594,-4.5594,-4.5594,-4.5594,-4.5594,-4.5594,-4.5594,-4.5594,-4.5594,-4.5594,-4.5594,-4.5594,-4.5594,-4.5594,-4.5594,-4.5594,-4.5594,-4.5594,-4.5594,-4.5594,-4.5594,-4.5594,-4.5537,-4.5267,-4.5017,-4.4806,-4.4806,-4.4806,-4.4662,-4.4066,-4.3297,-4.2527,-4.1923,-4.1123,-4.0534,-4.0623,-4.0667,-4.0713,-4.0767,-4.0796,-4.0797,-4.0797,-4.0732,-4.0718,-4.0752,-4.0682,-4.0648,-4.0692,-4.0653,-4.0596,-4.0504,-4.0496,-4.0496,-4.0496,-4.0496,-4.0496,-4.0496,-4.0496,-4.0496,-4.0496,-4.0496,-4.0496,-4.0496,-4.0496,-4.0496,-4.0496,-4.0496,-4.0496,-3.141,-3.1968,-3.2045,-3.2372,-3.1814,0.0,-3.1212,-3.0544,-3.0,-3.0327,-3.0135,-3.0,-3.0346,-3.0404,-3.0942,-3.2622,-3.2891,-3.4083,-3.7526,-3.8007,-3.8623,-4.0304,-4.2047,-4.3104,-4.3104,-4.4624,-4.5594,-4.5594,-4.5594,-4.5594,-4.5594,-4.5594,-4.5594,-4.5594,-4.5594,-4.5594,-4.5594,-4.5594,-4.5594,-4.5594,-4.5594,-4.5594,-4.5594,-4.5594,-4.5594,-4.5594,-4.5594,-4.5594,0.0,-4.5594,-4.5594,-4.5594,-4.5594,-4.5594,-4.5594,-4.5594,-4.5594,-4.5594,-4.5594,-4.5594,-4.5594,-4.5594,-4.5594,-4.5594,-4.5594,-4.5594,-4.5594,-4.5594,-4.5594,-4.5594,-4.5594,-4.5635,-4.5545,-4.4986,-4.4015,-4.3059,-4.2518,-4.1455,-4.0635,-4.0726,-4.0786,-4.0839,-4.0864,-4.0917,-4.0955,-4.0955,-4.0866,-4.0824,-4.0864,-4.0784,-4.0757,-4.0793,-4.0752,-4.071,-4.0616,-4.0584,-4.0581,-4.0581,-4.0581,-4.0552,-4.0496,-4.0496,-4.0496,-4.0496,-4.0496,-4.0496,-4.0496,-4.0496,-4.0496,-4.0496,-4.0496,-4.0496,0.0,-3.0212,-3.05,-3.1314,-3.0942,-3.0404,-3.0404,0.0,0.0,-3.0231,-2.9756,-2.9429,-3.025,-3.0442,-3.1019,-3.2641,-3.3006,-3.4237,-3.7546,-3.8104,-3.8757,-4.0304,-4.197,-4.3028,-4.3085,-4.4547,-4.5537,-4.5594,-4.5594,-4.5594,-4.5594,-4.5537,-4.5518,-4.5518,-4.546,-4.5479,-4.5594,-4.5594,-4.5594,-4.5594,-4.5594,-4.5594,-4.5594,-4.5594,-4.5594,-4.5594,-4.5594,-4.5594,-4.5594,-4.5594,-4.5594,-4.5594,-4.5594,-4.5594,-4.5594,-4.5612,-4.562,-4.562,-4.5618,-4.5618,-4.5618,-4.5618,-4.5618,-4.5618,-4.5618,-4.561,-4.562,-4.562,-4.5629,-4.5618,-4.5618,-4.5711,-4.5816,-4.5816,-4.4568,-4.3408,-4.3408,-4.2027,-4.0801,-4.0809,-4.0917,-4.0996,-4.1,-4.1126,-4.1191,-4.1191,-4.1081,-4.0996,-4.1,-4.0905,-4.0813,-4.0839,-4.0813,-4.0813,-4.0839,-4.0747,-4.0715,-4.0715,-4.0715,-4.0649,-4.0523,-4.0515,-4.0515,-4.0515,-4.0515,-4.0515,-4.0515,-4.0515,-4.0508,-4.0519,-4.0519,-4.0519,-2.7327,0.0,-2.9448,-2.9665,-3.0063,-3.0404,0.0,0.0,0.0,0.0,0.0,0.0,0.0,-3.0942,-3.1718,-3.2737,-3.4026,-3.5615,-3.7719,-3.9104,-4.0054,-4.0458,-4.145,-4.2374,-4.3047,-4.4008,-4.4874,-4.5556,-4.5594,-4.5594,-4.5594,-4.4979,-4.4605,-4.4605,-4.4008,-4.4297,-4.5594,-4.5594,-4.5594,-4.5594,-4.5594,-4.5594,-4.5594,-4.5594,-4.5594,-4.5594,-4.5594,-4.5594,-4.5594,-4.5594,-4.5594,-4.5594,-4.5594,-4.5594,-4.5612,-4.5723,-4.5754,-4.5756,-4.5805,-4.5831,-4.5831,-4.5831,-4.5831,-4.5831,-4.5831,-4.5783,-4.5754,-4.5754,-4.5796,-4.5831,-4.5831,-4.5852,-4.5877,-4.5877,-4.4612,-4.3408,-4.3408,-4.2027,-4.082,-4.0925,-4.0986,-4.1026,-4.1148,-4.1171,-4.1191,-4.1191,-4.1081,-4.1048,-4.1149,-4.1048,-4.0992,-4.1102,-4.1002,-4.0994,-4.1102,-4.0899,-4.0779,-4.0779,-4.0779,-4.0766,-4.0738,-4.0738,-4.0738,-4.0738,-4.0738,-4.0738,-4.0738,-4.0738,-4.0701,-4.0642,-4.0642,-4.0642,-2.6,-2.7255,-2.8646,-2.9011,-2.9448,-2.991,-3.0308,0.0,0.0,0.0,0.0,0.0,0.0,-3.1385,-3.2237,-3.3833,-3.4885,-3.6212,-3.8296,-3.9708,-4.0496,-4.0496,-4.1277,-4.2143,-4.3028,-4.3489,-4.4105,-4.494,-4.4662,-4.4451,-4.4451,-4.4008,-4.3739,-4.3739,-4.3335,-4.3547,-4.4432,-4.4451,-4.4451,-4.4451,-4.4825,-4.4998,-4.5017,-4.5421,-4.5594,-4.5594,-4.5665,-4.5685,-4.5692,-4.5722,-4.5737,-4.5737,-4.5737,-4.5737,-4.5751,-4.5819,-4.5853,-4.5845,-4.5896,-4.5899,-4.5899,-4.5899,-4.5899,-4.5899,-4.5899,-4.5914,-4.5915,-4.585,-4.5867,-4.5899,-4.5899,-4.5955,-4.5894,-4.5482,-4.4437,-4.3429,-4.3036,-4.1905,-4.0998,-4.1078,-4.1082,-4.1106,-4.1191,-4.1191,-4.1191,-4.1191,-4.1149,-4.1126,-4.1191,-4.1148,-4.1126,-4.1191,-4.1148,-4.1126,-4.1191,-4.1076,-4.0957,-4.0905,-4.0883,-4.0864,-4.0801,-4.0797,-4.0797,-4.0797,-4.0797,-4.0797,-4.0797,-4.0797,-4.0788,-4.0762,-4.0762,-4.0762,-2.5308,-2.6486,-2.7895,-2.8703,-2.9011,-2.9338,-3.0192,0.0,0.0,0.0,0.0,0.0,0.0,-3.191,0.0,-3.5135,-3.5827,-3.6892,-3.9169,-4.0073,-4.0496,-4.0496,-4.1143,-4.195,-4.2816,-4.2893,-4.3239,-4.4066,-4.3489,-4.3104,-4.3104,-4.297,-4.2893,-4.2893,-4.2777,-4.2701,-4.2701,-4.297,-4.3104,-4.3104,-4.3797,-4.4182,-4.4335,-4.509,-4.5511,-4.5635,-4.5763,-4.5821,-4.5808,-4.5877,-4.5899,-4.5899,-4.5899,-4.5899,-4.5903,-4.592,-4.5924,-4.5928,-4.5944,-4.5971,-4.5971,-4.5971,-4.5971,-4.5971,-4.5971,-4.6039,-4.6113,-4.5992,-4.5971,-4.5971,-4.5971,-4.6042,-4.5906,-4.5047,-4.425,-4.3457,-4.2598,-4.1777,-4.1191,-4.1191,-4.1191,-4.1191,-4.1191,-4.1191,-4.1191,-4.1191,-4.1191,-4.1191,-4.1191,-4.1191,-4.1191,-4.1191,-4.1191,-4.1191,-4.1191,-4.1191,-4.115,-4.1048,-4.1026,-4.0988,-4.0867,-4.0864,-4.0864,-4.0864,-4.0864,-4.0864,-4.0864,-4.0864,-4.0857,-4.0824,-4.0824,-4.0824,-2.5308,-2.6038,-2.7005,-2.7876,-2.8607,-2.9338,0.0,0.0,0.0,0.0,0.0,0.0,0.0,-3.2852,-3.418,-3.5327,-3.7315,-3.9092,-4.0169,-4.0419,-4.0496,-4.0496,-4.0631,-4.1046,-4.1912,-4.2,-4.2354,-4.322,-4.3162,-4.3104,-4.3104,-4.2412,-4.2,-4.2,-4.1277,-4.09,-4.09,-4.2354,-4.3104,-4.3104,-4.3239,-4.3643,-4.4306,-4.4564,-4.5066,-4.5769,-4.5855,-4.5872,-4.5896,-4.5894,-4.5899,-4.5899,-4.5899,-4.5899,-4.5912,-4.6033,-4.6075,-4.6082,-4.62,-4.6246,-4.6246,-4.6246,-4.6246,-4.6246,-4.6246,-4.6248,-4.6268,-4.6247,-4.6246,-4.6246,-4.6246,-4.6248,-4.6054,-4.5175,-4.4316,-4.3457,-4.2598,-4.1777,-4.1191,-4.1191,-4.1191,-4.1191,-4.1191,-4.1191,-4.1191,-4.1191,-4.1191,-4.1191,-4.1191,-4.1191,-4.1191,-4.1191,-4.1191,-4.1191,-4.1191,-4.1191,-4.1191,-4.1171,-4.1171,-4.1151,-4.1149,-4.1149,-4.1149,-4.1149,-4.1149,-4.1149,-4.1149,-4.1149,-4.108,-4.0964,-4.0964,-4.0964,-2.5308,-2.5942,-2.6813,-2.7678,-2.8492,-2.9338,0.0,0.0,0.0,0.0,0.0,0.0,0.0,0.0,-3.5488,-3.7257,-3.8892,-4.0073,-4.0458,-4.0496,-4.0496,-4.0496,-4.0496,-4.0835,-4.1712,-4.1373,-4.145,-4.2335,-4.195,-4.17,-4.17,-4.1316,-4.1104,-4.1104,-4.0708,-4.0496,-4.0496,-4.1285,-4.17,-4.17,-4.2162,-4.2585,-4.297,-4.3497,-4.4198,-4.5005,-4.5176,-4.5495,-4.5912,-4.6069,-4.6115,-4.6115,-4.6115,-4.6115,-4.6119,-4.6196,-4.6202,-4.6223,-4.6289,-4.6308,-4.6308,-4.6308,-4.6308,-4.6308,-4.6308,-4.6308,-4.6308,-4.6308,-4.6308,-4.6308,-4.6308,-4.6308,-4.5957,-4.4629,-4.3984,-4.334,-4.2031,-4.1465,-4.1191,-4.1191,-4.1191,-4.1191,-4.1191,-4.1191,-4.1191,-4.1191,-4.1191,-4.1191,-4.1191,-4.1191,-4.1191,-4.1191,-4.1191,-4.1191,-4.1191,-4.1191,-4.1191,-4.1191,-4.1191,-4.1191,-4.1191,-4.1191,-4.1191,-4.1191,-4.1191,-4.1191,-4.1191,-4.1191,-4.1171,-4.1105,-4.1105,-4.1105,-2.5558,-2.6231,-2.7101,-2.7972,0.0,0.0,0.0,0.0,0.0,0.0,0.0,0.0,0.0,-3.5545,-3.7026,-3.8977,-3.9977,-4.0496,-4.0496,-4.0496,-4.0496,-4.0496,-4.0496,-4.0766,-4.1431,-4.0893,-4.0785,-4.145,-4.0873,-4.0496,-4.0496,-4.0496,-4.0496,-4.0496,-4.0496,-4.0496,-4.0496,-4.0496,-4.0496,-4.0516,-4.1181,-4.1604,-4.1816,-4.2526,-4.3304,-4.4117,-4.4555,-4.5117,-4.5729,-4.6125,-4.6308,-4.6308,-4.6308,-4.6308,-4.6308,-4.6308,-4.6308,-4.6308,-4.6308,-4.6308,-4.6308,-4.6308,-4.6308,-4.6308,-4.6308,-4.6308,-4.6308,-4.6308,-4.6308,-4.6308,-4.6308,-4.6152,-4.5605,-4.4062,-4.3535,-4.2988,-4.1523,-4.1191,-4.1191,-4.1191,-4.1191,-4.1191,-4.1191,-4.1191,-4.1191,-4.1191,-4.1191,-4.1191,-4.1191,-4.1191,-4.1191,-4.1191,-4.1191,-4.1191,-4.1191,-4.1191,-4.1191,-4.1191,-4.1191,-4.1191,-4.1191,-4.1191,-4.1191,-4.1191,-4.1191,-4.1191,-4.1191,-4.1191,-4.1191,-4.1191,-4.1191,-4.1191,-2.6288,-2.714,-2.8011,-2.8819,-2.9069,0.0,-3.1218,-3.166,0.0,-3.266,0.0,0.0,0.0,-3.7392,-3.9092,-3.9265,-3.9977,-4.0496,-4.0496,-4.0496,-4.0496,-4.0496,-4.0496,-4.0516,-4.0593,-4.0535,-4.0535,-4.0593,-4.0535,-4.0496,-4.0496,-4.0496,-4.0496,-4.0496,-4.0496,-4.0496,-4.0496,-4.0496,-4.0496,-4.0496,-4.0554,-4.1008,-4.1816,-4.1995,-4.2593,-4.3527,-4.4476,-4.4941,-4.5136,-4.5957,-4.6308,-4.6308,-4.6308,-4.6308,-4.6308,-4.6308,-4.6308,-4.6308,-4.6308,-4.6308,-4.6308,-4.6308,-4.6308,-4.6308,-4.6308,-4.6308,-4.6308,-4.6308,-4.6308,-4.6308,-4.6308,-4.5703,-4.4863,-4.3926,-4.3086,-4.2266,-4.1387,-4.1191,-4.1191,-4.1191,-4.1191,-4.1191,-4.1191,-4.1191,-4.1191,-4.1191,-4.1191,-4.1191,-4.1191,-4.1191,-4.1191,-4.1191,-4.1191,-4.1191,-4.1191,-4.1191,-4.1191,-4.1191,-4.1191,-4.1191,-4.1191,-4.1191,-4.1191,-4.1191,-4.1191,-4.1191,-4.1191,-4.1191,-4.1191,-4.1191,-4.1191,-4.1191,-2.6365,-2.7236,-2.8217,-2.9563,-3.0314,0.0,0.0,-3.2506,-3.3487,-3.4346,-3.5442,0.0,0.0,-3.8642,-3.9457,-3.9958,-4.0304,-4.0496,-4.0496,-4.0496,-4.0496,-4.0496,-4.0496,-4.0496,-4.0496,-4.0496,-4.0496,-4.0496,-4.0496,-4.0496,-4.0496,-4.0496,-4.0496,-4.0496,-4.0496,-4.0496,-4.0496,-4.0496,-4.0537,-4.063,-4.063,-4.0797,-4.1113,-4.1221,-4.1732,-4.2611,-4.3078,-4.3604,-4.4203,-4.5116,-4.5488,-4.5547,-4.6094,-4.6308,-4.6308,-4.6308,-4.6308,-4.6308,-4.6308,-4.6308,-4.6308,-4.6308,-4.6308,-4.6308,-4.6308,-4.6308,-4.6308,-4.6308,-4.6308,-4.6308,-4.6308,-4.5644,-4.4785,-4.3906,-4.3027,-4.2187,-4.1367,-4.1191,-4.1191,-4.1191,-4.1191,-4.1191,-4.1191,-4.1191,-4.1191,-4.1191,-4.1191,-4.1191,-4.1191,-4.1191,-4.1191,-4.1191,-4.1191,-4.1191,-4.1191,-4.1191,-4.1191,-4.1191,-4.1191,-4.1191,-4.1191,-4.1191,-4.1191,-4.1191,-4.1191,-4.1191,-4.1191,-4.1191,-4.1191,-4.1191,-4.1191,-4.1191,-2.6758,-2.7484,-2.8405,-3.0385,0.0,0.0,-3.2804,-3.3795,-3.493,-3.6058,-3.6949,-3.7969,-3.9419,-3.9688,-3.9861,-4.0419,-4.0496,-4.0496,-4.0496,-4.0496,-4.0496,-4.0496,-4.0496,-4.0496,-4.0496,-4.0496,-4.0496,-4.0496,-4.0496,-4.0496,-4.0496,-4.0496,-4.0496,-4.0496,-4.0496,-4.0527,-4.0566,-4.0566,-4.0617,-4.0731,-4.0772,-4.0772,-4.0731,-4.0784,-4.1143,-4.1779,-4.2149,-4.2645,-4.3282,-4.4217,-4.4746,-4.5058,-4.5664,-4.6055,-4.6308,-4.6308,-4.6308,-4.6308,-4.6308,-4.6308,-4.6308,-4.6308,-4.6308,-4.6308,-4.6308,-4.6308,-4.6308,-4.6308,-4.6094,-4.5898,-4.5898,-4.5234,-4.4375,-4.3496,-4.2637,-4.1875,-4.1328,-4.1191,-4.1191,-4.1191,-4.1191,-4.1191,-4.1191,-4.1191,-4.1191,-4.1191,-4.1191,-4.1191,-4.1191,-4.1191,-4.1191,-4.1191,-4.1191,-4.1191,-4.1191,-4.1191,-4.1191,-4.1191,-4.1191,-4.1191,-4.1191,-4.1191,-4.1191,-4.1191,-4.1191,-4.1191,-4.1191,-4.1191,-4.1191,-4.1191,-4.1191,-4.1191,-2.7626,-2.8067,-2.864,-3.1255,0.0,0.0,-3.5212,-3.5571,-3.5981,-3.7661,-3.87,-3.9554,-4.0342,-4.0496,-4.0496,-4.0496,-4.0496,-4.0496,-4.0496,-4.0496,-4.0496,-4.0496,-4.0496,-4.0496,-4.0496,-4.0496,-4.0496,-4.0496,-4.0496,-4.0496,-4.0496,-4.0496,-4.0496,-4.0496,-4.0496,-4.0566,-4.0697,-4.0697,-4.0736,-4.0801,-4.0947,-4.0925,-4.0801,-4.0801,-4.0874,-4.1055,-4.1915,-4.2329,-4.2461,-4.332,-4.4199,-4.498,-4.498,-4.5527,-4.6289,-4.6289,-4.6289,-4.6289,-4.6308,-4.6308,-4.6308,-4.6308,-4.6308,-4.6308,-4.6308,-4.6308,-4.6308,-4.6289,-4.5664,-4.5,-4.498,-4.4336,-4.3476,-4.2617,-4.1797,-4.1191,-4.1191,-4.1191,-4.1191,-4.1191,-4.1191,-4.1191,-4.1191,-4.1191,-4.1191,-4.1191,-4.1191,-4.1191,-4.1191,-4.1191,-4.1191,-4.1191,-4.1191,-4.1191,-4.1191,-4.1191,-4.1191,-4.1191,-4.1191,-4.1191,-4.1191,-4.1191,-4.1191,-4.1191,-4.1191,-4.1191,-4.1191,-4.1191,-4.1191,-4.1191,-4.1191,-4.1191,-2.7784,-2.8976,-3.037,-3.2334,0.0,0.0,0.0,-3.6909,0.0,0.0,-3.9573,-4.0246,-4.0584,-4.0649,-4.0649,-4.0649,-4.0649,-4.0603,-4.0512,-4.0496,-4.0496,-4.0496,-4.0496,-4.0496,-4.0496,-4.0496,-4.053,-4.0636,-4.0649,-4.0649,-4.0649,-4.0649,-4.0589,-4.0496,-4.0582,-4.0649,-4.0697,-4.0742,-4.0824,-4.095,-4.0988,-4.0988,-4.093,-4.1049,-4.1104,-4.1168,-4.1403,-4.1542,-4.1621,-4.2441,-4.3301,-4.4082,-4.4082,-4.4238,-4.4551,-4.5156,-4.5391,-4.5469,-4.6094,-4.6308,-4.6308,-4.6308,-4.6308,-4.6308,-4.6308,-4.6308,-4.6172,-4.5566,-4.5195,-4.4726,-4.3496,-4.2988,-4.2715,-4.2461,-4.1797,-4.1191,-4.1191,-4.1191,-4.1191,-4.1191,-4.1191,-4.1191,-4.1191,-4.1191,-4.1191,-4.1191,-4.1191,-4.1191,-4.1191,-4.1191,-4.1191,-4.1191,-4.1191,-4.1191,-4.1191,-4.1191,-4.1191,-4.1191,-4.1191,-4.1191,-4.1191,-4.1191,-4.1191,-4.1191,-4.1191,-4.1191,-4.1191,-4.1191,-4.1191,-4.1191,-4.1191,-4.1191,-2.795,-2.94,-3.1129,-3.2842,-3.455,-3.6323,-3.8353,0.0,0.0,0.0,-4.0203,-4.0537,-4.0687,-4.0697,-4.0721,-4.0736,-4.0747,-4.0721,-4.0629,-4.0616,-4.0616,-4.0616,-4.0616,-4.0616,-4.0616,-4.0616,-4.0653,-4.0722,-4.0747,-4.0721,-4.0703,-4.0735,-4.0682,-4.0575,-4.067,-4.0772,-4.0822,-4.0866,-4.0952,-4.108,-4.108,-4.108,-4.108,-4.1151,-4.1191,-4.1191,-4.1191,-4.1191,-4.123,-4.1719,-4.2422,-4.3183,-4.3183,-4.3398,-4.3769,-4.4297,-4.4473,-4.4551,-4.5078,-4.5488,-4.5781,-4.5781,-4.6016,-4.623,-4.5898,-4.5781,-4.5605,-4.4726,-4.4238,-4.373,-4.2676,-4.2168,-4.1914,-4.1914,-4.1543,-4.1191,-4.1191,-4.1191,-4.1191,-4.1191,-4.1191,-4.1191,-4.1191,-4.1191,-4.1191,-4.1191,-4.1191,-4.1191,-4.1191,-4.1191,-4.1191,-4.1191,-4.1191,-4.1191,-4.1191,-4.1191,-4.1191,-4.1191,-4.1191,-4.1191,-4.1191,-4.1191,-4.1191,-4.1191,-4.1191,-4.1191,-4.1191,-4.1191,-4.1191,-4.1191,-4.1191,-4.1191,-2.8086,-2.9584,-3.1332,-3.2988,-3.474,-3.6696,-3.9179,-4.0261,-4.0718,-4.0701,-4.0604,-4.0568,-4.0696,-4.0718,-4.0742,-4.0817,-4.0813,-4.0809,-4.0801,-4.0797,-4.0797,-4.0797,-4.0797,-4.0797,-4.0797,-4.0797,-4.0801,-4.0813,-4.0805,-4.0775,-4.0707,-4.0761,-4.0766,-4.0703,-4.079,-4.0874,-4.0996,-4.1,-4.108,-4.1191,-4.1191,-4.1191,-4.1191,-4.1191,-4.1191,-4.1191,-4.1191,-4.1191,-4.1191,-4.1191,-4.1621,-4.2285,-4.2285,-4.2773,-4.3476,-4.3555,-4.3574,-4.3594,-4.3672,-4.4219,-4.4883,-4.4883,-4.543,-4.5918,-4.5117,-4.4883,-4.4707,-4.3828,-4.3008,-4.2383,-4.2305,-4.1758,-4.1191,-4.1191,-4.1191,-4.1191,-4.1191,-4.1191,-4.1191,-4.1191,-4.1191,-4.1191,-4.1191,-4.1191,-4.1191,-4.1191,-4.1191,-4.1191,-4.1191,-4.1191,-4.1191,-4.1191,-4.1191,-4.1191,-4.1191,-4.1191,-4.1191,-4.1191,-4.1191,-4.1191,-4.1191,-4.1191,-4.1191,-4.1191,-4.1191,-4.1191,-4.1191,-4.1191,-4.1191,-4.1191,-4.1191,-4.1191,-2.8242,-3.0507,0.0,-3.3301,-3.5721,-3.8491,-4.0423,-4.0902,-4.0916,-4.08,-4.0761,-4.0784,-4.0899,-4.0933,-4.0939,-4.0955,-4.0957,-4.092,-4.0809,-4.0797,-4.0797,-4.0797,-4.0797,-4.0797,-4.0797,-4.0797,-4.0831,-4.0955,-4.086,-4.0789,-4.0784,-4.0785,-4.0766,-4.0703,-4.0863,-4.0964,-4.0996,-4.1104,-4.1171,-4.1191,-4.1191,-4.1191,-4.1191,-4.1191,-4.1191,-4.1191,-4.1191,-4.1191,-4.1191,-4.1191,-4.1308,-4.1465,-4.1465,-4.1562,-4.1816,-4.2441,-4.2676,-4.2773,-4.3457,-4.3828,-4.3984,-4.3984,-4.4101,-4.4219,-4.4043,-4.3984,-4.3808,-4.293,-4.2539,-4.2246,-4.1621,-4.1328,-4.1191,-4.1191,-4.1191,-4.1191,-4.1191,-4.1191,-4.1191,-4.1191,-4.1191,-4.1191,-4.1191,-4.1191,-4.1191,-4.1191,-4.1191,-4.1191,-4.1191,-4.1191,-4.1191,-4.1191,-4.1191,-4.1191,-4.1191,-4.1191,-4.1191,-4.1191,-4.1191,-4.1191,-4.1191,-4.1191,-4.1191,-4.1191,-4.1191,-4.1191,-4.1191,-4.1191,-4.1191,-4.1191,-4.1191,-4.1191,-2.8301,0.0,0.0,-3.4941,0.0,-3.8945,-4.0273,-4.0856,-4.1078,-4.1017,-4.088,-4.085,-4.0986,-4.0996,-4.1023,-4.1081,-4.1102,-4.1077,-4.0996,-4.0992,-4.0992,-4.0992,-4.0992,-4.0992,-4.0992,-4.0925,-4.0955,-4.1081,-4.0964,-4.0905,-4.0905,-4.0957,-4.0944,-4.0856,-4.1012,-4.1102,-4.1102,-4.1171,-4.1191,-4.1191,-4.1191,-4.1191,-4.1191,-4.1191,-4.1191,-4.1191,-4.1191,-4.1191,-4.1191,-4.1191,-4.1191,-4.1191,-4.1191,-4.1191,-4.125,-4.168,-4.1836,-4.1894,-4.2344,-4.2754,-4.3086,-4.3086,-4.3359,-4.3613,-4.3203,-4.3086,-4.2891,-4.2051,-4.1836,-4.1738,-4.1308,-4.1191,-4.1191,-4.1191,-4.1191,-4.1191,-4.1191,-4.1191,-4.1191,-4.1191,-4.1191,-4.1191,-4.1191,-4.1191,-4.1191,-4.1191,-4.1191,-4.1191,-4.1191,-4.1191,-4.1191,-4.1191,-4.1191,-4.1191,-4.1191,-4.1191,-4.1171,-4.1105,-4.1151,-4.1171,-4.1104,-4.1171,-4.1191,-4.1191,-4.1191,-4.1191,-4.1191,-4.1191,-4.1191,-4.1191,-4.1191,-4.1191,-2.8301,0.0,-3.4023,-3.6641,-3.7969,0.0,-3.9707,-4.0566,-4.1191,-4.1191,-4.1025,-4.0908,-4.1002,-4.1028,-4.1077,-4.1171,-4.1191,-4.1191,-4.1191,-4.1191,-4.1191,-4.1191,-4.1191,-4.1191,-4.1191,-4.1103,-4.108,-4.1191,-4.1078,-4.0996,-4.0996,-4.1104,-4.1106,-4.0996,-4.1128,-4.1191,-4.1191,-4.1191,-4.1191,-4.1191,-4.1191,-4.1191,-4.1191,-4.1191,-4.1191,-4.1191,-4.1191,-4.1191,-4.1191,-4.1191,-4.1191,-4.1191,-4.1191,-4.1191,-4.1191,-4.1191,-4.1191,-4.1191,-4.1191,-4.1641,-4.2187,-4.2187,-4.2676,-4.3125,-4.2402,-4.2187,-4.2051,-4.1387,-4.1191,-4.1191,-4.1191,-4.1191,-4.1191,-4.1191,-4.1191,-4.1191,-4.1191,-4.1191,-4.1191,-4.1191,-4.1191,-4.1191,-4.1191,-4.1191,-4.1191,-4.1171,-4.1171,-4.115,-4.1129,-4.1128,-4.1128,-4.1128,-4.1128,-4.1128,-4.1128,-4.1128,-4.1081,-4.0964,-4.1077,-4.108,-4.0964,-4.1077,-4.1128,-4.1128,-4.1171,-4.1191,-4.1191,-4.1171,-4.1171,-4.1191,-4.1171,-4.1171,-2.8301,0.0,-3.4023,0.0,-3.7969,-3.8828,0.0,0.0,-4.1191,-4.1191,-4.1171,-4.115,-4.1171,-4.1171,-4.1171,-4.1191,-4.1191,-4.1191,-4.1191,-4.1191,-4.1191,-4.1191,-4.1191,-4.1191,-4.1191,-4.1172,-4.1171,-4.1191,-4.1078,-4.0996,-4.0996,-4.1021,-4.1023,-4.0996,-4.1128,-4.1191,-4.1191,-4.1191,-4.1191,-4.1191,-4.1191,-4.1191,-4.1191,-4.1191,-4.1191,-4.1191,-4.1191,-4.1191,-4.1191,-4.1191,-4.1191,-4.1191,-4.1191,-4.1191,-4.1191,-4.1191,-4.1191,-4.1191,-4.1191,-4.1269,-4.1367,-4.1367,-4.1445,-4.1504,-4.1406,-4.1367,-4.1348,-4.123,-4.1191,-4.1191,-4.1191,-4.1191,-4.1191,-4.1191,-4.1191,-4.1191,-4.1191,-4.1191,-4.1191,-4.1191,-4.1191,-4.1191,-4.1191,-4.1191,-4.1151,-4.1031,-4.1025,-4.099,-4.0867,-4.0857,-4.0857,-4.0857,-4.0857,-4.0857,-4.0857,-4.0857,-4.0854,-4.0839,-4.0831,-4.0854,-4.0839,-4.0831,-4.0857,-4.0857,-4.108,-4.1191,-4.1191,-4.1081,-4.1081,-4.1191,-4.108,-4.1082,-3.0098,-3.1914,-3.3789,0.0,-3.6875,-3.7969,-3.8359,-3.9492,-4.0469,-4.0469,-4.0859,-4.1191,-4.1191,-4.1191,-4.1191,-4.1191,-4.1191,-4.1191,-4.1191,-4.1191,-4.1191,-4.1191,-4.1191,-4.1191,-4.1191,-4.1128,-4.1126,-4.1191,-4.1078,-4.1026,-4.1105,-4.1105,-4.1105,-4.1105,-4.1171,-4.1191,-4.1191,-4.1191,-4.1191,-4.1191,-4.1191,-4.1191,-4.1191,-4.1191,-4.1191,-4.1191,-4.1191,-4.1191,-4.1191,-4.1191,-4.1191,-4.1191,-4.1191,-4.1191,-4.1191,-4.1191,-4.1191,-4.1191,-4.1191,-4.1191,-4.1191,-4.1191,-4.1191,-4.1191,-4.1191,-4.1191,-4.1172,-4.1105,-4.1081,-4.1077,-4.0994,-4.0986,-4.0986,-4.0986,-4.0986,-4.0986,-4.0986,-4.1028,-4.1076,-4.0992,-4.0986,-4.0986,-4.0986,-4.0986,-4.0957,-4.0905,-4.0899,-4.0867,-4.0805,-4.0797,-4.0797,-4.0797,-4.0797,-4.0797,-4.0797,-4.0797,-4.0773,-4.0742,-4.0784,-4.0773,-4.0757,-4.0784,-4.0797,-4.0797,-4.0917,-4.0986,-4.0986,-4.0917,-4.0917,-4.0966,-4.0917,-4.092,0.0,0.0,-3.3359,-3.4434,-3.584,-3.7031,0.0,-3.8476,-3.957,-3.957,-4.0254,-4.0879,-4.0879,-4.1055,-4.1191,-4.1191,-4.1191,-4.1191,-4.1191,-4.1191,-4.1191,-4.1191,-4.1191,-4.1191,-4.1191,-4.1105,-4.1082,-4.1191,-4.1104,-4.1083,-4.1191,-4.1191,-4.1191,-4.1191,-4.1191,-4.1191,-4.1191,-4.1191,-4.1191,-4.1191,-4.1191,-4.1191,-4.1191,-4.1191,-4.1191,-4.1191,-4.1191,-4.1191,-4.1191,-4.1191,-4.1191,-4.1191,-4.1191,-4.1191,-4.1191,-4.1191,-4.1191,-4.1191,-4.1191,-4.1191,-4.1191,-4.1191,-4.1191,-4.1191,-4.1151,-4.115,-4.1126,-4.099,-4.0955,-4.0922,-4.0839,-4.0797,-4.0797,-4.0797,-4.0797,-4.0797,-4.0797,-4.0874,-4.092,-4.0813,-4.0797,-4.0797,-4.0797,-4.0797,-4.0789,-4.0779,-4.0775,-4.0766,-4.0733,-4.0709,-4.0709,-4.0709,-4.0709,-4.0709,-4.0709,-4.0709,-4.0707,-4.0649,-4.069,-4.0701,-4.0642,-4.0696,-4.0709,-4.0709,-4.0709,-4.0742,-4.0797,-4.0788,-4.0773,-4.0797,-4.0788,-4.0773,0.0,-3.2226,0.0,-3.4297,-3.5391,-3.6289,-3.7109,-3.8008,-3.8672,-3.8672,-3.9355,-3.9961,-3.9961,-4.0644,-4.1191,-4.1191,-4.1191,-4.1191,-4.1191,-4.1191,-4.1191,-4.1191,-4.1191,-4.1191,-4.1191,-4.1191,-4.1191,-4.1191,-4.1191,-4.1191,-4.1191,-4.1191,-4.1191,-4.1191,-4.1191,-4.1191,-4.1191,-4.1191,-4.1191,-4.1191,-4.1191,-4.1191,-4.1191,-4.1191,-4.1191,-4.1191,-4.1191,-4.1191,-4.1191,-4.1191,-4.1191,-4.1191,-4.1191,-4.1191,-4.1191,-4.1191,-4.1191,-4.1191,-4.1191,-4.1191,-4.1191,-4.1191,-4.1191,-4.1171,-4.1052,-4.1019,-4.0988,-4.0854,-4.0805,-4.0805,-4.0801,-4.0797,-4.0797,-4.0797,-4.0797,-4.0797,-4.0797,-4.0801,-4.0805,-4.0801,-4.0797,-4.0797,-4.0797,-4.0797,-4.0784,-4.0713,-4.0709,-4.0655,-4.053,-4.0527,-4.0527,-4.0527,-4.0527,-4.0527,-4.0527,-4.0527,-4.05,-4.0512,-4.05,-4.05,-4.0512,-4.05,-4.0527,-4.0527,-4.0527,-4.0597,-4.0797,-4.0742,-4.0742,-4.0797,-4.0736,-4.0747,0.0,0.0,0.0,-3.2949,-3.4141,-3.5254,-3.5566,-3.6738,-3.7773,-3.7773,-3.8457,-3.9062,-3.9062,-4.0234,-4.1191,-4.1191,-4.1191,-4.1191,-4.1191,-4.1191,-4.1191,-4.1191,-4.1191,-4.1191,-4.1191,-4.1191,-4.1191,-4.1191,-4.1191,-4.1191,-4.1191,-4.1191,-4.1191,-4.1191,-4.1191,-4.1191,-4.1191,-4.1191,-4.1191,-4.1191,-4.1191,-4.1191,-4.1191,-4.1191,-4.1191,-4.1191,-4.1191,-4.1191,-4.1191,-4.1191,-4.1191,-4.1191,-4.1191,-4.1191,-4.1191,-4.1191,-4.1191,-4.1191,-4.1191,-4.1191,-4.1191,-4.1103,-4.1077,-4.1051,-4.0914,-4.087,-4.085,-4.0757,-4.0736,-4.0721,-4.0623,-4.0617,-4.0617,-4.0617,-4.0617,-4.0617,-4.0617,-4.0617,-4.0617,-4.0617,-4.0617,-4.0617,-4.0617,-4.0617,-4.0597,-4.0588,-4.0581,-4.0552,-4.0504,-4.0496,-4.0496,-4.0496,-4.0496,-4.0496,-4.0496,-4.0496,-4.0496,-4.0496,-4.0496,-4.0496,-4.0496,-4.0496,-4.0496,-4.0496,-4.0496,-4.0545,-4.0617,-4.057,-4.057,-4.0617,-4.0589,-4.0577,-3.0508,0.0,0.0,0.0,-3.3047,-3.4004,-3.457,-3.5605,-3.6504,-3.6797,-3.7559,-3.8164,-3.8164,-3.9355,-4.0332,-4.0332,-4.0332,-4.043,-4.0723,-4.0762,-4.0879,-4.1172,-4.1191,-4.1191,-4.1191,-4.1191,-4.1191,-4.1191,-4.1191,-4.1191,-4.1191,-4.1191,-4.1191,-4.1191,-4.1191,-4.1191,-4.1191,-4.1191,-4.1191,-4.1191,-4.1191,-4.1191,-4.1191,-4.1191,-4.1191,-4.1191,-4.115,-4.1151,-4.1191,-4.1191,-4.1171,-4.1129,-4.1129,-4.1104,-4.1077,-4.1126,-4.1104,-4.1077,-4.1126,-4.1104,-4.1052,-4.0959,-4.0925,-4.0911,-4.0796,-4.0761,-4.0752,-4.0667,-4.0636,-4.061,-4.0527,-4.0496,-4.0496,-4.0496,-4.0496,-4.0496,-4.0496,-4.0496,-4.0496,-4.0496,-4.0496,-4.0496,-4.0496,-4.0496,-4.0496,-4.0496,-4.0496,-4.0496,-4.0496,-4.0496,-4.0496,-4.0496,-4.0496,-4.0496,-4.0496,-4.0496,-4.0496,-4.0496,-4.0496,-4.0496,-4.0496,-4.0496,-4.0496,-4.0496,-4.0496,-4.0496,-4.0496,-4.0496,-4.0496,-4.0496,-4.0496,-4.0496,0.0,0.0,0.0,-3.1953,-3.2187,-3.2637,-3.4258,-3.4648,-3.4902,-3.5781,-3.6621,-3.7226,-3.7266,-3.7949,-3.8516,-3.8516,-3.8574,-3.8906,-3.9746,-3.9863,-4.0176,-4.1016,-4.1113,-4.1113,-4.1113,-4.1113,-4.1113,-4.1113,-4.1113,-4.1113,-4.1113,-4.1113,-4.1113,-4.1113,-4.1113,-4.1133,-4.1152,-4.1152,-4.1172,-4.1191,-4.1191,-4.1191,-4.1191,-4.1191,-4.1191,-4.1191,-4.1052,-4.1076,-4.1191,-4.1191,-4.1105,-4.0994,-4.0994,-4.0917,-4.0813,-4.0952,-4.0914,-4.0813,-4.0952,-4.0911,-4.0797,-4.0793,-4.0793,-4.0773,-4.0718,-4.0692,-4.0681,-4.0549,-4.0496,-4.0496,-4.0496,-4.0496,-4.0496,-4.0496,-4.0496,-4.0496,-4.0496,-4.0496,-4.0496,-4.0496,-4.0496,-4.0496,-4.0496,-4.0496,-4.0496,-4.0496,-4.0496,-4.0496,-4.0496,-4.0496,-4.0496,-4.0496,-4.0496,-4.0496,-4.0496,-4.0496,-4.0496,-4.0496,-4.0496,-4.0496,-4.0496,-4.0496,-4.0496,-4.0496,-4.0496,-4.0496,-4.0496,-4.0496,-4.0496,-4.0496,-4.0496,-4.0496,-3.0664,0.0,0.0,0.0,0.0,0.0,-3.2793,-3.334,-3.4004,-3.4883,-3.5254,-3.5605,-3.623,-3.6562,-3.6719,-3.6719,-3.7773,-3.8672,-3.8926,-3.8965,-3.9043,-3.9297,-3.9316,-3.9316,-3.9316,-3.9316,-3.9316,-3.9316,-3.9316,-3.9316,-3.9316,-3.9316,-3.9316,-3.9316,-3.9316,-3.9629,-4.0254,-4.0254,-4.0586,-4.1191,-4.1191,-4.1191,-4.1191,-4.1103,-4.1054,-4.1051,-4.0914,-4.0874,-4.0914,-4.0914,-4.088,-4.086,-4.086,-4.0824,-4.0801,-4.085,-4.0824,-4.0801,-4.0831,-4.0824,-4.0785,-4.0738,-4.0721,-4.0713,-4.0589,-4.0552,-4.0545,-4.0512,-4.0496,-4.0496,-4.0496,-4.0496,-4.0496,-4.0496,-4.0496,-4.0496,-4.0496,-4.0496,-4.0496,-4.0496,-4.0496,-4.0496,-4.0496,-4.0496,-4.0496,-4.0496,-4.0496,-4.0496,-4.0496,-4.0496,-4.0496,-4.0496,-4.0496,-4.0496,-4.0496,-4.0496,-4.0496,-4.0496,-4.0496,-4.0496,-4.0496,-4.0496,-4.0496,-4.0496,-4.0496,-4.0496,-4.0496,-4.0496,-4.0496,-4.0496,-4.0496,-4.0496,0.0,0.0,0.0,-3.0898,0.0,0.0,-3.2129,-3.2559,-3.3144,-3.3984,-3.416,-3.4316,-3.4824,-3.4922,-3.5039,-3.5391,-3.6309,-3.7226,-3.7969,-3.8066,-3.8184,-3.8555,-3.8594,-3.8594,-3.8594,-3.8594,-3.8594,-3.8594,-3.8594,-3.8594,-3.8594,-3.8594,-3.8594,-3.8594,-3.8594,-3.8848,-3.9355,-3.9726,-4.0156,-4.0664,-4.1035,-4.1171,-4.1106,-4.1048,-4.0964,-4.0911,-4.0796,-4.0767,-4.0743,-4.0707,-4.0717,-4.0767,-4.0767,-4.0713,-4.069,-4.0747,-4.0713,-4.0671,-4.0747,-4.0708,-4.0668,-4.063,-4.0616,-4.0596,-4.0508,-4.0496,-4.0496,-4.0496,-4.0496,-4.0496,-4.0496,-4.0496,-4.0496,-4.0496,-4.0496,-4.0496,-4.0496,-4.0496,-4.0496,-4.0496,-4.0496,-4.0496,-4.0496,-4.0496,-4.0496,-4.0496,-4.0496,-4.0496,-4.0496,-4.0496,-4.0496,-4.0496,-4.0496,-4.0496,-4.0496,-4.0496,-4.0496,-4.0496,-4.0496,-4.0496,-4.0496,-4.0496,-4.0496,-4.0496,-4.0496,-4.0496,-4.0496,-4.0496,-4.0496,-4.0496,-4.0496,-4.0496,0.0,0.0,0.0,0.0,-3.0877,0.0,-3.1855,-3.2031,-3.2265,-3.3105,-3.3262,-3.3281,-3.3379,-3.3398,-3.3652,-3.4434,-3.4551,-3.5156,-3.6914,-3.7168,-3.7441,-3.8223,-3.8301,-3.8301,-3.8301,-3.8301,-3.8301,-3.8301,-3.8301,-3.8301,-3.8301,-3.8301,-3.8301,-3.8301,-3.8301,-3.8359,-3.8457,-3.9219,-3.9707,-3.9902,-4.0664,-4.1028,-4.0996,-4.0983,-4.0902,-4.0773,-4.0699,-4.0674,-4.0661,-4.0545,-4.0574,-4.0674,-4.0674,-4.0603,-4.0519,-4.0636,-4.0596,-4.0519,-4.0643,-4.0596,-4.0496,-4.0496,-4.0496,-4.0496,-4.0496,-4.0496,-4.0496,-4.0496,-4.0496,-4.0496,-4.0496,-4.0496,-4.0496,-4.0496,-4.0496,-4.0496,-4.0496,-4.0496,-4.0496,-4.0496,-4.0496,-4.0496,-4.0496,-4.0496,-4.0496,-4.0496,-4.0496,-4.0496,-4.0496,-4.0496,-4.0496,-4.0496,-4.0496,-4.0496,-4.0496,-4.0496,-4.0496,-4.0496,-4.0496,-4.0496,-4.0496,-4.0496,-4.0496,-4.0496,-4.0496,-4.0496,-4.0496,-4.0496,-4.0496,-4.0496,-4.0496,-4.0496,0.0,0.0,0.0,-3.0665,-3.0665,0.0,-3.0933,-3.0998,-3.1277,-3.2226,-3.2422,-3.2637,-3.3281,-3.3398,-3.3457,-3.3633,-3.3652,-3.4258,-3.6016,-3.625,-3.6328,-3.6484,-3.6504,-3.6504,-3.6504,-3.6504,-3.6504,-3.6504,-3.6504,-3.6504,-3.6504,-3.6504,-3.6504,-3.6504,-3.6504,-3.6836,-3.7559,-3.7715,-3.8516,-3.9902,-3.9968,-4.034,-4.0992,-4.0839,-4.0731,-4.0713,-4.0596,-4.053,-4.0549,-4.0512,-4.0519,-4.053,-4.053,-4.0527,-4.0496,-4.0542,-4.0527,-4.0504,-4.0542,-4.0527,-4.0496,-4.0496,-4.0496,-4.0496,-4.0496,-4.0496,-4.0496,-4.0496,-4.0496,-4.0496,-4.0496,-4.0496,-4.0496,-4.0496,-4.0496,-4.0496,-4.0496,-4.0496,-4.0496,-4.0496,-4.0496,-4.0496,-4.0496,-4.0496,-4.0496,-4.0496,-4.0496,-4.0496,-4.0496,-4.0496,-4.0496,-4.0496,-4.0496,-4.0496,-4.0496,-4.0496,-4.0496,-4.0496,-4.0496,-4.0496,-4.0496,-4.0496,-4.0496,-4.0496,-4.0496,-4.0496,-4.0496,-4.0496,-4.0496,-4.0496,-4.0496,-4.0496,-3.071,-3.0603,-3.0603,-3.0603,-3.0603,0.0,0.0,-3.0657,-3.0782,-3.1295,-3.1431,-3.1575,-3.1985,-3.2108,-3.2305,-3.2734,-3.2793,-3.3242,-3.4512,-3.4707,-3.4707,-3.4707,-3.4707,-3.4707,-3.4707,-3.4707,-3.4883,-3.5312,-3.5742,-3.5996,-3.5996,-3.5996,-3.5996,-3.5996,-3.5996,-3.6211,-3.6641,-3.707,-3.7714,-3.8566,-3.9328,-3.9869,-4.0202,-4.0557,-4.0655,-4.0589,-4.0534,-4.0496,-4.0496,-4.0496,-4.0496,-4.0496,-4.0496,-4.0496,-4.0496,-4.0496,-4.0496,-4.0496,-4.0496,-4.0496,-4.0496,-4.0496,-4.0496,-4.0496,-4.0496,-4.0496,-4.0496,-4.0496,-4.0496,-4.0496,-4.0496,-4.0496,-4.0496,-4.0496,-4.0496,-4.0496,-4.0496,-4.0496,-4.0496,-4.0496,-4.0496,-4.0496,-4.0496,-4.0496,-4.0496,-4.0496,-4.0496,-4.0496,-4.0496,-4.0496,-4.0496,-4.0496,-4.0496,-4.0496,-4.0496,-4.0496,-4.0496,-4.0496,-4.0496,-4.0496,-4.0496,-4.0496,-4.0496,-4.0496,-4.0496,-4.0496,-4.0496,-4.0496,-4.0496,-4.0496,-4.0496,-4.0496,-3.1033,-3.0803,-3.0764,-3.0593,-3.0554,-3.0558,0.0,0.0,0.0,-3.06,-3.0631,-3.0682,-3.0682,-3.0789,-3.1034,-3.1581,-3.1836,-3.2129,-3.2598,-3.2812,-3.3047,-3.3359,-3.3398,-3.3398,-3.3398,-3.3398,-3.3691,-3.4394,-3.5098,-3.5566,-3.5742,-3.5742,-3.582,-3.5996,-3.5996,-3.5996,-3.5996,-3.6699,-3.7083,-3.7211,-3.8534,-3.9232,-3.9417,-4.0112,-4.0461,-4.0496,-4.0496,-4.0496,-4.0496,-4.0496,-4.0496,-4.0496,-4.0496,-4.0496,-4.0496,-4.0496,-4.0496,-4.0496,-4.0496,-4.0496,-4.0496,-4.0496,-4.0496,-4.0496,-4.0496,-4.0496,-4.0496,-4.0496,-4.0496,-4.0496,-4.0496,-4.0496,-4.0496,-4.0496,-4.0496,-4.0496,-4.0496,-4.0496,-4.0496,-4.0496,-4.0496,-4.0496,-4.0496,-4.0496,-4.0496,-4.0496,-4.0496,-4.0496,-4.0496,-4.0496,-4.0496,-4.0496,-4.0496,-4.0496,-4.0496,-4.0496,-4.0496,-4.0496,-4.0496,-4.0496,-4.0496,-4.0496,-4.0496,-4.0496,-4.0496,-4.0496,-4.0496,-4.0496,-4.0496,-4.0496,-4.0496,-4.0496,-3.1785,-3.1573,-3.138,-3.0629,-3.0417,-3.043,-3.0494,0.0,-3.0525,-3.0591,0.0,-3.0617,-3.0617,0.0,0.0,-2.992,-3.0504,-3.0801,-3.0137,-3.0703,-3.1738,-3.3223,-3.3398,-3.3398,-3.3398,-3.3398,-3.3437,-3.3535,-3.3633,-3.4023,-3.4805,-3.4844,-3.5195,-3.5976,-3.5996,-3.5996,-3.5996,-3.6042,-3.6435,-3.7191,-3.7211,-3.7986,-3.9392,-3.943,-3.9846,-4.0496,-4.0496,-4.0496,-4.0496,-4.0496,-4.0496,-4.0496,-4.0496,-4.0496,-4.0496,-4.0496,-4.0496,-4.0496,-4.0496,-4.0496,-4.0496,-4.0496,-4.0496,-4.0496,-4.0496,-4.0496,-4.0496,-4.0496,-4.0496,-4.0496,-4.0496,-4.0496,-4.0496,-4.0496,-4.0496,-4.0496,-4.0496,-4.0496,-4.0496,-4.0496,-4.0496,-4.0496,-4.0496,-4.0496,-4.0496,-4.0496,-4.0496,-4.0496,-4.0496,-4.0496,-4.0496,-4.0496,-4.0496,-4.0496,-4.0496,-4.0496,-4.0496,-4.0496,-4.0496,-4.0496,-4.0496,-4.0496,-4.0496,-4.0496,-4.0496,-4.0496,-4.0496,-4.0496,-4.0496,-4.0496,-4.0496,-4.0496,-3.2622,-3.2391,-3.2199,-3.1365,-3.1154,-3.1037,-3.0546,-3.0441,-3.0456,-3.0472,0.0,0.0,0.0,0.0,0.0,0.0,-3.0498,-3.0654,-3.0283,-3.0623,-3.1152,-3.1875,-3.1953,-3.1953,-3.1953,-3.2402,-3.2695,-3.2695,-3.3144,-3.3555,-3.3926,-3.4434,-3.4863,-3.5234,-3.5742,-3.5975,-3.5945,-3.5911,-3.6026,-3.6285,-3.6707,-3.7497,-3.8595,-3.909,-3.9746,-4.0496,-4.0496,-4.0496,-4.0496,-4.0496,-4.0496,-4.0496,-4.0496,-4.0496,-4.0496,-4.0496,-4.0496,-4.0496,-4.0496,-4.0496,-4.0496,-4.0496,-4.0496,-4.0496,-4.0496,-4.0496,-4.0496,-4.0496,-4.0496,-4.0496,-4.0496,-4.0496,-4.0496,-4.0496,-4.0496,-4.0496,-4.0496,-4.0496,-4.0496,-4.0496,-4.0496,-4.0496,-4.0496,-4.0496,-4.0496,-4.0496,-4.0496,-4.0496,-4.0496,-4.0496,-4.0496,-4.0496,-4.0496,-4.0496,-4.0496,-4.0496,-4.0496,-4.0496,-4.0496,-4.0496,-4.0496,-4.0496,-4.0496,-4.0496,-4.0496,-4.0414,-4.0278,-4.0278,-4.0167,-3.9994,-4.0336,-4.0425,-3.3487,-3.3256,-3.3064,-3.2237,-3.1852,-3.1525,-3.0904,-3.0577,-3.0404,-3.0404,-3.0436,0.0,0.0,0.0,0.0,0.0,0.0,-3.0501,-3.0053,-3.0299,-3.0604,-3.0879,-3.0898,-3.0898,-3.0898,-3.1465,-3.1836,-3.1836,-3.2383,-3.2812,-3.3066,-3.3672,-3.4238,-3.4687,-3.5292,-3.5713,-3.5901,-3.5853,-3.5735,-3.5611,-3.6226,-3.6916,-3.768,-3.8546,-3.94,-4.0189,-4.04,-4.0496,-4.0496,-4.0496,-4.0496,-4.0496,-4.0496,-4.0496,-4.0496,-4.0496,-4.0496,-4.0496,-4.0496,-4.0496,-4.0496,-4.0496,-4.0496,-4.0496,-4.0496,-4.0496,-4.0496,-4.0496,-4.0496,-4.0496,-4.0496,-4.0496,-4.0496,-4.0496,-4.0496,-4.0496,-4.0496,-4.0496,-4.0496,-4.0496,-4.0496,-4.0496,-4.0496,-4.0496,-4.0496,-4.0496,-4.0496,-4.0496,-4.0496,-4.0496,-4.0496,-4.0496,-4.0496,-4.0496,-4.0496,-4.0496,-4.0496,-4.0496,-4.0422,-4.0414,-4.0496,-4.0441,-4.0414,-4.0496,-4.0433,-4.0285,-4.0101,-4.0012,-3.9848,-3.9611,-4.0053,-4.0157,-3.4391,-3.4167,-3.3955,-3.3083,-3.2275,-3.1698,-3.166,-3.1,-3.0404,-3.0404,-3.041,-3.039,-3.039,0.0,0.0,0.0,0.0,0.0,0.0,-2.8969,-2.9887,-3.0781,-3.0898,-3.0898,-3.0898,-3.0937,-3.0937,-3.0937,-3.0976,-3.1348,-3.2187,-3.2266,-3.3027,-3.4648,-3.4653,-3.5043,-3.5882,-3.5718,-3.5616,-3.5605,-3.5554,-3.5968,-3.6769,-3.7642,-3.8527,-3.9381,-4.0169,-4.0496,-4.0496,-4.0496,-4.0496,-4.0496,-4.0496,-4.0496,-4.0496,-4.0496,-4.0496,-4.0496,-4.0496,-4.0496,-4.0496,-4.0496,-4.0496,-4.0496,-4.0496,-4.0496,-4.0496,-4.0496,-4.0496,-4.0496,-4.0496,-4.0496,-4.0496,-4.0496,-4.0496,-4.0496,-4.0496,-4.0496,-4.0496,-4.0496,-4.0496,-4.0496,-4.0496,-4.0496,-4.0496,-4.0496,-4.0496,-4.0496,-4.0496,-4.0496,-4.0496,-4.0496,-4.0496,-4.0496,-4.0496,-4.0496,-4.0496,-4.0496,-4.0269,-4.0223,-4.0489,-4.0241,-4.0232,-4.0489,-4.026,-4.011,-4.0101,-3.9775,-3.9611,-3.9599,-3.9622,-3.9622,-3.5135,-3.5064,-3.4853,-3.3968,-3.3571,-3.3064,-3.1948,-3.1468,-3.1096,-3.0519,-3.0404,-3.0404,-3.0404,0.0,0.0,0.0,0.0,0.0,0.0,-2.8679,-2.8705,-2.907,-2.9666,-3.0039,-3.0039,-3.0566,-3.0898,-3.0898,-3.0898,-3.0995,-3.12,-3.1746,-3.2576,-3.3676,-3.424,-3.4902,-3.5694,-3.5636,-3.5582,-3.5534,-3.5508,-3.5923,-3.6731,-3.7603,-3.8469,-3.9342,-4.015,-4.0496,-4.0496,-4.0496,-4.0496,-4.0496,-4.0496,-4.0496,-4.0496,-4.0496,-4.0496,-4.0496,-4.0496,-4.0496,-4.0496,-4.0496,-4.0496,-4.0496,-4.0496,-4.0496,-4.0496,-4.0496,-4.0496,-4.0496,-4.0496,-4.0496,-4.0496,-4.0496,-4.0496,-4.0496,-4.0496,-4.0496,-4.0496,-4.0496,-4.0496,-4.0496,-4.0496,-4.0496,-4.0496,-4.0496,-4.0496,-4.0496,-4.0496,-4.0496,-4.0496,-4.0496,-4.0496,-4.0441,-4.0241,-4.0043,-3.9905,-3.9905,-3.9829,-3.9819,-3.9894,-3.9829,-3.9819,-3.9894,-3.9819,-3.9656,-3.9426,-3.9314,-3.9184,-3.9013,-3.9013,-3.9114,-3.55,-3.55,-3.5365,-3.4795,-3.443,-3.3917,-3.2833,-3.2352,-3.1891,-3.1038,-3.0865,-3.0769,-3.0462,0.0,0.0,0.0,0.0,0.0,0.0,-2.7835,-2.7167,-2.724,-2.8347,-2.9099,-2.9099,-2.9902,-3.0429,-3.0408,-3.0661,-3.0793,-3.0696,-3.1209,-3.1882,-3.2713,-3.3536,-3.4337,-3.5126,-3.5422,-3.5534,-3.55,-3.55,-3.5769,-3.6308,-3.7161,-3.8007,-3.8873,-3.9708,-4.0246,-4.0496,-4.0496,-4.0496,-4.0496,-4.0496,-4.0496,-4.0496,-4.0496,-4.0496,-4.0496,-4.0496,-4.0496,-4.0496,-4.0496,-4.0496,-4.0496,-4.0496,-4.0496,-4.0496,-4.0496,-4.0496,-4.0496,-4.0496,-4.0496,-4.0496,-4.0496,-4.0496,-4.0496,-4.0496,-4.0496,-4.0496,-4.0496,-4.0496,-4.0496,-4.0496,-4.0496,-4.0496,-4.0496,-4.0433,-4.0356,-4.0356,-4.0248,-4.0175,-4.0175,-4.0175,-4.011,-3.9932,-3.9712,-3.9599,-3.9599,-3.9493,-3.9481,-3.9599,-3.9493,-3.9493,-3.9599,-3.9474,-3.9333,-3.9112,-3.8994,-3.8869,-3.8707,-3.8707,-3.8788]},{"header":{"parameterUnit":"m.s-1","parameterCategory":1,"la1":30.6,"la2":29.2853,"lo1":-89.7004,"lo2":-87.6739,"dy":0.0162,"dx":0.0183,"nx":112,"ny":82,"refTime":"2023-11-03T00:00:00:Z","depth":0,"parameterNumber":3,"parameterNumberName":"V-component_of_WINDS"},"data":[0.0,0.0,0.0,0.0,0.0,0.0,0.0,0.0,0.0,0.0,0.0,0.0,0.0,0.0,0.0,0.0,0.0,0.0,0.0,0.0,0.0,0.0,0.0,0.0,0.0,0.0,0.0,0.0,0.0,0.0,0.0,0.0,0.0,0.0,0.0,0.0,0.0,0.0,0.0,0.0,0.0,0.0,0.0,0.0,0.0,0.0,0.0,0.0,0.0,0.0,0.0,0.0,0.0,0.0,0.0,0.0,0.0,0.0,0.0,0.0,0.0,0.0,0.0,0.0,0.0,0.0,0.0,0.0,0.0,0.0,0.0,0.0,0.0,0.0,0.0,0.0,0.0,0.0,0.0,0.0,0.0,0.0,0.0,0.0,0.0,0.0,0.0,0.0,0.0,0.0,-0.7,-0.7,-0.7,-0.6571,-0.5524,-0.5351,-0.5346,-0.5437,0.0,0.0,0.0,0.0,0.0,0.0,0.0,0.0,0.0,0.0,0.0,0.0,0.0,0.0,0.0,0.0,0.0,0.0,0.0,0.0,0.0,0.0,0.0,0.0,0.0,0.0,0.0,0.0,0.0,0.0,0.0,0.0,0.0,0.0,0.0,0.0,0.0,0.0,0.0,0.0,0.0,0.0,0.0,0.0,0.0,0.0,0.0,0.0,0.0,0.0,0.0,0.0,0.0,0.0,0.0,0.0,0.0,0.0,0.0,0.0,0.0,0.0,0.0,0.0,0.0,0.0,0.0,0.0,0.0,0.0,0.0,0.0,0.0,0.0,0.0,0.0,0.0,0.0,0.0,0.0,0.0,0.0,0.0,0.0,0.0,0.0,0.0,0.0,0.0,0.0,0.0,0.0,0.0,0.0,0.0,0.0,0.0,0.0,0.0,0.0,0.0,0.0,0.0,0.0,-0.7,-0.7,-0.7,-0.6747,-0.6114,-0.5588,-0.5524,-0.6029,0.0,0.0,0.0,0.0,0.0,0.0,0.0,0.0,0.0,0.0,0.0,0.0,0.0,0.0,0.0,0.0,0.0,0.0,0.0,0.0,0.0,0.0,0.0,0.0,0.0,0.0,0.0,0.0,0.0,0.0,0.0,0.0,0.0,0.0,0.0,0.0,0.0,0.0,0.0,0.0,0.0,0.0,0.0,0.0,0.0,0.0,0.0,0.0,0.0,0.0,0.0,0.0,0.0,0.0,0.0,0.0,0.0,0.0,0.0,0.0,0.0,0.0,0.0,0.0,0.0,0.0,0.0,0.0,0.0,0.0,0.0,0.0,0.0,0.0,0.0,0.0,0.0,0.0,0.0,0.0,0.0,0.0,0.0,0.0,0.0,0.0,0.0,0.0,0.0,0.0,0.0,0.0,0.0,0.0,0.0,0.0,0.0,0.0,0.0,0.0,0.0,0.0,0.0,-0.7,-0.7,-0.7,-0.7,-0.6789,-0.6243,-0.5653,-0.5416,-0.5696,-0.4657,0.0,0.0,0.0,0.0,0.0,0.0,0.0,0.0,0.0,0.0,0.0,0.0,0.0,0.0,0.0,0.0,0.0,0.0,0.0,0.0,0.0,0.0,0.0,0.0,0.0,0.0,0.0,0.0,0.0,0.0,0.0,0.0,0.0,0.0,0.0,0.0,0.0,0.0,0.0,0.0,0.0,0.0,0.0,0.0,0.0,0.0,0.0,0.0,0.0,0.0,0.0,0.0,0.0,0.0,0.0,0.0,0.0,0.0,0.0,0.0,0.0,0.0,0.0,0.0,0.0,0.0,0.0,0.0,0.0,0.0,0.0,0.0,0.0,0.0,0.0,0.0,0.0,0.0,0.0,0.0,0.0,0.0,0.0,0.0,0.0,0.0,0.0,0.0,0.0,0.0,0.0,0.0,0.0,0.0,0.0,0.0,0.0,0.0,0.0,0.0,0.0,0.0,-0.7,-0.7,-0.7,-0.7,-0.6831,-0.6413,-0.5717,-0.5373,-0.5502,-0.4805,0.0,0.0,0.0,0.0,0.0,0.0,0.0,0.0,0.0,0.0,0.0,0.0,0.0,0.0,0.0,0.0,0.0,0.0,0.0,0.0,0.0,0.0,0.0,0.0,0.0,0.0,0.0,0.0,0.0,0.0,0.0,0.0,0.0,0.0,0.0,0.0,0.0,0.0,0.0,0.0,0.0,0.0,0.0,0.0,0.0,0.0,0.0,0.0,0.0,0.0,0.0,0.0,0.0,0.0,0.0,0.0,0.0,0.0,0.0,0.0,0.0,0.0,0.0,0.0,0.0,0.0,0.0,0.0,0.0,0.0,0.0,0.0,0.0,0.0,0.0,0.0,0.0,0.0,0.0,0.0,0.0,0.0,0.0,0.0,0.0,0.0,0.0,0.0,0.0,0.0,0.0,0.0,0.0,0.0,0.0,0.0,0.0,0.0,0.0,0.0,0.0,0.0,-0.7,-0.7,-0.7,-0.7,-0.6979,-0.6937,-0.5926,-0.5545,-0.6093,-0.5043,0.0,0.0,0.0,0.0,0.0,0.0,0.0,0.0,0.0,0.0,0.0,0.0,0.0,0.0,0.0,0.0,0.0,0.0,0.0,0.0,0.0,0.0,0.0,0.0,0.0,0.0,0.0,0.0,0.0,0.0,0.0,0.0,0.0,0.0,0.0,0.0,0.0,0.0,0.0,0.0,0.0,0.0,0.0,0.0,0.0,0.0,0.0,0.0,0.0,0.0,0.0,0.0,0.0,0.0,0.0,0.0,0.0,0.0,0.0,0.0,0.0,0.0,0.0,0.0,0.0,0.0,0.0,0.0,0.0,0.0,0.0,0.0,0.0,0.0,0.0,0.0,0.0,0.0,0.0,0.0,0.0,0.0,0.0,0.0,0.0,0.0,0.0,0.0,0.0,0.0,0.0,0.0,0.0,0.0,0.0,0.0,0.0,0.0,0.0,0.0,0.0,0.0,-0.7,-0.7,-0.7,-0.7,-0.6873,-0.6541,-0.576,-0.5238,-0.5087,0.0,0.0,0.0,0.0,0.0,0.0,0.0,0.0,0.0,0.0,0.0,0.0,0.0,0.0,0.0,0.0,0.0,0.0,0.0,0.0,0.0,0.0,0.0,0.0,0.0,0.0,0.0,0.0,0.0,0.0,0.0,0.0,0.0,0.0,0.0,0.0,0.0,0.0,0.0,0.0,0.0,0.0,0.0,0.0,0.0,0.0,0.0,0.0,0.0,0.0,0.0,0.0,0.0,0.0,0.0,0.0,0.0,0.0,0.0,0.0,0.0,0.0,0.0,0.0,0.0,0.0,0.0,0.0,0.0,0.0,0.0,0.0,0.0,0.0,0.0,0.0,0.0,0.0,0.0,0.0,0.0,0.0,0.0,0.0,0.0,0.0,0.0,0.0,0.0,0.0,0.0,0.0,0.0,0.0,0.0,0.0,0.0,0.0,0.0,0.0,0.0,0.0,-0.7,-0.7,-0.7,-0.7,-0.7,-0.6789,-0.6243,-0.5653,-0.513,-0.4718,0.0,0.0,0.0,0.0,0.0,0.0,0.0,0.0,0.0,0.0,0.0,0.0,0.0,0.0,0.0,0.0,0.0,0.0,0.0,0.0,0.0,0.0,0.0,0.0,0.0,0.0,0.0,0.0,0.0,0.0,0.0,0.0,0.0,0.0,0.0,0.0,0.0,0.0,0.0,0.0,0.0,0.0,0.0,0.0,0.0,0.0,0.0,0.0,0.0,0.0,0.0,0.0,0.0,0.0,0.0,0.0,0.0,0.0,0.0,0.0,0.0,0.0,0.0,0.0,0.0,0.0,0.0,0.0,0.0,0.0,0.0,0.0,0.0,0.0,0.0,0.0,0.0,0.0,0.0,0.0,0.0,0.0,0.0,0.0,0.0,0.0,0.0,0.0,0.0,0.0,0.0,0.0,0.0,0.0,0.0,0.0,0.0,0.0,0.0,0.0,0.0,0.0,-0.7,-0.7006,-0.7006,-0.7006,-0.7006,-0.6795,-0.6249,-0.5658,-0.5303,0.0,0.0,0.0,0.0,0.0,0.0,0.0,0.0,0.0,0.0,0.0,0.0,0.0,0.0,0.0,0.0,0.0,0.0,0.0,0.0,0.0,0.0,0.0,0.0,0.0,0.0,0.0,0.0,0.0,0.0,0.0,0.0,0.0,0.0,0.0,0.0,0.0,0.0,0.0,0.0,0.0,0.0,0.0,0.0,0.0,0.0,0.0,0.0,0.0,0.0,0.0,0.0,0.0,0.0,0.0,0.0,0.0,0.0,0.0,0.0,0.0,0.0,0.0,0.0,0.0,0.0,0.0,0.0,0.0,0.0,0.0,0.0,0.0,0.0,0.0,0.0,0.0,0.0,0.0,0.0,0.0,0.0,0.0,0.0,0.0,0.0,0.0,0.0,0.0,0.0,0.0,0.0,0.0,0.0,0.0,0.0,0.0,0.0,0.0,0.0,0.0,0.0,0.0,-0.7,-0.7208,-0.7357,-0.7357,-0.7357,-0.7114,-0.6538,-0.575,-0.5303,-0.5303,0.0,0.0,0.0,0.0,0.0,0.0,0.0,0.0,0.0,0.0,0.0,0.0,0.0,0.0,0.0,0.0,0.0,0.0,0.0,0.0,0.0,0.0,0.0,0.0,0.0,0.0,0.0,0.0,0.0,0.0,0.0,0.0,0.0,0.0,0.0,0.0,0.0,0.0,0.0,0.0,0.0,0.0,0.0,0.0,0.0,0.0,0.0,0.0,0.0,0.0,0.0,0.0,0.0,0.0,0.0,0.0,0.0,0.0,0.0,0.0,0.0,0.0,0.0,0.0,0.0,0.0,0.0,0.0,0.0,0.0,0.0,0.0,0.0,0.0,0.0,0.0,0.0,0.0,0.0,0.0,0.0,0.0,0.0,0.0,0.0,0.0,0.0,0.0,0.0,0.0,0.0,0.0,0.0,0.0,0.0,0.0,0.0,0.0,0.0,0.0,0.0,0.0,-0.7188,-0.7377,-0.7538,-0.7635,-0.7649,-0.7374,-0.6663,-0.5896,-0.5421,-0.5313,0.0,0.0,0.0,0.0,0.0,0.0,0.0,0.0,0.0,0.0,0.0,0.0,0.0,0.0,0.0,0.0,0.0,0.0,0.0,0.0,0.0,0.0,0.0,0.0,0.0,0.0,0.0,0.0,0.0,0.0,0.0,0.0,0.0,0.0,0.0,0.0,0.0,0.0,0.0,0.0,0.0,0.0,0.0,0.0,0.0,0.0,0.0,0.0,0.0,0.0,0.0,0.0,0.0,0.0,0.0,0.0,0.0,0.0,0.0,0.0,0.0,0.0,0.0,0.0,0.0,0.0,0.0,0.0,0.0,0.0,0.0,0.0,0.0,0.0,0.0,0.0,0.0,0.0,0.0,0.0,0.0,0.0,0.0,0.0,0.0,0.0,0.0,0.0,0.0,0.0,0.0,0.0,0.0,0.0,0.0,0.0,0.0,0.0,0.0,0.0,0.0,0.0,-0.7497,-0.7558,-0.7678,-0.7919,-0.7945,-0.762,-0.6844,-0.6167,-0.5686,-0.5435,0.0,0.0,0.0,0.0,0.0,0.0,0.0,0.0,0.0,0.0,0.0,0.0,0.0,0.0,0.0,0.0,0.0,0.0,0.0,0.0,0.0,0.0,0.0,0.0,0.0,0.0,0.0,0.0,0.0,0.0,0.0,0.0,0.0,0.0,0.0,0.0,0.0,0.0,0.0,0.0,0.0,0.0,0.0,0.0,0.0,0.0,0.0,0.0,0.0,0.0,0.0,0.0,0.0,0.0,0.0,0.0,0.0,0.0,0.0,0.0,-0.7712,-0.7595,0.0,0.0,0.0,0.0,0.0,0.0,0.0,0.0,0.0,0.0,0.0,0.0,0.0,0.0,0.0,0.0,0.0,0.0,0.0,0.0,0.0,0.0,0.0,0.0,0.0,0.0,0.0,0.0,0.0,0.0,0.0,0.0,0.0,0.0,0.0,0.0,0.0,0.0,0.0,0.0,-0.7766,-0.8036,-0.8234,-0.8295,-0.8301,-0.8232,-0.8036,-0.7036,-0.6378,-0.6321,-0.5558,0.0,0.0,0.0,0.0,0.0,0.0,0.0,0.0,0.0,0.0,0.0,0.0,0.0,0.0,0.0,0.0,0.0,0.0,0.0,0.0,0.0,0.0,0.0,0.0,0.0,0.0,0.0,0.0,0.0,0.0,0.0,0.0,0.0,0.0,0.0,0.0,0.0,0.0,0.0,0.0,0.0,0.0,0.0,0.0,0.0,0.0,0.0,0.0,0.0,0.0,0.0,0.0,0.0,0.0,0.0,0.0,0.0,0.0,0.0,-0.8152,-0.7812,0.0,0.0,0.0,0.0,0.0,0.0,0.0,0.0,0.0,0.0,0.0,0.0,0.0,0.0,0.0,0.0,0.0,0.0,0.0,0.0,0.0,0.0,0.0,0.0,0.0,0.0,0.0,0.0,0.0,0.0,0.0,0.0,0.0,0.0,0.0,0.0,0.0,0.0,0.0,0.0,-0.8103,-0.8301,-0.8456,-0.8571,-0.8584,-0.8549,-0.8409,-0.756,-0.6919,-0.6623,-0.5912,0.0,0.0,0.0,0.0,0.0,0.0,0.0,0.0,0.0,0.0,0.0,0.0,0.0,0.0,0.0,0.0,0.0,0.0,0.0,0.0,0.0,0.0,0.0,0.0,0.0,0.0,0.0,0.0,0.0,0.0,0.0,0.0,0.0,0.0,0.0,0.0,0.0,0.0,0.0,0.0,0.0,0.0,0.0,0.0,0.0,0.0,0.0,0.0,0.0,0.0,0.0,0.0,0.0,-0.9156,-0.9267,-0.9451,-0.9545,-0.9679,-0.9809,-0.8811,-0.8278,-0.8132,-0.8132,0.0,0.0,0.0,0.0,0.0,0.0,0.0,0.0,0.0,0.0,0.0,0.0,0.0,0.0,0.0,0.0,0.0,0.0,0.0,0.0,0.0,0.0,-0.6403,-0.6271,-0.5834,-0.5614,-0.6282,0.0,0.0,0.0,0.0,0.0,0.0,0.0,0.0,0.0,0.0,0.0,-0.8435,-0.8476,-0.8569,-0.8784,-0.8804,-0.8711,-0.8496,-0.7854,-0.7197,-0.6603,-0.6005,-0.5528,0.0,0.0,0.0,0.0,0.0,0.0,0.0,0.0,0.0,0.0,0.0,0.0,0.0,0.0,0.0,0.0,0.0,0.0,0.0,0.0,0.0,0.0,0.0,0.0,0.0,0.0,0.0,0.0,0.0,0.0,0.0,0.0,-0.6754,-0.6825,0.0,0.0,0.0,0.0,0.0,0.0,0.0,0.0,0.0,0.0,0.0,0.0,0.0,-0.9344,-0.988,-0.9927,-1.0074,-1.0358,-0.9468,-0.9518,-1.0388,-0.9492,-0.9599,-1.0466,-1.0311,0.0,-0.9044,-0.9044,0.0,0.0,0.0,0.0,0.0,0.0,0.0,0.0,0.0,0.0,0.0,0.0,0.0,0.0,0.0,0.0,0.0,0.0,0.0,0.0,0.0,0.0,-0.8085,-0.8054,-0.7768,-0.7477,-0.7367,-0.6941,-0.6807,-0.7545,-0.7701,-0.7751,0.0,0.0,0.0,0.0,0.0,0.0,-0.8711,-0.8751,-0.8764,-0.8804,-0.8804,-0.8791,-0.8751,-0.7863,-0.7078,-0.6476,-0.5854,-0.5305,-0.4799,-0.5122,0.0,0.0,0.0,0.0,0.0,0.0,0.0,0.0,0.0,0.0,0.0,0.0,0.0,0.0,0.0,0.0,0.0,0.0,0.0,0.0,0.0,0.0,0.0,0.0,0.0,0.0,0.0,0.0,0.0,-0.6848,-0.7427,-0.7427,-0.7869,-0.8176,0.0,0.0,0.0,0.0,0.0,0.0,0.0,0.0,0.0,-0.9973,-1.014,-1.0347,-1.0608,-1.0935,-1.1203,-1.133,-1.0996,-1.1108,-1.1536,-1.1073,-1.1108,-1.1564,-1.1404,-1.1109,-1.0681,-1.0187,-0.9806,-0.9539,0.0,0.0,0.0,0.0,-0.8574,-0.8499,-0.7884,-0.7982,-0.8376,-0.8232,0.0,0.0,0.0,0.0,0.0,0.0,0.0,-0.7351,-0.6942,-0.6932,-0.6954,-0.6534,-0.6317,-0.6301,-0.6604,-0.648,-0.6567,-0.7309,-0.7242,-0.7295,-0.8054,-0.7954,0.0,0.0,0.0,-0.8534,-0.8335,-0.8712,-0.8828,-0.8345,-0.874,-0.8958,-0.8824,-0.8397,-0.7966,-0.755,-0.6569,-0.5779,-0.5278,-0.5365,-0.5346,0.0,0.0,0.0,0.0,0.0,0.0,0.0,0.0,0.0,0.0,0.0,0.0,0.0,0.0,0.0,0.0,0.0,0.0,0.0,0.0,0.0,0.0,0.0,0.0,0.0,0.0,0.0,0.0,-0.766,-0.8016,-0.8062,-0.8534,-0.8844,0.0,0.0,0.0,0.0,0.0,0.0,-1.0396,-1.0521,-1.0701,-1.1028,-1.1216,-1.1363,-1.1477,-1.1913,-1.2174,-1.2211,-1.2164,-1.2262,-1.2532,-1.2262,-1.23,-1.2525,-1.2305,-1.2211,-1.2174,-1.1209,-1.0648,-1.0416,-1.0416,-1.0321,-1.0066,-0.9401,-0.9181,-0.9077,-0.834,-0.8531,-0.9071,-0.8969,-0.895,-0.8938,-0.8866,0.0,0.0,0.0,0.0,-0.7701,-0.6969,-0.6837,-0.6692,-0.5892,-0.5738,-0.5962,-0.6639,-0.6586,-0.6563,-0.7016,-0.6812,-0.6908,-0.7899,-0.7955,0.0,-0.8611,-0.8889,-0.888,-0.8424,-0.8742,-0.8827,-0.8391,-0.8539,-0.8719,-0.8891,-0.853,-0.8196,-0.7954,-0.6931,-0.6027,-0.5343,-0.5335,-0.5139,-0.4688,0.0,0.0,0.0,0.0,0.0,0.0,0.0,0.0,0.0,0.0,0.0,0.0,0.0,0.0,0.0,0.0,0.0,0.0,0.0,0.0,0.0,0.0,0.0,0.0,0.0,0.0,0.0,0.0,0.0,-0.8532,-0.9426,0.0,0.0,0.0,0.0,-1.0526,-1.078,-1.1035,-1.1309,-1.163,-1.1917,-1.2204,-1.2231,-1.2371,-1.269,-1.2723,-1.2884,-1.3107,-1.2184,-1.223,-1.312,-1.215,-1.223,-1.316,-1.3146,-1.314,-1.3053,-1.1835,-1.1342,-1.1322,-1.1322,-1.1315,-1.1302,-1.1268,-1.1268,-1.1194,-1.0916,-1.0824,-1.0817,-1.0569,-1.0483,-1.043,-1.0119,-0.9996,0.0,0.0,-0.9966,-0.9781,-0.905,-0.9098,-0.9075,-0.8067,-0.8054,-0.8329,-0.876,-0.8184,-0.7509,-0.7176,-0.7096,-0.7072,-0.7165,0.0,-0.8381,-0.8411,-0.9128,-0.9646,-0.9601,-0.8937,-0.8726,-0.9537,-0.817,-0.7748,-0.9072,-0.7824,-0.691,-0.6691,-0.6389,-0.562,-0.4327,-0.4684,-0.5092,-0.5448,-0.5005,0.0,0.0,0.0,0.0,0.0,0.0,0.0,0.0,0.0,0.0,0.0,0.0,0.0,0.0,0.0,0.0,0.0,0.0,0.0,0.0,0.0,0.0,0.0,0.0,0.0,0.0,0.0,0.0,-0.8776,-0.9869,0.0,-1.0909,-1.1229,-1.1517,-1.167,-1.1777,-1.1964,-1.2295,-1.2415,-1.261,-1.2879,-1.2886,-1.2939,-1.3046,-1.3233,-1.338,-1.3453,-1.3305,-1.3437,-1.3733,-1.2617,-1.2272,-1.2563,-1.164,-1.1284,-1.1204,-1.0573,-1.1107,-1.2315,-1.2315,-1.2158,-1.1892,-1.1169,-1.0893,-1.0779,-0.9869,-0.9959,-1.0396,-1.0303,-1.0266,-1.0254,-1.0155,-0.9714,-0.9375,-0.9952,-0.9681,-0.9192,-0.8938,-0.8951,-0.8946,-0.8601,-0.8593,-0.8708,-0.8822,-0.862,-0.837,-0.8207,-0.7684,-0.7378,-0.7857,-0.8275,-0.8692,-0.9172,-0.9505,-0.9564,-0.9161,-0.9336,-0.9402,-0.9155,-0.8571,-0.8317,-0.8658,-0.7989,-0.7516,-0.7433,-0.7257,-0.6686,-0.5669,-0.5694,-0.558,-0.526,-0.5424,-0.605,0.0,0.0,0.0,0.0,0.0,0.0,0.0,0.0,0.0,0.0,0.0,0.0,0.0,0.0,0.0,0.0,0.0,0.0,0.0,0.0,0.0,0.0,0.0,0.0,0.0,-0.926,-0.9737,-0.9291,-1.0547,-1.137,-1.1297,-1.1919,-1.2405,-1.2592,-1.2605,-1.2739,-1.3033,-1.3085,-1.3186,-1.3494,-1.3507,-1.3507,-1.3507,-1.3701,-1.3753,-1.3753,-1.3995,-1.4088,-1.4088,-1.3288,-1.2899,-1.2845,-1.1905,-1.1542,-1.1483,-1.0855,-1.1642,-1.3134,-1.2134,-1.1869,-1.1923,-1.1172,-1.1149,-1.1354,-1.057,-1.0664,-1.1149,-1.1149,-1.1149,-1.113,-1.1031,-1.0593,-1.0263,-1.0857,-1.0492,-0.9939,-0.9663,-0.9547,-0.9308,-0.8625,-0.845,-0.8538,-0.874,-0.8583,-0.8527,-0.9125,-0.8475,-0.7934,-0.832,-0.8721,-0.9101,-0.9506,-0.983,-0.9859,-0.9476,-0.9408,-0.9283,-0.8998,-0.8174,-0.7768,-0.8083,-0.7889,-0.7618,-0.7279,-0.7655,-0.7258,-0.5895,-0.6161,-0.6072,-0.5485,-0.623,-0.6659,-0.6731,0.0,0.0,0.0,0.0,0.0,0.0,0.0,0.0,0.0,0.0,0.0,0.0,0.0,0.0,0.0,0.0,0.0,0.0,0.0,0.0,0.0,0.0,0.0,-0.9265,-0.9416,-0.969,-1.0085,-1.1407,-1.1946,-1.1177,-1.236,-1.3227,-1.324,-1.324,-1.332,-1.36,-1.362,-1.3746,-1.4082,-1.4088,-1.4088,-1.4088,-1.4088,-1.4088,-1.4088,-1.4088,-1.4088,-1.4088,-1.4046,-1.4039,-1.4039,-1.3997,-1.3997,-1.3913,-1.2723,-1.2942,-1.3727,-1.084,-1.0455,-1.1508,-1.1462,-1.2148,-1.3088,-1.3088,-1.3088,-1.3088,-1.3088,-1.3088,-1.3035,-1.2769,-1.2721,-1.2721,-1.2721,-1.2477,-1.2057,-1.1334,-1.0968,-1.0282,-0.8327,-0.7872,-0.804,-0.8682,-0.8157,-0.8066,-0.9752,-0.9381,-0.8737,-0.8505,-0.9181,-0.9678,-0.9397,-1.0072,0.0,-1.0606,-0.9107,-0.8393,-0.9236,-0.7027,-0.6046,-0.7409,-0.7504,-0.7076,-0.6069,-0.7367,-0.7118,-0.4836,-0.5911,-0.6461,-0.6175,-0.7297,-0.7266,-0.6034,0.0,0.0,0.0,0.0,0.0,0.0,0.0,0.0,0.0,0.0,0.0,0.0,0.0,0.0,0.0,0.0,0.0,0.0,0.0,0.0,0.0,-0.8083,-0.8904,-0.8811,-0.9665,-1.0491,-1.1049,-1.1471,-1.2018,-1.2792,-1.3265,-1.3573,-1.3828,-1.3848,-1.3881,-1.3961,-1.3968,-1.4001,-1.4082,-1.4088,-1.4088,-1.4088,-1.4088,-1.4088,-1.4088,-1.4088,-1.4088,-1.4088,-1.3203,-1.2808,-1.2766,-1.1906,-1.1563,-1.152,-1.1214,-1.1257,-1.1466,-1.0692,-1.1064,-1.1967,-1.0912,-1.0582,-1.064,-1.064,-1.064,-1.064,-1.064,-1.064,-1.067,-1.0559,-1.0538,-1.0538,-1.0538,-1.0489,-1.0377,-1.0162,-1.0051,-0.9846,-0.9293,-0.9094,-0.9082,-0.9289,-0.9041,-0.896,-0.9421,-0.9337,-0.928,-0.958,-1.0371,-1.0897,-1.0819,-1.1021,-1.1109,-1.0935,-0.9906,-0.9506,-1.0161,-0.8479,-0.7451,-0.7844,-0.763,-0.7102,-0.6214,-0.6941,-0.6818,-0.555,-0.5836,-0.5911,-0.5708,-0.6533,-0.6954,0.0,0.0,0.0,0.0,0.0,0.0,0.0,0.0,0.0,0.0,0.0,0.0,0.0,0.0,0.0,0.0,0.0,0.0,0.0,0.0,0.0,0.0,-0.8206,-0.9062,-0.8703,-0.9612,-1.0467,-1.0913,-1.1393,-1.2033,-1.2981,-1.3524,-1.3901,-1.4075,-1.4088,-1.3864,-1.3379,-1.3822,-1.3652,-1.265,-1.3082,-1.3336,-1.3336,-1.3336,-1.3603,-1.4088,-1.4088,-1.4088,-1.4088,-1.3379,-1.3069,-1.3027,-1.2339,-1.2083,-1.204,-1.1515,-1.1601,-1.1955,0.0,0.0,0.0,0.0,-1.0253,-1.006,-1.006,-1.006,-1.006,-1.006,-1.006,-1.006,-1.006,-1.006,-1.006,-1.006,-0.9995,-0.9925,-0.9925,-0.9815,-0.9583,-0.9181,-0.9007,-0.896,-0.896,-0.8841,-0.8894,-0.9312,-0.9319,0.0,-0.9721,-1.0077,-1.0423,-1.0742,-1.0757,-1.0735,-1.0571,-0.9768,-0.9198,-0.9051,-0.7806,-0.6979,-0.6929,-0.7072,0.0,0.0,0.0,-0.6981,-0.6361,-0.5987,0.0,0.0,0.0,-0.6577,-0.6545,-0.6736,0.0,0.0,-0.7377,-0.7379,0.0,0.0,0.0,0.0,0.0,0.0,0.0,0.0,0.0,0.0,0.0,0.0,0.0,0.0,0.0,0.0,-0.8562,-0.9356,-0.8771,-0.9303,-0.9967,-1.0381,-1.1238,-1.1908,-1.2262,-1.3288,-1.3822,-1.3695,-1.3695,-1.3252,-1.2157,-1.3118,0.0,0.0,0.0,-1.2114,-1.2114,-1.2114,-1.2638,-1.3695,-1.3822,-1.3913,-1.3906,-1.4039,-1.4046,-1.3906,-1.4039,-1.3997,-1.3822,-1.2899,-1.3118,-1.387,-1.152,-1.0524,-1.0394,-1.0265,-1.0221,-1.0221,-1.0221,0.0,0.0,-1.0221,-1.0221,-1.0221,-1.0221,-1.0221,-1.0221,-1.0221,-1.0042,-0.9859,-0.9859,-0.9636,-0.9165,-0.8309,-0.8048,-0.8032,-0.8032,-0.7931,-0.8114,-0.902,-0.9092,-0.8994,-0.8994,-0.8916,-0.9093,-0.9751,-0.9822,-0.9845,-0.9956,-0.9082,-0.8159,-0.7327,-0.6344,0.0,-0.5563,-0.628,-0.633,-0.5458,-0.6553,-0.7111,-0.6895,-0.6103,-0.569,-0.569,-0.6174,-0.6137,-0.555,-0.597,-0.6566,-0.7278,-0.7609,-0.7828,0.0,0.0,0.0,0.0,0.0,0.0,0.0,0.0,0.0,0.0,0.0,0.0,0.0,0.0,0.0,-0.7831,-0.8414,-0.8774,-0.8518,-0.8837,-0.9776,-1.1651,-1.1273,-1.1246,-1.2194,-1.2498,-1.2291,-1.1348,-1.1262,-1.1171,-1.0956,-1.1171,-1.1085,-1.0611,-1.0826,-1.0907,-1.0907,-1.0907,-1.1042,-1.13,-1.2206,0.0,-1.2681,-1.3646,-1.3561,-1.2717,-1.3688,-1.3555,-1.2723,-1.347,-1.3913,-1.387,-1.152,-1.0053,-0.9104,-0.8141,-0.7793,-0.7793,-0.7793,-0.7793,-0.7793,-0.7793,-0.7793,-0.7793,-0.7793,-0.7793,0.0,-0.7793,-0.7727,-0.7701,-0.7701,-0.7636,-0.757,-0.7356,-0.7221,-0.7137,-0.7137,-0.7052,-0.7021,-0.7222,-0.713,-0.7058,-0.7058,-0.8227,-0.9253,-0.9394,-0.9426,-0.9617,-1.0217,-0.8778,-0.8123,-0.92,-0.7711,-0.6656,-0.6619,-0.6676,-0.633,-0.5458,-0.5503,-0.5553,-0.5492,-0.522,-0.5081,-0.5081,-0.5172,-0.5448,-0.5914,-0.5994,-0.6411,-0.715,-0.7042,-0.7325,0.0,0.0,0.0,0.0,0.0,0.0,0.0,0.0,0.0,0.0,0.0,-0.7123,-0.678,0.0,-0.7979,-0.7544,-0.8189,-0.8535,-0.7848,-0.7876,-0.8838,-1.1166,-1.0438,-1.0438,-1.2109,-1.1766,-1.1209,-1.0654,-1.0611,-1.0351,-0.9792,-1.0308,-1.0048,-0.8877,-0.9444,-0.9749,-0.9749,-0.9749,-1.0053,-1.0611,-1.1166,-1.1466,-1.1472,-1.2083,-1.2035,-1.1466,-1.2083,-1.2339,-1.237,-1.3603,-1.373,-1.3033,-1.1257,-1.0265,-0.9623,-0.8452,-0.7621,-0.7095,-0.7095,-0.7095,-0.7095,-0.7095,-0.7095,-0.7095,-0.7095,-0.7095,-0.7095,-0.7095,-0.7095,-0.7095,-0.7095,-0.7095,-0.7095,-0.7095,-0.7041,-0.6991,-0.6991,-0.6876,-0.6814,-0.6814,-0.6692,-0.6586,-0.6586,-0.7331,-0.8039,-0.8479,-0.8542,-0.8689,-0.906,-0.8267,-0.7711,-0.7911,-0.7056,-0.6407,-0.6355,-0.623,-0.5937,-0.5432,-0.532,-0.5247,-0.5247,-0.5104,-0.4992,-0.4992,-0.4924,-0.5066,-0.5457,-0.5457,-0.5816,-0.6549,-0.6449,-0.7036,0.0,0.0,0.0,0.0,0.0,0.0,0.0,-0.6958,-0.75,-0.6941,-0.7157,-0.7238,-0.6694,-0.7541,-0.8033,-0.7092,-0.7846,-0.8189,-0.7228,-0.7095,-0.7881,-1.0005,-0.9449,-0.9623,-1.1466,-1.0826,-1.0178,-0.9918,-0.9918,-0.9531,-0.8584,-0.9401,-0.9052,-0.7139,-0.8061,-0.854,-0.854,-0.854,-0.9013,-0.9918,-1.0178,-1.0269,-1.0265,-1.0481,-1.0481,-1.0269,-1.0269,-1.0913,-1.2072,-1.3033,-1.2857,-1.1895,-1.095,-1.0481,-1.0139,-0.8973,-0.7925,-0.7095,-0.7095,-0.7095,-0.7095,-0.7095,-0.7095,-0.7095,-0.7095,-0.7095,-0.7095,-0.7095,-0.7095,-0.7095,-0.7095,-0.7095,-0.7095,-0.7095,-0.7095,-0.7095,-0.7095,-0.7007,-0.6927,-0.6927,-0.6848,-0.6746,-0.6746,-0.6617,-0.6784,-0.7441,-0.7539,-0.7595,-0.7783,-0.7633,-0.7194,-0.6419,-0.6159,-0.5932,-0.5813,-0.5698,-0.5566,-0.545,-0.544,-0.5426,-0.5395,-0.5243,-0.5143,-0.5143,-0.5064,-0.5006,-0.5006,-0.5006,-0.5308,-0.5885,-0.5885,-0.6692,-0.4887,-0.5111,-0.5344,-0.5344,-0.5586,-0.5866,0.0,-0.6282,-0.6489,-0.6523,-0.6694,-0.6819,-0.6848,-0.6991,-0.7096,-0.7095,-0.7217,-0.7272,-0.7139,-0.7095,-0.7577,-0.893,-0.8978,-0.9021,-0.9235,-0.9148,-0.8623,-0.7573,-0.7489,-0.7445,-0.7316,-0.7401,-0.7356,-0.7095,-0.7228,-0.7316,-0.7316,-0.7316,-0.736,-0.7489,-0.8584,-0.9104,-0.9104,-1.0139,-1.0053,-0.9104,-0.9104,-0.9749,-1.0783,-1.0956,-1.0913,-1.0783,-1.0654,-0.9966,-0.8934,-0.7753,-0.7228,-0.7095,-0.7095,-0.7095,-0.7095,-0.7095,-0.7095,-0.7095,-0.7095,-0.7095,-0.7095,-0.7095,-0.7095,-0.7095,-0.7095,-0.7095,-0.7095,-0.7095,-0.7095,-0.7095,-0.7095,-0.7085,-0.7071,-0.7071,-0.6957,-0.6859,-0.6859,-0.6776,-0.6665,-0.6631,-0.6535,-0.6795,-0.7668,-0.7022,-0.6749,-0.7524,-0.6633,-0.5932,-0.5813,-0.5786,-0.5718,-0.5576,-0.5562,-0.5539,-0.5399,-0.5378,-0.5368,-0.5368,-0.5354,-0.5344,-0.5344,-0.5344,-0.5377,-0.5475,-0.5475,-0.6113,-0.5284,-0.546,-0.564,-0.5728,-0.5911,-0.6146,-0.6254,-0.6407,-0.6559,-0.6709,-0.679,-0.6878,-0.698,-0.7007,-0.7028,-0.7088,-0.7095,-0.7095,-0.7095,-0.7095,-0.7272,-0.7797,-0.7841,-0.8145,-0.8846,-0.8277,-0.7621,-0.7139,-0.7095,-0.7095,-0.7095,-0.7095,-0.7095,-0.7095,-0.7095,-0.7095,-0.7095,-0.7095,-0.7095,-0.7095,-0.7621,-0.7841,-0.7885,-0.836,-0.8317,-0.7885,-0.8584,-0.9148,-0.9666,-1.0308,-1.0221,-0.9623,-0.9623,-0.8882,-0.7885,-0.8057,-0.7709,-0.7095,-0.7095,-0.7095,-0.7095,-0.7095,-0.7095,-0.7095,-0.7095,-0.7095,-0.7095,-0.7095,-0.7095,-0.7095,-0.7095,-0.7095,-0.7095,-0.7095,-0.7095,-0.7095,-0.7095,-0.7095,-0.7095,-0.7095,-0.7048,-0.7007,-0.7007,-0.6886,-0.681,-0.6749,-0.6614,-0.6642,-0.7017,-0.6695,-0.6545,-0.688,-0.6468,-0.6101,-0.5945,-0.5899,-0.5871,-0.5722,-0.5711,-0.5684,-0.562,-0.5573,-0.5528,-0.5528,-0.544,-0.5395,-0.5395,-0.5395,-0.5395,-0.5395,-0.5395,-0.565,-0.5606,-0.5786,-0.5956,-0.6064,-0.6237,-0.646,-0.6566,-0.6685,-0.6807,-0.6913,-0.6943,-0.6974,-0.7078,-0.7095,-0.7095,-0.7095,-0.7095,-0.7095,-0.7095,-0.7095,-0.7095,-0.7095,-0.7095,-0.7445,-0.8321,-0.7621,-0.7095,-0.7095,-0.7095,-0.7112,-0.7204,-0.7204,-0.7179,-0.722,-0.7223,-0.7223,-0.7223,-0.7179,-0.7204,-0.7204,-0.7115,-0.7095,-0.7095,-0.7095,-0.7095,-0.7139,-0.8013,-0.8408,-0.8452,-0.9314,-0.9139,-0.8408,-0.8408,-0.7885,-0.7183,-0.8101,-0.7841,-0.7095,-0.7095,-0.7095,-0.7095,-0.7095,-0.7095,-0.7095,-0.7095,-0.7095,-0.7095,-0.7095,-0.7095,-0.7095,-0.7095,-0.7095,-0.7095,-0.7095,-0.7095,-0.7095,-0.7095,-0.7095,-0.7095,-0.7095,-0.7095,-0.7095,-0.7095,-0.7011,-0.6943,-0.6943,-0.6892,-0.6753,-0.6559,-0.6538,-0.6457,-0.6317,-0.63,-0.6252,-0.6101,-0.6095,-0.6027,-0.5874,-0.5864,-0.5844,-0.5803,-0.5701,-0.5647,-0.5647,-0.5573,-0.5518,-0.5518,-0.5518,-0.5518,-0.5515,-0.5477,-0.5457,-0.5755,-0.6017,-0.6286,-0.6289,-0.6471,-0.6725,-0.6836,-0.6876,-0.692,-0.7061,-0.7088,-0.7092,-0.7095,-0.7095,-0.7095,-0.7095,-0.7095,-0.7095,-0.7095,-0.7095,-0.7095,-0.7095,-0.7095,-0.7095,-0.7139,-0.7139,-0.7095,-0.7095,-0.7095,-0.7207,-0.7402,-0.7409,-0.7434,-0.758,-0.7587,-0.7587,-0.7587,-0.7438,-0.7409,-0.7409,-0.721,-0.7095,-0.7095,-0.7095,-0.7095,-0.7095,-0.7139,-0.7139,-0.7139,-0.7183,-0.7183,-0.7139,-0.7139,-0.7139,-0.7095,-0.7139,-0.7139,-0.7095,-0.7095,-0.7095,-0.7095,-0.7095,-0.7095,-0.7095,-0.7095,-0.7095,-0.7095,-0.7095,-0.7095,-0.7095,-0.7095,-0.7095,-0.7095,-0.7095,-0.7095,-0.7095,-0.7095,-0.7095,-0.7095,-0.7095,-0.7095,-0.7095,-0.7095,-0.7092,-0.7088,-0.7088,-0.7085,-0.6977,-0.6729,-0.6563,-0.6457,-0.6317,-0.63,-0.6296,-0.6293,-0.6293,-0.6186,-0.5996,-0.5986,-0.5919,-0.5806,-0.5796,-0.5793,-0.5793,-0.5789,-0.5786,-0.5786,-0.5786,-0.5786,-0.5786,-0.5647,-0.5583,-0.6064,-0.6289,-0.6491,-0.6654,-0.678,-0.6849,-0.6994,-0.7024,-0.7038,-0.7085,-0.7095,-0.7095,-0.7095,-0.7095,-0.7095,-0.7095,-0.7095,-0.7095,-0.7095,-0.7095,-0.7095,-0.7095,-0.7095,-0.7095,-0.7095,-0.7095,-0.7095,-0.7095,-0.7238,-0.7316,-0.7412,-0.7468,-0.7546,-0.7597,-0.76,-0.76,-0.76,-0.755,-0.7522,-0.7519,-0.7366,-0.7241,-0.7095,-0.7095,-0.7095,-0.7095,-0.7095,-0.7095,-0.7102,-0.7251,-0.7292,-0.7292,-0.7292,-0.7292,-0.7282,-0.7132,-0.7095,-0.7095,-0.7095,-0.7095,-0.7095,-0.7095,-0.7095,-0.7095,-0.7095,-0.7095,-0.7095,-0.7095,-0.7095,-0.7095,-0.7095,-0.7095,-0.7095,-0.7095,-0.7095,-0.7095,-0.7095,-0.7095,-0.7095,-0.7095,-0.7095,-0.7095,-0.7095,-0.7095,-0.7095,-0.7095,-0.7018,-0.692,-0.6822,-0.6719,-0.6566,-0.6457,-0.6443,-0.6402,-0.631,-0.63,-0.6276,-0.6186,-0.6183,-0.6197,-0.6146,-0.6006,-0.5915,-0.5915,-0.585,-0.58,-0.58,-0.58,-0.58,-0.58,-0.5752,-0.5732,-0.6334,-0.6521,-0.6681,-0.6836,-0.6923,-0.6984,-0.7075,-0.7095,-0.7095,-0.7095,-0.7095,-0.7095,-0.7095,-0.7095,-0.7095,-0.7095,-0.7095,-0.7095,-0.7095,-0.7095,-0.7095,-0.7095,-0.7095,-0.7095,-0.7095,-0.7146,-0.7221,-0.7221,-0.7316,-0.7463,-0.7522,-0.7621,-0.7699,-0.7753,-0.7756,-0.7756,-0.7756,-0.7702,-0.7648,-0.7597,-0.7499,-0.74,-0.726,-0.726,-0.726,-0.726,-0.726,-0.726,-0.7312,-0.7411,-0.7451,-0.7451,-0.7451,-0.7451,-0.7441,-0.7343,-0.7268,-0.7214,-0.7115,-0.7095,-0.7095,-0.7095,-0.7095,-0.7095,-0.7095,-0.7095,-0.7095,-0.7095,-0.7095,-0.7095,-0.7095,-0.7095,-0.7095,-0.7095,-0.7095,-0.7095,-0.7095,-0.7095,-0.7095,-0.7095,-0.7095,-0.7095,-0.7095,-0.7095,-0.7095,-0.7095,-0.7018,-0.6943,-0.6893,-0.6844,-0.6722,-0.6569,-0.6552,-0.6519,-0.6467,-0.6409,-0.6375,-0.6375,-0.6327,-0.63,-0.63,-0.6166,-0.6112,-0.6112,-0.6013,-0.5966,-0.5966,-0.5966,-0.5966,-0.5962,-0.5908,-0.5881,-0.6494,-0.6709,-0.6886,-0.6896,-0.6997,-0.7095,-0.7095,-0.7092,-0.7085,-0.7085,-0.7078,-0.7071,-0.7071,-0.7082,-0.7085,-0.7085,-0.7092,-0.7095,-0.7095,-0.7095,-0.7095,-0.7095,-0.7102,-0.7109,-0.7109,-0.7292,-0.7433,-0.7439,-0.7439,-0.7516,-0.7797,-0.7818,-0.7889,-0.7985,-0.7988,-0.7988,-0.7988,-0.7896,-0.775,-0.7611,-0.7611,-0.7607,-0.76,-0.76,-0.76,-0.76,-0.76,-0.76,-0.76,-0.7607,-0.7611,-0.7611,-0.7611,-0.7611,-0.7611,-0.7604,-0.7509,-0.7363,-0.7169,-0.7109,-0.7095,-0.7095,-0.7095,-0.7095,-0.7095,-0.7095,-0.7095,-0.7095,-0.7095,-0.7095,-0.7095,-0.7095,-0.7095,-0.7095,-0.7095,-0.7095,-0.7095,-0.7095,-0.7095,-0.7095,-0.7095,-0.7095,-0.7095,-0.7095,-0.7095,-0.7095,-0.7095,-0.7048,-0.6913,-0.6896,-0.6839,-0.6729,-0.6712,-0.6709,-0.6702,-0.6566,-0.6525,-0.6525,-0.6388,-0.631,-0.631,-0.6303,-0.63,-0.63,-0.63,-0.63,-0.63,-0.63,-0.63,-0.6296,-0.6108,-0.6003,-0.6742,-0.6868,-0.691,-0.7014,-0.7068,-0.7095,-0.7095,-0.7014,-0.694,-0.694,-0.6892,-0.6814,-0.6814,-0.6862,-0.694,-0.694,-0.7028,-0.7095,-0.7095,-0.7095,-0.7095,-0.7095,-0.7241,-0.7312,-0.7312,-0.7451,-0.7587,-0.7692,-0.7699,-0.7733,-0.7807,-0.787,-0.7948,-0.7988,-0.7988,-0.7988,-0.7988,-0.7951,-0.7906,-0.7756,-0.7756,-0.7702,-0.76,-0.76,-0.76,-0.76,-0.76,-0.76,-0.7607,-0.7712,-0.7756,-0.7756,-0.7756,-0.7756,-0.7743,-0.7638,-0.7577,-0.7536,-0.7495,-0.7287,-0.7095,-0.7095,-0.7095,-0.7095,-0.7095,-0.7095,-0.7095,-0.7095,-0.7095,-0.7095,-0.7095,-0.7095,-0.7095,-0.7095,-0.7095,-0.7095,-0.7095,-0.7095,-0.7095,-0.7095,-0.7095,-0.7095,-0.7095,-0.7095,-0.7095,-0.7095,-0.7095,-0.7085,-0.7048,-0.7041,-0.6987,-0.6846,-0.6829,-0.6824,-0.6712,-0.6664,-0.6644,-0.6644,-0.6542,-0.6457,-0.6457,-0.6358,-0.63,-0.63,-0.63,-0.63,-0.63,-0.63,-0.63,-0.6296,-0.6259,-0.6242,-0.6865,-0.693,-0.6997,-0.7078,-0.7095,-0.7082,-0.7018,-0.6943,-0.6866,-0.6844,-0.6759,-0.6702,-0.6702,-0.677,-0.6851,-0.6876,-0.6953,-0.7024,-0.7088,-0.7095,-0.7095,-0.7095,-0.7278,-0.7415,-0.7415,-0.7567,-0.7726,-0.7804,-0.7811,-0.7841,-0.7909,-0.7941,-0.7988,-0.7988,-0.7988,-0.7988,-0.7988,-0.7988,-0.7944,-0.7913,-0.7913,-0.7868,-0.7794,-0.7794,-0.7794,-0.7794,-0.7794,-0.7794,-0.7797,-0.7879,-0.7913,-0.7913,-0.7913,-0.7913,-0.7902,-0.7821,-0.775,-0.7692,-0.7692,-0.7539,-0.7333,-0.7261,-0.7149,-0.7095,-0.7095,-0.7095,-0.7095,-0.7095,-0.7095,-0.7095,-0.7095,-0.7095,-0.7095,-0.7095,-0.7095,-0.7095,-0.7095,-0.7095,-0.7095,-0.7095,-0.7095,-0.7095,-0.7095,-0.7095,-0.7095,-0.7095,-0.7095,-0.7095,-0.7095,-0.7095,-0.7065,-0.6987,-0.6977,-0.6943,-0.6902,-0.6837,-0.68,-0.68,-0.6658,-0.6573,-0.6573,-0.6495,-0.6463,-0.6395,-0.6395,-0.6361,-0.63,-0.63,-0.63,-0.63,-0.63,-0.63,-0.6866,-0.7004,-0.7095,-0.7095,-0.7082,-0.7038,-0.6913,-0.6856,-0.6824,-0.6675,-0.6627,-0.6614,-0.6614,-0.6627,-0.6698,-0.6829,-0.6873,-0.6933,-0.7078,-0.7095,-0.7095,-0.7095,-0.7295,-0.7446,-0.7446,-0.7668,-0.7841,-0.7841,-0.7841,-0.7899,-0.7982,-0.7988,-0.7988,-0.7988,-0.7988,-0.7988,-0.7988,-0.7988,-0.7988,-0.7988,-0.7988,-0.7988,-0.7988,-0.7988,-0.7988,-0.7988,-0.7988,-0.7988,-0.7988,-0.7988,-0.7988,-0.7988,-0.7988,-0.7988,-0.7988,-0.7988,-0.7907,-0.7841,-0.7841,-0.7746,-0.76,-0.7428,-0.7282,-0.7122,-0.7102,-0.7095,-0.7095,-0.7095,-0.7095,-0.7095,-0.7095,-0.7095,-0.7095,-0.7095,-0.7095,-0.7095,-0.7095,-0.7095,-0.7095,-0.7095,-0.7095,-0.7095,-0.7095,-0.7095,-0.7095,-0.7095,-0.7095,-0.7095,-0.7095,-0.7095,-0.7095,-0.7095,-0.7095,-0.7095,-0.7095,-0.6984,-0.6913,-0.6913,-0.6814,-0.6729,-0.6729,-0.6712,-0.6637,-0.6545,-0.6542,-0.648,-0.6358,-0.6337,-0.6327,-0.6327,-0.631,-0.63,-0.6987,-0.7078,-0.7095,-0.7095,-0.7007,-0.6916,-0.6889,-0.6732,-0.6552,-0.6405,-0.6234,-0.6107,-0.6107,-0.6251,-0.6467,-0.6698,-0.6848,-0.6933,-0.7078,-0.7095,-0.7095,-0.7095,-0.739,-0.756,-0.756,-0.7828,-0.7948,-0.7948,-0.7948,-0.7961,-0.7988,-0.7988,-0.7988,-0.7988,-0.7988,-0.7988,-0.7988,-0.7988,-0.7988,-0.7988,-0.7988,-0.7988,-0.7988,-0.7988,-0.7988,-0.7988,-0.7988,-0.7988,-0.7988,-0.7988,-0.7988,-0.7988,-0.7988,-0.7988,-0.7988,-0.7988,-0.7971,-0.7948,-0.7948,-0.7899,-0.7729,-0.7458,-0.7353,-0.7309,-0.7136,-0.7095,-0.7095,-0.7095,-0.7095,-0.7095,-0.7095,-0.7095,-0.7095,-0.7095,-0.7095,-0.7095,-0.7095,-0.7095,-0.7095,-0.7095,-0.7095,-0.7095,-0.7095,-0.7095,-0.7095,-0.7095,-0.7095,-0.7095,-0.7095,-0.7095,-0.7095,-0.7095,-0.7095,-0.7095,-0.7095,-0.7071,-0.7058,-0.7058,-0.6927,-0.6846,-0.6846,-0.6766,-0.6688,-0.6661,-0.6661,-0.6651,-0.6624,-0.6538,-0.6474,-0.6474,-0.6354,-0.63,-0.7014,-0.7095,-0.7078,-0.7004,-0.6937,-0.6846,-0.6725,0.0,-0.6361,-0.6173,-0.6017,-0.5911,-0.5911,-0.6037,-0.6213,-0.6434,-0.6661,-0.6861,-0.6967,-0.7051,-0.7095,-0.7095,-0.7343,-0.7512,-0.7594,-0.7794,-0.7904,-0.7985,-0.7988,-0.7988,-0.7988,-0.7988,-0.7988,-0.7988,-0.7988,-0.7988,-0.7988,-0.7988,-0.7988,-0.7988,-0.7988,-0.7988,-0.7988,-0.7988,-0.7988,-0.7988,-0.7988,-0.7988,-0.7988,-0.7988,-0.7988,-0.7988,-0.7988,-0.7988,-0.7988,-0.7988,-0.7988,-0.7988,-0.7988,-0.7941,-0.7892,-0.7672,-0.755,-0.7461,-0.7305,-0.7261,-0.7244,-0.7119,-0.7095,-0.7095,-0.7095,-0.7095,-0.7095,-0.7095,-0.7095,-0.7095,-0.7095,-0.7095,-0.7095,-0.7095,-0.7095,-0.7095,-0.7095,-0.7095,-0.7095,-0.7095,-0.7095,-0.7095,-0.7095,-0.7095,-0.7095,-0.7095,-0.7095,-0.7095,-0.7095,-0.7095,-0.7095,-0.7095,-0.7034,-0.6994,-0.6994,-0.6923,-0.6895,-0.682,-0.682,-0.678,-0.6702,-0.6627,-0.659,-0.6586,-0.648,-0.6409,-0.6977,-0.7051,-0.7024,-0.6913,-0.6836,-0.6759,-0.6528,-0.6354,-0.6159,-0.5973,-0.584,-0.5755,-0.5755,-0.5878,-0.6044,-0.6269,-0.6508,-0.6753,-0.6866,-0.7007,-0.7095,-0.7095,-0.7278,-0.7431,-0.7587,-0.7729,-0.7875,-0.7978,-0.7988,-0.7988,-0.7988,-0.7988,-0.7988,-0.7988,-0.7988,-0.7988,-0.7988,-0.7988,-0.7988,-0.7988,-0.7988,-0.7988,-0.7988,-0.7988,-0.7988,-0.7988,-0.7988,-0.7988,-0.7988,-0.7988,-0.7988,-0.7988,-0.7988,-0.7988,-0.7988,-0.7988,-0.7988,-0.7988,-0.7988,-0.7988,-0.7971,-0.7899,-0.7763,-0.7617,-0.7465,-0.7421,-0.739,-0.7231,-0.7146,-0.7139,-0.7105,-0.7095,-0.7095,-0.7095,-0.7095,-0.7095,-0.7095,-0.7095,-0.7095,-0.7095,-0.7095,-0.7095,-0.7095,-0.7095,-0.7095,-0.7095,-0.7095,-0.7095,-0.7095,-0.7095,-0.7095,-0.7095,-0.7095,-0.7095,-0.7095,-0.7095,-0.7095,-0.7095,-0.7095,-0.7095,-0.7095,-0.7095,-0.7045,-0.6933,-0.693,-0.6873,-0.6797,-0.6763,-0.6749,-0.6746,-0.6593,-0.6562,-0.6859,-0.6906,-0.6903,-0.6889,-0.6719,-0.6515,-0.6354,0.0,-0.5969,-0.5688,-0.562,-0.561,-0.561,-0.5725,-0.5918,-0.6252,-0.6508,-0.6753,-0.6866,-0.7007,-0.7095,-0.7095,-0.7278,-0.7431,-0.7587,-0.7729,-0.7875,-0.7978,-0.7988,-0.7988,-0.7988,-0.7988,-0.7988,-0.7988,-0.7988,-0.7988,-0.7988,-0.7988,-0.7988,-0.7988,-0.7988,-0.7988,-0.7988,-0.7988,-0.7988,-0.7988,-0.7988,-0.7988,-0.7988,-0.7988,-0.7988,-0.7988,-0.7988,-0.7988,-0.7988,-0.7988,-0.7988,-0.7988,-0.7988,-0.7988,-0.7988,-0.7975,-0.7867,-0.7767,-0.7624,-0.758,-0.7546,-0.7394,-0.735,-0.7319,-0.7132,-0.7095,-0.7095,-0.7095,-0.7095,-0.7095,-0.7095,-0.7095,-0.7095,-0.7095,-0.7095,-0.7095,-0.7095,-0.7095,-0.7095,-0.7095,-0.7095,-0.7095,-0.7095,-0.7095,-0.7095,-0.7095,-0.7095,-0.7095,-0.7095,-0.7095,-0.7095,-0.7095,-0.7095,-0.7095,-0.7095,-0.7095,-0.7092,-0.7078,-0.7078,-0.7068,-0.7055,-0.6927,-0.6866,-0.6862,-0.6753,-0.6678,-0.6725,-0.6793,-0.677,-0.6678,-0.6498,-0.6344,-0.6156,0.0,-0.5732,-0.5613,-0.5549,-0.5487,-0.5487,-0.5576,-0.5742,-0.5949,0.0,0.0,-0.6759,-0.6876,-0.7001,-0.7085,-0.7149,-0.7329,-0.7573,-0.7651,-0.7784,-0.7971,-0.7988,-0.7988,-0.7988,-0.7988,-0.7988,-0.7988,-0.7988,-0.7988,-0.7988,-0.7988,-0.7988,-0.7988,-0.7988,-0.7988,-0.7988,-0.7988,-0.7988,-0.7988,-0.7988,-0.7988,-0.7988,-0.7988,-0.7988,-0.7988,-0.7988,-0.7988,-0.7988,-0.7988,-0.7988,-0.7988,-0.7988,-0.7988,-0.7988,-0.7988,-0.7948,-0.787,-0.7773,-0.7726,-0.7695,-0.755,-0.7509,-0.7495,-0.7434,-0.7417,-0.7394,-0.7302,-0.7278,-0.7255,-0.7115,-0.7095,-0.7095,-0.7095,-0.7095,-0.7095,-0.7095,-0.7095,-0.7095,-0.7095,-0.7095,-0.7095,-0.7095,-0.7095,-0.7095,-0.7095,-0.7095,-0.7095,-0.7095,-0.7095,-0.7095,-0.7095,-0.7095,-0.7095,-0.7095,-0.7095,-0.7095,-0.7095,-0.7095,-0.7095,-0.7095,-0.7041,-0.7011,-0.7007,-0.6862,-0.6837,-0.6502,-0.6536,-0.6488,-0.6463,-0.6303,-0.6122,-0.5932,0.0,-0.5579,-0.5532,-0.547,-0.5395,-0.5395,-0.5521,-0.5637,0.0,0.0,-0.6405,-0.6658,-0.6831,-0.694,-0.7078,-0.7095,-0.7216,-0.757,-0.7678,-0.7818,-0.7975,-0.7988,-0.7988,-0.7988,-0.7988,-0.7988,-0.7988,-0.7988,-0.7988,-0.7988,-0.7988,-0.7988,-0.7988,-0.7988,-0.7988,-0.7988,-0.7988,-0.7988,-0.7988,-0.7988,-0.7988,-0.7988,-0.7988,-0.7988,-0.7988,-0.7988,-0.7988,-0.7988,-0.7988,-0.7988,-0.7988,-0.7988,-0.7988,-0.7988,-0.7988,-0.7988,-0.7971,-0.7913,-0.7879,-0.7848,-0.7702,-0.7631,-0.76,-0.76,-0.76,-0.7573,-0.7465,-0.745,-0.7343,-0.7231,-0.7129,-0.7095,-0.7095,-0.6827,-0.6605,-0.6605,-0.6293,-0.6065,-0.6065,-0.6381,-0.6605,-0.6605,-0.6871,-0.7095,-0.7095,-0.7095,-0.7095,-0.7095,-0.7095,-0.7095,-0.7095,-0.7095,-0.7095,-0.7095,-0.7095,-0.7095,-0.7095,-0.7095,-0.7095,-0.7095,-0.7095,-0.7095,-0.7095,-0.6994,-0.6947,-0.6262,-0.6152,-0.6071,-0.6262,-0.6071,-0.5769,-0.5627,-0.5593,-0.5549,-0.5429,-0.5395,-0.5395,-0.5395,-0.5521,-0.5637,-0.5779,-0.6098,0.0,-0.6658,-0.6831,-0.694,-0.7078,-0.7095,-0.7216,-0.757,-0.7865,-0.7985,-0.7988,-0.7988,-0.7988,-0.7988,-0.7988,-0.7988,-0.7988,-0.7988,-0.7988,-0.7988,-0.7988,-0.7988,-0.7988,-0.7988,-0.7988,-0.7988,-0.7988,-0.7988,-0.7988,-0.7988,-0.7988,-0.7988,-0.7988,-0.7988,-0.7988,-0.7988,-0.7988,-0.7988,-0.7988,-0.7988,-0.7988,-0.7988,-0.7988,-0.7988,-0.7988,-0.7988,-0.7988,-0.7988,-0.7988,-0.7955,-0.7851,-0.7706,-0.76,-0.76,-0.76,-0.76,-0.7597,-0.7482,-0.7415,-0.7415,-0.7248,-0.7095,-0.7095,-0.6204,-0.5403,-0.5403,-0.4419,-0.3614,-0.3614,-0.4641,-0.5403,-0.5403,-0.6381,-0.7095,-0.7095,-0.7095,-0.7095,-0.7095,-0.7095,-0.7095,-0.7095,-0.7095,-0.7095,-0.7095,-0.7095,-0.7095,-0.7095,-0.7095,-0.7095,-0.7095,-0.7095,-0.7095,-0.7095,-0.7095,-0.7095,-0.5878,-0.5911,-0.5884,-0.5935,-0.58,-0.5644,-0.5599,-0.5542,-0.5453,-0.5405,-0.5395,-0.5395,-0.5395,-0.5436,-0.5549,-0.5762,-0.5881,0.0,-0.663,-0.6742,-0.6865,-0.7065,-0.728,-0.7492,-0.759,-0.7868,-0.7988,-0.7988,-0.7988,-0.7988,-0.7988,-0.7988,-0.7988,-0.7988,-0.7988,-0.7988,-0.7988,-0.7988,-0.7988,-0.7988,-0.7988,-0.7988,-0.7988,-0.7988,-0.7988,-0.7988,-0.7988,-0.7988,-0.7988,-0.7988,-0.7988,-0.7988,-0.7988,-0.7988,-0.7988,-0.7988,-0.7988,-0.7988,-0.7988,-0.7988,-0.7988,-0.7988,-0.7988,-0.7988,-0.7988,-0.7988,-0.7978,-0.7931,-0.7887,-0.785,-0.785,-0.785,-0.7875,-0.777,-0.7634,-0.7499,-0.7439,-0.7251,-0.6874,-0.6071,-0.5625,-0.5134,-0.433,-0.3838,-0.3614,-0.3614,-0.4641,-0.509,-0.4283,-0.522,-0.5622,-0.4816,-0.5442,-0.6248,-0.7051,-0.7095,-0.7095,-0.7095,-0.7095,-0.7095,-0.7095,-0.7095,-0.7095,-0.7095,-0.7095,-0.7095,-0.7095,-0.7095,-0.7095,-0.7095,-0.7095,-0.7095,-0.5538,-0.5637,-0.565,-0.5708,-0.561,0.0,-0.5539,-0.5386,-0.5324,-0.5382,-0.5347,-0.5324,-0.5385,-0.5395,-0.5491,-0.5752,-0.58,-0.601,-0.6617,-0.6702,-0.681,-0.7061,-0.7414,-0.76,-0.76,-0.7868,-0.7988,-0.7988,-0.7988,-0.7988,-0.7988,-0.7988,-0.7988,-0.7988,-0.7988,-0.7988,-0.7988,-0.7988,-0.7988,-0.7988,-0.7988,-0.7988,-0.7988,-0.7988,-0.7988,-0.7988,-0.7988,-0.7988,0.0,-0.7988,-0.7988,-0.7988,-0.7988,-0.7988,-0.7988,-0.7988,-0.7988,-0.7988,-0.7988,-0.7988,-0.7988,-0.7988,-0.7988,-0.7988,-0.7988,-0.7988,-0.7988,-0.7988,-0.7988,-0.7988,-0.7988,-0.7637,-0.7214,-0.7125,-0.6627,-0.6147,-0.607,-0.5918,-0.5575,-0.4865,-0.4332,-0.3798,-0.3037,-0.2547,-0.2236,-0.2236,-0.3261,-0.3751,-0.3037,-0.3972,-0.4419,-0.3659,-0.4283,-0.4999,-0.5708,-0.6201,-0.6473,-0.6473,-0.6473,-0.665,-0.7095,-0.7095,-0.7095,-0.7095,-0.7095,-0.7095,-0.7095,-0.7095,-0.7095,-0.7095,-0.7095,-0.7095,0.0,-0.5361,-0.5412,-0.5521,-0.5491,-0.5395,-0.5395,0.0,0.0,-0.5365,-0.5247,-0.5189,-0.5368,-0.5402,-0.5504,-0.5755,-0.582,-0.6037,-0.662,-0.6719,-0.6834,-0.7061,-0.74,-0.7587,-0.7597,-0.7855,-0.7978,-0.7988,-0.7988,-0.7988,-0.7988,-0.7978,-0.7975,-0.7975,-0.7965,-0.7968,-0.7988,-0.7988,-0.7988,-0.7988,-0.7988,-0.7988,-0.7988,-0.7988,-0.7988,-0.7988,-0.7988,-0.7988,-0.7988,-0.7988,-0.7988,-0.7988,-0.7988,-0.7988,-0.7988,-0.7889,-0.7839,-0.7839,-0.7736,-0.7736,-0.7736,-0.7736,-0.7736,-0.7736,-0.7736,-0.7786,-0.7839,-0.7839,-0.7789,-0.7736,-0.7736,-0.6781,-0.5879,-0.5879,-0.4783,-0.3798,-0.3798,-0.3677,-0.357,-0.3481,-0.2547,-0.179,-0.17,-0.0763,0.0,0.0,-0.1031,-0.179,-0.17,-0.2726,-0.3436,-0.3349,-0.3436,-0.3436,-0.3349,-0.4508,-0.527,-0.527,-0.527,-0.5758,-0.6827,-0.6871,-0.6871,-0.6871,-0.6871,-0.6871,-0.6871,-0.6871,-0.6915,-0.6962,-0.6962,-0.6962,-0.4849,0.0,-0.5192,-0.5197,-0.5301,-0.5395,0.0,0.0,0.0,0.0,0.0,0.0,0.0,-0.5491,-0.5593,-0.5772,-0.6,-0.632,-0.6651,-0.6895,-0.7018,-0.7088,-0.7309,-0.7472,-0.759,-0.776,-0.7913,-0.7982,-0.7988,-0.7988,-0.7988,-0.788,-0.7865,-0.7865,-0.776,-0.7811,-0.7988,-0.7988,-0.7988,-0.7988,-0.7988,-0.7988,-0.7988,-0.7988,-0.7988,-0.7988,-0.7988,-0.7988,-0.7988,-0.7988,-0.7988,-0.7988,-0.7988,-0.7988,-0.7889,-0.6833,-0.6481,-0.6329,-0.532,-0.4918,-0.4918,-0.4918,-0.4918,-0.4918,-0.4918,-0.5672,-0.6481,-0.6481,-0.5724,-0.4918,-0.4918,-0.4718,-0.4468,-0.4468,-0.4148,-0.3798,-0.3798,-0.3677,-0.3347,-0.2413,-0.2013,-0.1522,-0.0584,-0.018,0.0,0.0,-0.1031,-0.1478,-0.0539,-0.1478,-0.1879,-0.0942,-0.1656,-0.1835,-0.0942,-0.2815,-0.4016,-0.4016,-0.4016,-0.415,-0.4417,-0.4417,-0.4417,-0.4417,-0.4417,-0.4417,-0.4417,-0.4417,-0.4907,-0.5802,-0.5802,-0.5802,-0.4614,-0.4806,-0.5019,-0.5083,-0.5192,-0.5274,-0.5378,0.0,0.0,0.0,0.0,0.0,0.0,-0.5569,-0.5684,-0.5966,-0.619,-0.6426,-0.6753,-0.6957,-0.7095,-0.7095,-0.7278,-0.7431,-0.7587,-0.7668,-0.7777,-0.7874,-0.7875,-0.7838,-0.7838,-0.776,-0.7712,-0.7712,-0.7641,-0.7678,-0.7834,-0.7838,-0.7838,-0.7838,-0.7853,-0.7884,-0.7887,-0.7958,-0.7988,-0.7988,-0.7335,-0.7083,-0.7033,-0.6426,-0.6174,-0.6174,-0.6174,-0.6174,-0.6074,-0.5372,-0.5072,-0.497,-0.4268,-0.4016,-0.4016,-0.4016,-0.4016,-0.4016,-0.4016,-0.4067,-0.427,-0.492,-0.4568,-0.4016,-0.4016,-0.3566,-0.3058,-0.3081,-0.2572,-0.2039,-0.2067,-0.2013,-0.1745,-0.1121,-0.0986,-0.0762,-0.0135,0.0,0.0,0.0,-0.0539,-0.0718,-0.009,-0.0584,-0.0718,-0.009,-0.0584,-0.0718,-0.0045,-0.121,-0.2191,-0.2726,-0.2769,-0.3037,-0.357,-0.3614,-0.3614,-0.3614,-0.3614,-0.3614,-0.3614,-0.3614,-0.3927,-0.4554,-0.4554,-0.4554,-0.4491,-0.467,-0.4887,-0.5029,-0.5083,-0.514,-0.5358,0.0,0.0,0.0,0.0,0.0,0.0,-0.5627,0.0,-0.6235,-0.6358,-0.6505,-0.6862,-0.7021,-0.7095,-0.7095,-0.7255,-0.7397,-0.755,-0.7563,-0.7624,-0.777,-0.7668,-0.76,-0.76,-0.7577,-0.7563,-0.7563,-0.7543,-0.7529,-0.7529,-0.7577,-0.76,-0.76,-0.7723,-0.779,-0.7818,-0.7697,-0.7667,-0.7637,-0.6279,-0.5677,-0.5625,-0.4468,-0.4016,-0.4016,-0.4016,-0.4016,-0.3966,-0.3765,-0.3715,-0.3665,-0.3465,-0.3366,-0.3366,-0.3366,-0.3366,-0.3366,-0.3366,-0.2614,-0.1913,-0.3065,-0.3366,-0.3366,-0.3366,-0.2564,-0.1703,-0.1671,-0.0821,0.0,0.0,0.0,0.0,0.0,0.0,0.0,0.0,0.0,0.0,0.0,0.0,0.0,0.0,0.0,0.0,0.0,0.0,0.0,0.0,0.0,-0.0449,-0.1478,-0.1522,-0.1969,-0.2992,-0.3037,-0.3037,-0.3037,-0.3037,-0.3037,-0.3037,-0.3037,-0.3126,-0.3303,-0.3303,-0.3303,-0.4491,-0.4621,-0.4762,-0.4884,-0.5012,-0.514,0.0,0.0,0.0,0.0,0.0,0.0,0.0,-0.5793,-0.6027,-0.6269,-0.658,-0.6849,-0.7038,-0.7082,-0.7095,-0.7095,-0.7119,-0.7238,-0.739,-0.7453,-0.7468,-0.7621,-0.7611,-0.76,-0.76,-0.7478,-0.7453,-0.7453,-0.7278,-0.7166,-0.7166,-0.7468,-0.76,-0.76,-0.7624,-0.7695,-0.7762,-0.666,-0.6183,-0.6229,-0.487,-0.4316,-0.4268,-0.4066,-0.4016,-0.4016,-0.4016,-0.4016,-0.3865,-0.2715,-0.2314,-0.2163,-0.1008,-0.0605,-0.0605,-0.0605,-0.0605,-0.0605,-0.0605,-0.0454,-0.0353,-0.0555,-0.0605,-0.0605,-0.0605,-0.0454,-0.0301,-0.0296,-0.0145,0.0,0.0,0.0,0.0,0.0,0.0,0.0,0.0,0.0,0.0,0.0,0.0,0.0,0.0,0.0,0.0,0.0,0.0,0.0,0.0,0.0,-0.009,-0.0269,-0.0269,-0.0359,-0.0539,-0.0539,-0.0539,-0.0539,-0.0539,-0.0539,-0.0539,-0.0539,-0.1076,-0.2057,-0.2057,-0.2057,-0.4491,-0.4604,-0.4728,-0.488,-0.4992,-0.514,0.0,0.0,0.0,0.0,0.0,0.0,0.0,0.0,-0.6257,-0.6569,-0.6858,-0.7021,-0.7088,-0.7095,-0.7095,-0.7095,-0.7095,-0.72,-0.7402,-0.7295,-0.7309,-0.7465,-0.7397,-0.7353,-0.7353,-0.7285,-0.7248,-0.7248,-0.7132,-0.7095,-0.7095,-0.7233,-0.7353,-0.7353,-0.7434,-0.7509,-0.7577,-0.7035,-0.6852,-0.6877,-0.4798,-0.393,-0.3865,-0.2414,-0.1862,-0.1862,-0.1862,-0.1862,-0.1762,-0.1159,-0.0907,-0.0807,-0.0202,0.0,0.0,0.0,0.0,0.0,0.0,0.0,0.0,0.0,0.0,0.0,0.0,0.0,0.0,0.0,0.0,0.0,0.0,0.0,0.0,0.0,0.0,0.0,0.0,0.0,0.0,0.0,0.0,0.0,0.0,0.0,0.0,0.0,0.0,0.0,0.0,0.0,0.0,0.0,0.0,0.0,0.0,0.0,0.0,0.0,0.0,0.0,0.0,0.0,-0.0269,-0.0807,-0.0807,-0.0807,-0.4535,-0.4655,-0.4779,-0.4901,0.0,0.0,0.0,0.0,0.0,0.0,0.0,0.0,0.0,-0.6268,-0.6529,-0.6829,-0.7004,-0.7095,-0.7095,-0.7095,-0.7095,-0.7095,-0.7095,-0.7142,-0.7305,-0.721,-0.7146,-0.7309,-0.7207,-0.7095,-0.7095,-0.7095,-0.7095,-0.7095,-0.7095,-0.7095,-0.7095,-0.7095,-0.7095,-0.7098,-0.7261,-0.7336,-0.7373,-0.7164,-0.7004,-0.6741,-0.4339,-0.3254,-0.2897,-0.0855,0.0,0.0,0.0,0.0,0.0,0.0,0.0,0.0,0.0,0.0,0.0,0.0,0.0,0.0,0.0,0.0,0.0,0.0,0.0,0.0,0.0,0.0,0.0,0.0,0.0,0.0,0.0,0.0,0.0,0.0,0.0,0.0,0.0,0.0,0.0,0.0,0.0,0.0,0.0,0.0,0.0,0.0,0.0,0.0,0.0,0.0,0.0,0.0,0.0,0.0,0.0,0.0,0.0,0.0,0.0,0.0,0.0,0.0,0.0,0.0,0.0,0.0,-0.4665,-0.4785,-0.4908,-0.5049,-0.5093,0.0,-0.5504,-0.5583,0.0,-0.5759,0.0,0.0,0.0,-0.6593,-0.6849,-0.6879,-0.7004,-0.7095,-0.7095,-0.7095,-0.7095,-0.7095,-0.7095,-0.7098,-0.7112,-0.7102,-0.7102,-0.7112,-0.7102,-0.7095,-0.7095,-0.7095,-0.7095,-0.7095,-0.7095,-0.7095,-0.7095,-0.7095,-0.7095,-0.7095,-0.7105,-0.7231,-0.7373,-0.6136,-0.5041,-0.4,-0.2574,-0.1324,-0.0295,-0.01,0.0,0.0,0.0,0.0,0.0,0.0,0.0,0.0,0.0,0.0,0.0,0.0,0.0,0.0,0.0,0.0,0.0,0.0,0.0,0.0,0.0,0.0,0.0,0.0,0.0,0.0,0.0,0.0,0.0,0.0,0.0,0.0,0.0,0.0,0.0,0.0,0.0,0.0,0.0,0.0,0.0,0.0,0.0,0.0,0.0,0.0,0.0,0.0,0.0,0.0,0.0,0.0,0.0,0.0,0.0,0.0,0.0,0.0,0.0,0.0,0.0,0.0,-0.4679,-0.4802,-0.4975,-0.5213,-0.5345,0.0,0.0,-0.5732,-0.5905,-0.6095,-0.6289,0.0,0.0,-0.6814,-0.6913,-0.7001,-0.7061,-0.7095,-0.7095,-0.7095,-0.7095,-0.7095,-0.7095,-0.7095,-0.7095,-0.7095,-0.7095,-0.7095,-0.7095,-0.7095,-0.7095,-0.7095,-0.7095,-0.7095,-0.7095,-0.7095,-0.7095,-0.7095,-0.6738,-0.6027,-0.6027,-0.6097,-0.6098,-0.4833,-0.411,-0.3728,-0.2399,-0.157,-0.1158,-0.0345,0.0,0.0,0.0,0.0,0.0,0.0,0.0,0.0,0.0,0.0,0.0,0.0,0.0,0.0,0.0,0.0,0.0,0.0,0.0,0.0,0.0,0.0,0.0,0.0,0.0,0.0,0.0,0.0,0.0,0.0,0.0,0.0,0.0,0.0,0.0,0.0,0.0,0.0,0.0,0.0,0.0,0.0,0.0,0.0,0.0,0.0,0.0,0.0,0.0,0.0,0.0,0.0,0.0,0.0,0.0,0.0,0.0,0.0,0.0,0.0,0.0,0.0,-0.3969,-0.4261,-0.4563,-0.4541,0.0,0.0,-0.5379,-0.5731,-0.6159,-0.6399,-0.6515,-0.6695,-0.6906,-0.6953,-0.6984,-0.7082,-0.7095,-0.7095,-0.7095,-0.7095,-0.7095,-0.7095,-0.7095,-0.7095,-0.7095,-0.7095,-0.7095,-0.7095,-0.7095,-0.7095,-0.7095,-0.7095,-0.7095,-0.7095,-0.7095,-0.6918,-0.6561,-0.6561,-0.598,-0.4821,-0.4465,-0.4465,-0.4821,-0.3972,-0.3464,-0.3105,-0.2209,-0.1629,-0.1275,-0.0386,0.0,0.0,0.0,0.0,0.0,0.0,0.0,0.0,0.0,0.0,0.0,0.0,0.0,0.0,0.0,0.0,0.0,0.0,0.0,0.0,0.0,0.0,0.0,0.0,0.0,0.0,0.0,0.0,0.0,0.0,0.0,0.0,0.0,0.0,0.0,0.0,0.0,0.0,0.0,0.0,0.0,0.0,0.0,0.0,0.0,0.0,0.0,0.0,0.0,0.0,0.0,0.0,0.0,0.0,0.0,0.0,0.0,0.0,0.0,0.0,0.0,0.0,-0.2447,-0.3136,-0.3612,-0.2872,0.0,0.0,-0.487,-0.5515,-0.6385,-0.6641,-0.6824,-0.693,-0.7068,-0.7095,-0.7095,-0.7095,-0.7095,-0.7095,-0.7095,-0.7095,-0.7095,-0.7095,-0.7095,-0.7095,-0.7095,-0.7095,-0.7095,-0.7095,-0.7095,-0.7095,-0.7095,-0.7095,-0.7095,-0.7095,-0.7095,-0.6561,-0.5403,-0.5403,-0.4776,-0.357,-0.237,-0.2413,-0.357,-0.357,-0.2903,-0.1792,-0.1784,-0.1108,0.0,0.0,0.0,0.0,0.0,0.0,0.0,0.0,0.0,0.0,0.0,0.0,0.0,0.0,0.0,0.0,0.0,0.0,0.0,0.0,0.0,0.0,0.0,0.0,0.0,0.0,0.0,0.0,0.0,0.0,0.0,0.0,0.0,0.0,0.0,0.0,0.0,0.0,0.0,0.0,0.0,0.0,0.0,0.0,0.0,0.0,0.0,0.0,0.0,0.0,0.0,0.0,0.0,0.0,0.0,0.0,0.0,0.0,0.0,0.0,0.0,0.0,0.0,0.0,-0.2431,-0.2694,-0.2891,-0.2864,0.0,0.0,0.0,-0.5146,0.0,0.0,-0.6933,-0.6825,-0.6065,-0.5894,-0.5894,-0.5894,-0.5894,-0.6204,-0.7007,-0.7095,-0.7095,-0.7095,-0.7095,-0.7095,-0.7095,-0.7095,-0.6782,-0.5983,-0.5894,-0.5894,-0.5894,-0.5894,-0.6293,-0.7095,-0.6337,-0.5758,-0.5403,-0.4552,-0.3527,-0.2325,-0.1969,-0.1969,-0.2324,-0.1433,-0.0852,-0.0539,-0.0542,-0.0317,0.0,0.0,0.0,0.0,0.0,0.0,0.0,0.0,0.0,0.0,0.0,0.0,0.0,0.0,0.0,0.0,0.0,0.0,0.0,0.0,0.0,0.0,0.0,0.0,0.0,0.0,0.0,0.0,0.0,0.0,0.0,0.0,0.0,0.0,0.0,0.0,0.0,0.0,0.0,0.0,0.0,0.0,0.0,0.0,0.0,0.0,0.0,0.0,0.0,0.0,0.0,0.0,0.0,0.0,0.0,0.0,0.0,0.0,0.0,0.0,0.0,0.0,0.0,0.0,-0.1465,-0.1766,-0.1972,-0.1793,-0.234,-0.2978,-0.3313,0.0,0.0,0.0,-0.6728,-0.6738,-0.5628,-0.5403,-0.5225,-0.4776,-0.4688,-0.491,-0.562,-0.5708,-0.5708,-0.5708,-0.5708,-0.5708,-0.5708,-0.5708,-0.5442,-0.473,-0.4688,-0.491,-0.5359,-0.4956,-0.522,-0.6381,-0.5309,-0.4465,-0.3976,-0.3261,-0.2281,-0.1076,-0.1076,-0.1076,-0.1076,-0.0314,0.0,0.0,0.0,0.0,0.0,0.0,0.0,0.0,0.0,0.0,0.0,0.0,0.0,0.0,0.0,0.0,0.0,0.0,0.0,0.0,0.0,0.0,0.0,0.0,0.0,0.0,0.0,0.0,0.0,0.0,0.0,0.0,0.0,0.0,0.0,0.0,0.0,0.0,0.0,0.0,0.0,0.0,0.0,0.0,0.0,0.0,0.0,0.0,0.0,0.0,0.0,0.0,0.0,0.0,0.0,0.0,0.0,0.0,0.0,0.0,0.0,0.0,0.0,0.0,0.0,0.0,0.0,0.0,0.0,-0.0581,-0.0991,-0.018,-0.1327,-0.2727,-0.304,-0.4098,-0.509,-0.5223,-0.6068,-0.6425,-0.5267,-0.509,-0.4732,-0.3616,-0.3436,-0.3481,-0.357,-0.3614,-0.3614,-0.3614,-0.3614,-0.3614,-0.3614,-0.3614,-0.357,-0.3436,-0.3525,-0.4061,-0.5179,-0.4194,-0.415,-0.5359,-0.4107,-0.2903,-0.179,-0.17,-0.1076,0.0,0.0,0.0,0.0,0.0,0.0,0.0,0.0,0.0,0.0,0.0,0.0,0.0,0.0,0.0,0.0,0.0,0.0,0.0,0.0,0.0,0.0,0.0,0.0,0.0,0.0,0.0,0.0,0.0,0.0,0.0,0.0,0.0,0.0,0.0,0.0,0.0,0.0,0.0,0.0,0.0,0.0,0.0,0.0,0.0,0.0,0.0,0.0,0.0,0.0,0.0,0.0,0.0,0.0,0.0,0.0,0.0,0.0,0.0,0.0,0.0,0.0,0.0,0.0,0.0,0.0,0.0,0.0,0.0,0.0,0.0,0.0,0.0,0.0,-0.0133,0.0,-0.0036,-0.0312,-0.063,-0.0706,-0.1696,-0.2861,-0.3794,-0.4194,-0.3972,-0.2815,-0.2593,-0.2504,-0.2236,-0.2191,-0.2503,-0.3481,-0.3614,-0.3614,-0.3614,-0.3614,-0.3614,-0.3614,-0.3614,-0.3213,-0.2236,-0.3081,-0.3703,-0.3972,-0.3748,-0.415,-0.5359,-0.3306,-0.2057,-0.179,-0.0852,-0.0269,0.0,0.0,0.0,0.0,0.0,0.0,0.0,0.0,0.0,0.0,0.0,0.0,0.0,0.0,0.0,0.0,0.0,0.0,0.0,0.0,0.0,0.0,0.0,0.0,0.0,0.0,0.0,0.0,0.0,0.0,0.0,0.0,0.0,0.0,0.0,0.0,0.0,0.0,0.0,0.0,0.0,0.0,0.0,0.0,0.0,0.0,0.0,0.0,0.0,0.0,0.0,0.0,0.0,0.0,0.0,0.0,0.0,0.0,0.0,0.0,0.0,0.0,0.0,0.0,0.0,0.0,0.0,0.0,0.0,0.0,0.0,0.0,0.0,0.0,0.0,0.0,0.0,0.0,0.0,0.0,-0.049,-0.1121,-0.1746,-0.2814,-0.3215,-0.2013,-0.179,-0.1612,-0.1031,-0.0942,-0.1165,-0.179,-0.1879,-0.1879,-0.1879,-0.1879,-0.1879,-0.1879,-0.2413,-0.2236,-0.1031,-0.2057,-0.2726,-0.2726,-0.2191,-0.2415,-0.3619,-0.188,-0.0942,-0.0942,-0.0314,0.0,0.0,0.0,0.0,0.0,0.0,0.0,0.0,0.0,0.0,0.0,0.0,0.0,0.0,0.0,0.0,0.0,0.0,0.0,0.0,0.0,0.0,0.0,0.0,0.0,0.0,0.0,0.0,0.0,0.0,0.0,0.0,0.0,0.0,0.0,0.0,0.0,0.0,0.0,0.0,0.0,0.0,0.0,0.0,0.0,0.0,0.0,0.0,0.0,0.0,0.0,0.0,0.0,0.0,0.0,0.0,0.0,0.0,0.0225,0.0807,0.0314,0.0269,0.0852,0.0314,0.0,0.0,0.0,0.0,0.0,0.0,0.0,0.0,0.0,0.0,0.0,0.0,0.0,0.0,0.0,0.0,0.0,0.0,0.0,0.0,-0.1567,-0.2681,-0.1656,-0.1478,-0.1165,-0.018,0.0,0.0,0.0,0.0,0.0,0.0,0.0,0.0,0.0,-0.0897,-0.1076,-0.009,-0.1121,-0.179,-0.179,-0.0852,-0.0762,-0.179,-0.0628,0.0,0.0,0.0,0.0,0.0,0.0,0.0,0.0,0.0,0.0,0.0,0.0,0.0,0.0,0.0,0.0,0.0,0.0,0.0,0.0,0.0,0.0,0.0,0.0,0.0,0.0,0.0,0.0,0.0,0.0,0.0,0.0,0.0,0.0,0.0,0.0,0.0,0.0,0.0,0.0,0.0,0.0,0.0,0.0,0.0,0.0,0.0,0.0,0.0,0.009,0.0269,0.0314,0.0404,0.0583,0.0628,0.0628,0.0628,0.0628,0.0628,0.0628,0.0628,0.1031,0.2057,0.1165,0.1076,0.2057,0.1165,0.0628,0.0628,0.0225,0.0,0.0,0.0225,0.0225,0.0,0.0225,0.018,0.0,0.0,0.0,0.0,0.0,0.0,0.0,0.0,0.0,0.0,-0.0269,-0.0449,-0.0269,-0.0225,-0.018,-0.0045,0.0,0.0,0.0,0.0,0.0,0.0,0.0,0.0,0.0,-0.0135,-0.018,0.0,-0.1121,-0.179,-0.179,-0.1657,-0.1612,-0.179,-0.0628,0.0,0.0,0.0,0.0,0.0,0.0,0.0,0.0,0.0,0.0,0.0,0.0,0.0,0.0,0.0,0.0,0.0,0.0,0.0,0.0,0.0,0.0,0.0,0.0,0.0,0.0,0.0,0.0,0.0,0.0,0.0,0.0,0.0,0.0,0.0,0.0,0.0,0.0,0.0,0.0,0.0,0.0,0.0,0.0,0.0,0.0,0.0,0.0,0.0,0.0359,0.1388,0.1567,0.1924,0.2992,0.3126,0.3126,0.3126,0.3126,0.3126,0.3126,0.3126,0.317,0.3349,0.3213,0.317,0.3349,0.3213,0.3126,0.3126,0.1076,0.0,0.0,0.1031,0.1031,0.0045,0.1076,0.0986,0.0,0.0,0.0,0.0,0.0,0.0,0.0,0.0,0.0,0.0,0.0,0.0,0.0,0.0,0.0,0.0,0.0,0.0,0.0,0.0,0.0,0.0,0.0,0.0,0.0,-0.0628,-0.0718,-0.0045,-0.1121,-0.1522,-0.0807,-0.0807,-0.0807,-0.0807,-0.0269,0.0,0.0,0.0,0.0,0.0,0.0,0.0,0.0,0.0,0.0,0.0,0.0,0.0,0.0,0.0,0.0,0.0,0.0,0.0,0.0,0.0,0.0,0.0,0.0,0.0,0.0,0.0,0.0,0.0,0.0,0.0,0.0135,0.0807,0.1031,0.1165,0.1835,0.2013,0.2013,0.2013,0.2013,0.2013,0.2013,0.1478,0.121,0.1879,0.2013,0.2013,0.2013,0.2013,0.2191,0.2726,0.2815,0.2992,0.3525,0.3614,0.3614,0.3614,0.3614,0.3614,0.3614,0.3614,0.3881,0.4552,0.3972,0.3881,0.4599,0.3972,0.3614,0.3614,0.2547,0.2013,0.2013,0.2547,0.2547,0.2013,0.2547,0.2503,0.0,0.0,0.0,0.0,0.0,0.0,0.0,0.0,0.0,0.0,0.0,0.0,0.0,0.0,0.0,0.0,0.0,0.0,0.0,0.0,0.0,0.0,0.0,0.0,0.0,-0.0807,-0.0986,-0.009,-0.0852,-0.0941,-0.0045,0.0,0.0,0.0,0.0,0.0,0.0,0.0,0.0,0.0,0.0,0.0,0.0,0.0,0.0,0.0,0.0,0.0,0.0,0.0,0.0,0.0,0.0,0.0,0.0,0.0,0.0,0.0,0.0,0.0,0.0,0.0,0.0,0.0045,0.0359,0.0449,0.0718,0.1924,0.2236,0.2458,0.3349,0.3614,0.3614,0.3614,0.3614,0.3614,0.3614,0.2903,0.2503,0.3436,0.3614,0.3614,0.3614,0.3614,0.3703,0.4016,0.4061,0.415,0.4461,0.4503,0.4503,0.4503,0.4503,0.4503,0.4503,0.4503,0.4863,0.5758,0.4996,0.4907,0.5802,0.4952,0.4503,0.4503,0.4503,0.4192,0.3614,0.3927,0.3881,0.3614,0.3927,0.3881,0.0,0.0,0.0,0.0,0.0,0.0,0.0,0.0,0.0,0.0,0.0,0.0,0.0,0.0,0.0,0.0,0.0,0.0,0.0,0.0,0.0,0.0,0.0,0.0,0.0,-0.0045,-0.009,0.0,-0.0045,-0.0045,0.0,0.0,0.0,0.0,0.0,0.0,0.0,0.0,0.0,0.0,0.0,0.0,0.0,0.0,0.0,0.0,0.0,0.0,0.0,0.0,0.0,0.0,0.0,0.0,0.0,0.0,0.0,0.0,0.0,0.0,0.0,0.0,0.0,0.0225,0.1344,0.1701,0.1969,0.317,0.3525,0.3525,0.357,0.3614,0.3614,0.3614,0.3614,0.3614,0.3614,0.357,0.3525,0.357,0.3614,0.3614,0.3614,0.3614,0.3972,0.5134,0.5314,0.5714,0.6782,0.6918,0.6918,0.6918,0.6918,0.6918,0.6918,0.6918,0.6959,0.7007,0.6959,0.6959,0.7007,0.6959,0.6918,0.6918,0.6918,0.5841,0.3614,0.4732,0.4732,0.3614,0.4776,0.4688,0.0,0.0,0.0,0.0,0.0,0.0,0.0,0.0,0.0,0.0,0.0,0.0,0.0,0.0,0.0,0.0,0.0,0.0,0.0,0.0,0.0,0.0,0.0,0.0,0.0,0.0,0.0,0.0,0.0,0.0,0.0,0.0,0.0,0.0,0.0,0.0,0.0,0.0,0.0,0.0,0.0,0.0,0.0,0.0,0.0,0.0,0.0,0.0,0.0,0.0,0.0,0.0,0.0,0.0,0.0,0.0,0.0,0.0,0.0,0.0,0.0135,0.0897,0.1165,0.1389,0.2592,0.2948,0.3215,0.4419,0.4776,0.491,0.5664,0.5844,0.5844,0.5844,0.5844,0.5844,0.5844,0.5844,0.5844,0.5844,0.5844,0.5844,0.5844,0.5844,0.5977,0.6428,0.6473,0.665,0.7051,0.7095,0.7095,0.7095,0.7095,0.7095,0.7095,0.7095,0.7095,0.7095,0.7095,0.7095,0.7095,0.7095,0.7095,0.7095,0.7095,0.6694,0.5844,0.629,0.629,0.5844,0.6293,0.6245,0.0,0.0,0.0,0.0,0.0,0.0,0.0,0.0,0.0,0.0,0.0,0.0,0.0,0.0,0.0,0.0,0.0,0.0,0.0,0.0,0.0,0.0,0.0,0.0,0.0,0.0,0.0,0.0,0.0,0.0,0.0,0.0,0.0,0.0,0.0,0.0,0.0,0.0,0.0,0.0,0.0,0.0,0.0,0.0,0.0,0.0045,0.0449,0.0359,0.0,0.0,0.0225,0.0583,0.0583,0.0852,0.1165,0.0763,0.0852,0.1165,0.0763,0.0852,0.1344,0.2147,0.2413,0.2637,0.3838,0.4194,0.4463,0.5625,0.5983,0.616,0.6918,0.7095,0.7095,0.7095,0.7095,0.7095,0.7095,0.7095,0.7095,0.7095,0.7095,0.7095,0.7095,0.7095,0.7095,0.7095,0.7095,0.7095,0.7095,0.7095,0.7095,0.7095,0.7095,0.7095,0.7095,0.7095,0.7095,0.7095,0.7095,0.7095,0.7095,0.7095,0.7095,0.7095,0.7095,0.7095,0.7095,0.7095,0.7095,0.7095,0.7095,0.7095,0.0,0.0,0.0,0.0,0.0,0.0,0.0,0.0,0.0,0.0,0.0,0.0,0.0,0.0,0.0,0.0,0.0,0.0,0.0,0.0,0.0,0.0,0.0,0.0,0.0,0.0,0.0,0.0,0.0,0.0,0.0,0.0,0.0,0.0,0.0,0.0,0.0,0.0,0.0,0.0,0.0,0.0,0.0,0.0045,0.0045,0.0135,0.1344,0.121,0.009,0.009,0.0807,0.1835,0.1835,0.2547,0.3436,0.2281,0.2592,0.3436,0.2281,0.2637,0.3614,0.3659,0.3659,0.3881,0.509,0.5447,0.5672,0.6786,0.7095,0.7095,0.7095,0.7095,0.7095,0.7095,0.7095,0.7095,0.7095,0.7095,0.7095,0.7095,0.7095,0.7095,0.7095,0.7095,0.7095,0.7095,0.7095,0.7095,0.7095,0.7095,0.7095,0.7095,0.7095,0.7095,0.7095,0.7095,0.7095,0.7095,0.7095,0.7095,0.7095,0.7095,0.7095,0.7095,0.7095,0.7095,0.7095,0.7095,0.7095,0.7095,0.7095,0.7095,0.0,0.0,0.0,0.0,0.0,0.0,0.0,0.0,0.0,0.0,0.0,0.0,0.0,0.0,0.0,0.0,0.0,0.0,0.0,0.0,0.0,0.0,0.0,0.0,0.0,0.0,0.0,0.0,0.0,0.0,0.0,0.0,0.0,0.0,0.0,0.0,0.0,0.0,0.0,0.0,0.0,0.0,0.0045,0.0897,0.1299,0.1389,0.2592,0.2903,0.2592,0.2592,0.2814,0.3081,0.3081,0.3303,0.357,0.3215,0.3303,0.357,0.3213,0.3303,0.3748,0.4596,0.491,0.5134,0.6293,0.665,0.6694,0.7007,0.7095,0.7095,0.7095,0.7095,0.7095,0.7095,0.7095,0.7095,0.7095,0.7095,0.7095,0.7095,0.7095,0.7095,0.7095,0.7095,0.7095,0.7095,0.7095,0.7095,0.7095,0.7095,0.7095,0.7095,0.7095,0.7095,0.7095,0.7095,0.7095,0.7095,0.7095,0.7095,0.7095,0.7095,0.7095,0.7095,0.7095,0.7095,0.7095,0.7095,0.7095,0.7095,0.7095,0.7095,0.0,0.0,0.0,0.0,0.0,0.0,0.0,0.0,0.0,0.0,0.0,0.0,0.0,0.0,0.0,0.0,0.0,0.0,0.0,0.0,0.0,0.0,0.0,0.0,0.0,0.0,0.0,0.0,0.0,0.0,0.0,0.0,0.0,0.0,0.0,0.0,0.0,0.0,0.0,0.0,0.0,0.0269,0.0762,0.1478,0.2057,0.2637,0.3838,0.433,0.4372,0.4863,0.4774,0.433,0.433,0.4639,0.4996,0.4508,0.4639,0.4994,0.4508,0.4683,0.5174,0.5891,0.6115,0.6248,0.6915,0.7095,0.7095,0.7095,0.7095,0.7095,0.7095,0.7095,0.7095,0.7095,0.7095,0.7095,0.7095,0.7095,0.7095,0.7095,0.7095,0.7095,0.7095,0.7095,0.7095,0.7095,0.7095,0.7095,0.7095,0.7095,0.7095,0.7095,0.7095,0.7095,0.7095,0.7095,0.7095,0.7095,0.7095,0.7095,0.7095,0.7095,0.7095,0.7095,0.7095,0.7095,0.7095,0.7095,0.7095,0.7095,0.7095,0.7095,0.0,0.0,0.0,0.0,0.0303,0.0,0.0174,0.014,0.0106,0.0036,0.0,0.0,0.0,0.0,0.0,0.0,0.0,0.0,0.0,0.0,0.0,0.0,0.0,0.0,0.0,0.0,0.0,0.0,0.0,0.0,0.0,0.0,0.0,0.0,0.0,0.0,0.0,0.0,0.0,0.0,0.0133,0.0761,0.179,0.2058,0.2771,0.3881,0.5087,0.5581,0.5669,0.6694,0.6517,0.5581,0.5581,0.6204,0.6962,0.5983,0.6248,0.6962,0.5938,0.6248,0.7095,0.7095,0.7095,0.7095,0.7095,0.7095,0.7095,0.7095,0.7095,0.7095,0.7095,0.7095,0.7095,0.7095,0.7095,0.7095,0.7095,0.7095,0.7095,0.7095,0.7095,0.7095,0.7095,0.7095,0.7095,0.7095,0.7095,0.7095,0.7095,0.7095,0.7095,0.7095,0.7095,0.7095,0.7095,0.7095,0.7095,0.7095,0.7095,0.7095,0.7095,0.7095,0.7095,0.7095,0.7095,0.7095,0.7095,0.7095,0.7095,0.7095,0.7095,0.7095,0.0,0.0,0.0,0.2178,0.2178,0.0,0.1215,0.1049,0.0853,0.0141,0.0,0.0,0.0,0.0,0.0,0.0,0.0,0.0,0.0,0.0,0.0,0.0,0.0,0.0,0.0,0.0,0.0,0.0,0.0,0.0,0.0,0.0,0.0,0.0,0.0,0.0,0.0,0.0,0.0,0.0,0.1003,0.1585,0.1879,0.3798,0.4821,0.5134,0.6248,0.6782,0.6786,0.7007,0.6962,0.6782,0.6782,0.6918,0.7095,0.683,0.6918,0.7051,0.683,0.6918,0.7095,0.7095,0.7095,0.7095,0.7095,0.7095,0.7095,0.7095,0.7095,0.7095,0.7095,0.7095,0.7095,0.7095,0.7095,0.7095,0.7095,0.7095,0.7095,0.7095,0.7095,0.7095,0.7095,0.7095,0.7095,0.7095,0.7095,0.7095,0.7095,0.7095,0.7095,0.7095,0.7095,0.7095,0.7095,0.7095,0.7095,0.7095,0.7095,0.7095,0.7095,0.7095,0.7095,0.7095,0.7095,0.7095,0.7095,0.7095,0.7095,0.7095,0.7095,0.7095,0.2822,0.2711,0.2711,0.2711,0.2711,0.0,0.0,0.2009,0.1883,0.1435,0.096,0.0655,0.0663,0.028,0.0,0.0,0.0,0.0,0.0,0.0,0.0,0.0,0.0,0.0,0.0,0.0,0.0,0.0,0.0,0.0,0.0,0.0,0.0,0.0,0.0,0.0,0.0,0.0,0.0288,0.0799,0.1459,0.2395,0.3473,0.48,0.5714,0.6293,0.6874,0.7095,0.7095,0.7095,0.7095,0.7095,0.7095,0.7095,0.7095,0.7095,0.7095,0.7095,0.7095,0.7095,0.7095,0.7095,0.7095,0.7095,0.7095,0.7095,0.7095,0.7095,0.7095,0.7095,0.7095,0.7095,0.7095,0.7095,0.7095,0.7095,0.7095,0.7095,0.7095,0.7095,0.7095,0.7095,0.7095,0.7095,0.7095,0.7095,0.7095,0.7095,0.7095,0.7095,0.7095,0.7095,0.7095,0.7095,0.7095,0.7095,0.7095,0.7095,0.7095,0.7095,0.7095,0.7095,0.7095,0.7095,0.7095,0.7095,0.7095,0.7095,0.7095,0.7095,0.7095,0.7095,0.3502,0.3272,0.3267,0.3215,0.3211,0.3178,0.0,0.0,0.0,0.2744,0.2108,0.1574,0.1574,0.084,0.0237,0.0241,0.0104,0.0,0.0,0.0,0.0,0.0,0.0,0.0,0.0,0.0,0.0,0.0,0.0,0.0,0.0,0.0,0.0,0.0,0.0,0.0,0.0,0.02,0.0728,0.1625,0.2146,0.3346,0.5102,0.5504,0.6228,0.7095,0.7095,0.7095,0.7095,0.7095,0.7095,0.7095,0.7095,0.7095,0.7095,0.7095,0.7095,0.7095,0.7095,0.7095,0.7095,0.7095,0.7095,0.7095,0.7095,0.7095,0.7095,0.7095,0.7095,0.7095,0.7095,0.7095,0.7095,0.7095,0.7095,0.7095,0.7095,0.7095,0.7095,0.7095,0.7095,0.7095,0.7095,0.7095,0.7095,0.7095,0.7095,0.7095,0.7095,0.7095,0.7095,0.7095,0.7095,0.7095,0.7095,0.7095,0.7095,0.7095,0.7095,0.7095,0.7095,0.7095,0.7095,0.7095,0.7095,0.7095,0.7095,0.7095,0.7095,0.7095,0.7095,0.7095,0.5319,0.5283,0.5251,0.5125,0.509,0.4888,0.4048,0.0,0.3647,0.2845,0.0,0.2544,0.2544,0.0,0.0,0.1143,0.0499,0.0,0.0,0.0,0.0,0.0,0.0,0.0,0.0,0.0,0.0,0.0,0.0,0.0,0.0,0.0,0.0,0.0,0.0,0.0,0.0,0.0944,0.1471,0.1624,0.3583,0.4748,0.5142,0.6245,0.6847,0.7095,0.7095,0.7095,0.7095,0.7095,0.7095,0.7095,0.7095,0.7095,0.7095,0.7095,0.7095,0.7095,0.7095,0.7095,0.7095,0.7095,0.7095,0.7095,0.7095,0.7095,0.7095,0.7095,0.7095,0.7095,0.7095,0.7095,0.7095,0.7095,0.7095,0.7095,0.7095,0.7095,0.7095,0.7095,0.7095,0.7095,0.7095,0.7095,0.7095,0.7095,0.7095,0.7095,0.7095,0.7095,0.7095,0.7095,0.7095,0.7095,0.7095,0.7095,0.7095,0.7095,0.7095,0.7095,0.7095,0.7095,0.7095,0.7095,0.7095,0.7095,0.7095,0.7095,0.7095,0.7095,0.7095,0.7095,0.5752,0.5711,0.5677,0.5566,0.5528,0.5403,0.4906,0.4821,0.4722,0.435,0.0,0.0,0.0,0.0,0.0,0.0,0.1332,0.0769,0.076,0.0334,0.0,0.0,0.0,0.0,0.0,0.0,0.0,0.0,0.0,0.0,0.0,0.0,0.0,0.0,0.0,0.0314,0.0941,0.1372,0.2203,0.3414,0.4426,0.5312,0.6027,0.6629,0.6964,0.7095,0.7095,0.7095,0.7095,0.7095,0.7095,0.7095,0.7095,0.7095,0.7095,0.7095,0.7095,0.7095,0.7095,0.7095,0.7095,0.7095,0.7095,0.7095,0.7095,0.7095,0.7095,0.7095,0.7095,0.7095,0.7095,0.7095,0.7095,0.7095,0.7095,0.7095,0.7095,0.7095,0.7095,0.7095,0.7095,0.7095,0.7095,0.7095,0.7095,0.7095,0.7095,0.7095,0.7095,0.7095,0.7095,0.7095,0.7095,0.7095,0.7095,0.7095,0.7095,0.7095,0.7095,0.7095,0.7095,0.7095,0.7095,0.7095,0.7095,0.7445,0.8149,0.8149,0.8492,0.9096,0.7749,0.7492,0.5905,0.5864,0.583,0.5684,0.5616,0.5559,0.5484,0.5426,0.5395,0.5395,0.4855,0.0,0.0,0.0,0.0,0.0,0.0,0.1665,0.1641,0.0893,0.0267,0.0034,0.0,0.0,0.0,0.0,0.0,0.0,0.0,0.0,0.0,0.0,0.0,0.0,0.0269,0.0818,0.1607,0.2154,0.3205,0.4688,0.5091,0.5764,0.6644,0.6797,0.6903,0.7041,0.7078,0.7095,0.7095,0.7095,0.7095,0.7095,0.7095,0.7095,0.7095,0.7095,0.7095,0.7095,0.7095,0.7095,0.7095,0.7095,0.7095,0.7095,0.7095,0.7095,0.7095,0.7095,0.7095,0.7095,0.7095,0.7095,0.7095,0.7095,0.7095,0.7095,0.7095,0.7095,0.7095,0.7095,0.7095,0.7095,0.7095,0.7095,0.7095,0.7095,0.7095,0.7095,0.7095,0.7095,0.7095,0.7095,0.7095,0.7095,0.7095,0.7095,0.7095,0.7095,0.7401,0.7445,0.7095,0.7404,0.7445,0.7095,0.7448,0.8013,0.889,0.9192,0.9797,1.0567,0.8834,0.8536,0.6064,0.5986,0.5949,0.5833,0.5691,0.5589,0.5583,0.5501,0.5395,0.5395,0.5362,0.5359,0.5359,0.0,0.0,0.0,0.0,0.0,0.0,0.1772,0.0946,0.0101,0.0,0.0,0.0,0.0,0.0,0.0,0.0,0.0,0.0,0.0,0.0,0.0,0.1021,0.1568,0.1606,0.3597,0.4649,0.4727,0.575,0.6342,0.6525,0.6637,0.6793,0.69,0.7038,0.7095,0.7095,0.7095,0.7095,0.7095,0.7095,0.7095,0.7095,0.7095,0.7095,0.7095,0.7095,0.7095,0.7095,0.7095,0.7095,0.7095,0.7095,0.7095,0.7095,0.7095,0.7095,0.7095,0.7095,0.7095,0.7095,0.7095,0.7095,0.7095,0.7095,0.7095,0.7095,0.7095,0.7095,0.7095,0.7095,0.7095,0.7095,0.7095,0.7095,0.7095,0.7095,0.7095,0.7095,0.7095,0.7095,0.7095,0.7095,0.7095,0.7095,0.7095,0.8193,0.8321,0.7139,0.8233,0.8277,0.7139,0.8237,0.8846,0.889,1.0009,1.0567,1.0611,1.0524,1.0524,0.6235,0.6183,0.6146,0.5989,0.5882,0.583,0.5633,0.5549,0.5518,0.5416,0.5395,0.5395,0.5395,0.0,0.0,0.0,0.0,0.0,0.0,0.2509,0.1599,0.0825,0.0291,0.0,0.0,0.0,0.0,0.0,0.0,0.0237,0.0817,0.0866,0.1173,0.1912,0.2282,0.2862,0.3634,0.4336,0.504,0.5747,0.6141,0.6375,0.6518,0.663,0.6783,0.6893,0.7034,0.7095,0.7095,0.7095,0.7095,0.7095,0.7095,0.7095,0.7095,0.7095,0.7095,0.7095,0.7095,0.7095,0.7095,0.7095,0.7095,0.7095,0.7095,0.7095,0.7095,0.7095,0.7095,0.7095,0.7095,0.7095,0.7095,0.7095,0.7095,0.7095,0.7095,0.7095,0.7095,0.7095,0.7095,0.7095,0.7095,0.7095,0.7095,0.7095,0.7095,0.7095,0.7095,0.7095,0.7095,0.7095,0.7095,0.7404,0.8233,0.8969,0.9396,0.9396,0.9792,0.9836,0.944,0.9792,0.9836,0.944,0.9836,1.0394,1.1166,1.1552,1.212,1.2912,1.2912,1.2473,0.63,0.63,0.6276,0.6135,0.6071,0.5942,0.5789,0.5705,0.5623,0.5508,0.5477,0.546,0.5405,0.0,0.0,0.0,0.0,0.0,0.0,0.311,0.2317,0.1577,0.0835,0.0381,0.0381,0.0163,0.01,0.0365,0.0435,0.0706,0.1273,0.1601,0.2125,0.279,0.3229,0.3836,0.4624,0.5057,0.5628,0.63,0.63,0.6347,0.6443,0.6552,0.6702,0.6854,0.6957,0.7051,0.7095,0.7095,0.7095,0.7095,0.7095,0.7095,0.7095,0.7095,0.7095,0.7095,0.7095,0.7095,0.7095,0.7095,0.7095,0.7095,0.7095,0.7095,0.7095,0.7095,0.7095,0.7095,0.7095,0.7095,0.7095,0.7095,0.7095,0.7095,0.7095,0.7095,0.7095,0.7095,0.7095,0.7095,0.7095,0.7095,0.7095,0.7095,0.7448,0.7753,0.7753,0.8097,0.8356,0.8356,0.8356,0.8663,0.9449,1.0178,1.0611,1.0611,1.0999,1.1042,1.0611,1.0999,1.0999,1.0611,1.0994,1.1558,1.2285,1.2717,1.3336,1.4088,1.4088,1.3688]}]]